[[{"header":{"parameterUnit":"m.s-1","parameterCategory":1,"la1":30.6,"la2":29.2853,"lo1":-89.7004,"lo2":-87.6739,"dy":0.0162,"dx":0.0183,"nx":112,"ny":82,"refTime":"2023-05-03T00:00:00:Z","depth":0,"parameterNumber":2,"parameterNumberName":"U-component_of_WINDS"},"data":[0.0,0.0,0.0,0.0,0.0,0.0,0.0,0.0,0.0,0.0,0.0,0.0,0.0,0.0,0.0,0.0,0.0,0.0,0.0,0.0,0.0,0.0,0.0,0.0,0.0,0.0,0.0,0.0,0.0,0.0,0.0,0.0,0.0,0.0,0.0,0.0,0.0,0.0,0.0,0.0,0.0,0.0,0.0,0.0,0.0,0.0,0.0,0.0,0.0,0.0,0.0,0.0,0.0,0.0,0.0,0.0,0.0,0.0,0.0,0.0,0.0,0.0,0.0,0.0,0.0,0.0,0.0,0.0,0.0,0.0,0.0,0.0,0.0,0.0,0.0,0.0,0.0,0.0,0.0,0.0,0.0,0.0,0.0,0.0,0.0,0.0,0.0,0.0,0.0,0.0,0.0,0.0,0.0,0.0,0.0,0.0,0.0,0.0,0.0,0.0,0.0,0.0,0.0,0.0,0.0,0.0,0.0,0.0,0.0,0.0,0.0,0.0,0.0,0.0,0.0,0.0,0.0,0.0,0.0,0.0,0.0,0.0,0.0,0.0,0.0,0.0,0.0,0.0,0.0,0.0,0.0,0.0,0.0,0.0,0.0,0.0,0.0,0.0,0.0,0.0,0.0,0.0,0.0,0.0,0.0,0.0,0.0,0.0,0.0,0.0,0.0,0.0,0.0,0.0,0.0,0.0,0.0,0.0,0.0,0.0,0.0,0.0,0.0,0.0,0.0,0.0,0.0,0.0,0.0,0.0,0.0,0.0,0.0,0.0,0.0,0.0,0.0,0.0,0.0,0.0,0.0,0.0,0.0,0.0,0.0,0.0,0.0,0.0,0.0,0.0,0.0,0.0,0.0,0.0,0.0,0.0,0.0,0.0,0.0,0.0,0.0,0.0,0.0,0.0,0.0,0.0,0.0,0.0,0.0,0.0,0.0,0.0,0.0,0.0,0.0,0.0,0.0,0.0,0.0,0.0,0.0,0.0,0.0,0.0,0.0,0.0,0.0,0.0,0.0,0.0,0.0,0.0,0.0,0.0,0.0,0.0,0.0,0.0,0.0,0.0,0.0,0.0,0.0,0.0,0.0,0.0,0.0,0.0,0.0,0.0,0.0,0.0,0.0,0.0,0.0,0.0,0.0,0.0,0.0,0.0,0.0,0.0,0.0,0.0,0.0,0.0,0.0,0.0,0.0,0.0,0.0,0.0,0.0,0.0,0.0,0.0,0.0,0.0,0.0,0.0,0.0,0.0,0.0,0.0,0.0,0.0,0.0,0.0,0.0,0.0,0.0,0.0,0.0,0.0,0.0,0.0,0.0,0.0,0.0,0.0,0.0,0.0,0.0,0.0,0.0,0.0,0.0,0.0,0.0,0.0,0.0,0.0,0.0,0.0,0.0,0.0,0.0,0.0,0.0,0.0,0.0,0.0,0.0,0.0,0.0,0.0,0.0,0.0,0.0,0.0,0.0,0.0,0.0,0.0,0.0,0.0,0.0,0.0,0.0,0.0,0.0,0.0,0.0,0.0,0.0,0.0,0.0,0.0,0.0,0.0,0.0,0.0,0.0,0.0,0.0,0.0,0.0,0.0,0.0,0.0,0.0,0.0,0.0,0.0,0.0,0.0,0.0,0.0,0.0,0.0,0.0,0.0,0.0,0.0,0.0,0.0,0.0,0.0,0.0,0.0,0.0,0.0,0.0,0.0,0.0,0.0,0.0,0.0,0.0,0.0,0.0,0.0,0.0,0.0,0.0,0.0,0.0,0.0,0.0,0.0,0.0,0.0,0.0,0.0,0.0,0.0,0.0,0.0,0.0,0.0,0.0,0.0,0.0,0.0,0.0,0.0,0.0,0.0,0.0,0.0,0.0,0.0,0.0,0.0,0.0,0.0,0.0,0.0,0.0,0.0,0.0,0.0,0.0,0.0,0.0,0.0,0.0,0.0,0.0,0.0,0.0,0.0,0.0,0.0,0.0,0.0,0.0,0.0,0.0,0.0,0.0,0.0,0.0,0.0,0.0,0.0,0.0,0.0,0.0,0.0,0.0,0.0,0.0,0.0,0.0,0.0,0.0,0.0,0.0,0.0,0.0,0.0,0.0,0.0,0.0,0.0,0.0,0.0,0.0,0.0,0.0,0.0,0.0,0.0,0.0,0.0,0.0,0.0,0.0,0.0,0.0,0.0,0.0,0.0,0.0,0.0,0.0,0.0,0.0,0.0,0.0,0.0,0.0,0.0,0.0,0.0,0.0,0.0,0.0,0.0,0.0,0.0,0.0,0.0,0.0,0.0,0.0,0.0,0.0,0.0,0.0,0.0,0.0,0.0,0.0,0.0,0.0,0.0,0.0,0.0,0.0,0.0,0.0,0.0,0.0,0.0,0.0,0.0,0.0,0.0,0.0,0.0,0.0,0.0,0.0,0.0,0.0,0.0,0.0,0.0,0.0,0.0,0.0,0.0,0.0,0.0,0.0,0.0,0.0,0.0,0.0,0.0,0.0,0.0,0.0,0.0,0.0,0.0,0.0,0.0,0.0,0.0,0.0,0.0,0.0,0.0,0.0,0.0,0.0,0.0,0.0,0.0,0.0,0.0,0.0,0.0,0.0,0.0,0.0,0.0,0.0,0.0,0.0,0.0,0.0,0.0,0.0,0.0,0.0,0.0,0.0,0.0,0.0,0.0,0.0,0.0,0.0,0.0,0.0,0.0,0.0,0.0,0.0,0.0,0.0,0.0,0.0,0.0,0.0,0.0,0.0,0.0,0.0,0.0,0.0,0.0,0.0,0.0,0.0,0.0,0.0,0.0,0.0,0.0,0.0,0.0,0.0,0.0,0.0,0.0,0.0,0.0,0.0,0.0,0.0,0.0,0.0,0.0,0.0,0.0,0.0,0.0,0.0,0.0,0.0,0.0,0.0,0.0,0.0,0.0,0.0,0.0,0.0,0.0,0.0,0.0,0.0,0.0,0.0,0.0,0.0,0.0,0.0,0.0,0.0,0.0,0.0,0.0,0.0,0.0,0.0,0.0,0.0,0.0,0.0,0.0,0.0,0.0,0.0,0.0,0.0,0.0,0.0,0.0,0.0,0.0,0.0,0.0,0.0,0.0,0.0,0.0,0.0,0.0,0.0,0.0,0.0,0.0,0.0,0.0,0.0,0.0,0.0,0.0,0.0,0.0,0.0,0.0,0.0,0.0,0.0,0.0,0.0,0.0,0.0,0.0,0.0,0.0,0.0,0.0,0.0,0.0,0.0,0.0,0.0,0.0,0.0,0.0,0.0,0.0,0.0,0.0,0.0,0.0,0.0,0.0,0.0,0.0,0.0,0.0,0.0,0.0,0.0,0.0,0.0,0.0,0.0,0.0,0.0,0.0,0.0,0.0,0.0,0.0,0.0,0.0,0.0,0.0,0.0,0.0,0.0,0.0,0.0,0.0,0.0,0.0,0.0,0.0,0.0,0.0,0.0,0.0,0.0,0.0,0.0,0.0,0.0,0.0,0.0,0.0,0.0,0.0,0.0,0.0,0.0,0.0,0.0,0.0,0.0,0.0,0.0,0.0,0.0,0.0,0.0,0.0,0.0,0.0,0.0,0.0,0.0,0.0,0.0,0.0,0.0,0.0,0.0,0.0,0.0,0.0,0.0,0.0,0.0,0.0,0.0,0.0,0.0,0.0,0.0,0.0,0.0,0.0,0.0,0.0,0.0,0.0,0.0,0.0,0.0,0.0,0.0,0.0,0.0,0.0,0.0,0.0,0.0,0.0,0.0,0.0,0.0,0.0,0.0,0.0,0.0,0.0,0.0,0.0,0.0,0.0,0.0,0.0,0.0,0.0,0.0,0.0,0.0,0.0,0.0,0.0,0.0,0.0,0.0,0.0,0.0,0.0,0.0,0.0,0.0,0.0,0.0,0.0,0.0,0.0,0.0,0.0,0.0,0.0,0.0,0.0,0.0,0.0,0.0,0.0,0.0,0.0,0.0,0.0,0.0,0.0,0.0,0.0,0.0,0.0,0.0,0.0,0.0,0.0,0.0,0.0,0.0,0.0,0.0,0.0,0.0,0.0,0.0,0.0,0.0,0.0,0.0,0.0,0.0,0.0,0.0,0.0,0.0,0.0,0.0,0.0,0.0,0.0,0.0,0.0,0.0,0.0,0.0,0.0,0.0,0.0,0.0,0.0,0.0,0.0,0.0,0.0,0.0,0.0,0.0,0.0,0.0,0.0,0.0,0.0,0.0,0.0,0.0,0.0,0.0,0.0,0.0,0.0,0.0,0.0,0.0,0.0,0.0,0.0,0.0,0.0,0.0,0.0,0.0,0.0,0.0,0.0,0.0,0.0,0.0,0.0,0.0,0.0,0.0,0.0,0.0,0.0,0.0,0.0,0.0,0.0,0.0,0.0,0.0,0.0,0.0,0.0,0.0,0.0,0.0,0.0,0.0,0.0,0.0,0.0,0.0,0.0,0.0,0.0,0.0,0.0,0.0,0.0,0.0,0.0,0.0,0.0,0.0,0.0,0.0,0.0,0.0,0.0,0.0,0.0,0.0,0.0,0.0,0.0,0.0,0.0,0.0,0.0,0.0,0.0,0.0,0.0,0.0,0.0,0.0,0.0,0.0,0.0,0.0,0.0,0.0,0.0,0.0,0.0,0.0,0.0,0.0,0.0,0.0,0.0,0.0,0.0,0.0,0.0,0.0,0.0,0.0,0.0,0.0,0.0,0.0,0.0,0.0,0.0,0.0,0.0,0.0,0.0,0.0,0.0,0.0,0.0,0.0,0.0,0.0,0.0,0.0,0.0,0.0,0.0,0.0,0.0,0.0,0.0,0.0,0.0,0.0,0.0,0.0,0.0,0.0,0.0,0.0,0.0,0.0,0.0,0.0,0.0,0.0,0.0,0.0,0.0,0.0,0.0,0.0,0.0,0.0,0.0,0.0,0.0,0.0,0.0,0.0,0.0,0.0,0.0,0.0,0.0,0.0,0.0,0.0,0.0,0.0,0.0,0.0,0.0,0.0,0.0,0.0,0.0,0.0,0.0,0.0,0.0,0.0,0.0,0.0,0.0,0.0,0.0,0.0,0.0,0.0,0.0,0.0,0.0,0.0,0.0,0.0,0.0,0.0,0.0,0.0,0.0,0.0,0.0,0.0,0.0,0.0,0.0,0.0,0.0,0.0,0.0,0.0,0.0,0.0,0.0,0.0,0.0,0.0,0.0,0.0,0.0,0.0,0.0,0.0,0.0,0.0,0.0,0.0,0.0,0.0,0.0,0.0,0.0,0.0,0.0,0.0,0.0,0.0,0.0,0.0,0.0,0.0,0.0,0.0,0.0,0.0,0.0,0.0,0.0,0.0,0.0,0.0,0.0,0.0,0.0,0.0,0.0,0.0,0.0,0.0,0.0,0.0,0.0,0.0,0.0,0.0,0.0,0.0,0.0,0.0,0.0,0.0,0.0,0.0,0.0,0.0,0.0,0.0,0.0,0.0,0.0,0.0,0.0,0.0,0.0,0.0,0.0,0.0,0.0,0.0,0.0,0.0,0.0,0.0,0.0,0.0,0.0,0.0,0.0,0.0,0.0,0.0,0.0,0.0,0.0,0.0,0.0,0.0,0.0,0.0,0.0,0.0,0.0,0.0,0.0,0.0,0.0,0.0,0.0,0.0,0.0,-3.8707,0.0,0.0,0.0,0.0,0.0,0.0,0.0,0.0,0.0,0.0,0.0,0.0,0.0,0.0,0.0,0.0,0.0,0.0,0.0,0.0,0.0,0.0,0.0,0.0,0.0,0.0,0.0,0.0,0.0,0.0,0.0,0.0,0.0,0.0,0.0,0.0,0.0,0.0,0.0,0.0,0.0,0.0,0.0,0.0,0.0,0.0,0.0,0.0,0.0,0.0,0.0,0.0,0.0,0.0,0.0,0.0,0.0,0.0,0.0,0.0,0.0,0.0,0.0,0.0,0.0,0.0,0.0,0.0,0.0,0.0,0.0,0.0,0.0,0.0,0.0,0.0,0.0,0.0,0.0,0.0,0.0,0.0,0.0,0.0,0.0,0.0,0.0,0.0,0.0,0.0,0.0,0.0,0.0,0.0,0.0,0.0,0.0,0.0,0.0,0.0,0.0,0.0,0.0,0.0,0.0,0.0,0.0,0.0,0.0,0.0,0.0,0.0,-3.8707,0.0,0.0,0.0,0.0,0.0,0.0,0.0,0.0,0.0,0.0,0.0,0.0,0.0,0.0,0.0,0.0,0.0,0.0,0.0,0.0,0.0,0.0,0.0,0.0,0.0,0.0,0.0,0.0,0.0,0.0,0.0,0.0,0.0,0.0,0.0,0.0,0.0,0.0,0.0,0.0,0.0,0.0,0.0,0.0,0.0,0.0,0.0,0.0,0.0,0.0,0.0,0.0,0.0,0.0,0.0,0.0,0.0,0.0,0.0,0.0,0.0,0.0,0.0,0.0,0.0,0.0,0.0,0.0,0.0,0.0,0.0,0.0,0.0,0.0,0.0,0.0,0.0,0.0,0.0,0.0,0.0,0.0,0.0,0.0,0.0,0.0,0.0,0.0,0.0,0.0,0.0,0.0,0.0,0.0,0.0,0.0,0.0,0.0,0.0,0.0,0.0,0.0,0.0,0.0,0.0,0.0,-3.6364,-3.8015,-3.8765,-3.8765,-3.8765,-3.8735,-3.8707,0.0,0.0,0.0,0.0,0.0,0.0,0.0,0.0,0.0,0.0,0.0,0.0,0.0,0.0,0.0,0.0,0.0,0.0,0.0,0.0,0.0,0.0,0.0,0.0,0.0,0.0,0.0,0.0,0.0,0.0,0.0,0.0,0.0,0.0,0.0,0.0,0.0,0.0,0.0,0.0,0.0,0.0,0.0,0.0,0.0,0.0,0.0,0.0,0.0,0.0,0.0,0.0,0.0,0.0,0.0,0.0,0.0,0.0,0.0,0.0,0.0,0.0,0.0,0.0,0.0,0.0,0.0,0.0,0.0,0.0,0.0,0.0,0.0,0.0,0.0,0.0,0.0,0.0,0.0,0.0,0.0,0.0,0.0,-3.56,-3.56,0.0,0.0,0.0,0.0,0.0,0.0,0.0,0.0,0.0,0.0,0.0,0.0,0.0,0.0,-3.6195,-3.6216,-3.6216,-3.6216,-3.6216,-3.6237,-3.6367,-3.8209,-3.9045,-3.9045,-3.9045,0.0,-3.8707,-3.8707,0.0,0.0,0.0,0.0,0.0,0.0,0.0,0.0,0.0,0.0,0.0,0.0,0.0,0.0,0.0,0.0,0.0,0.0,0.0,0.0,0.0,0.0,0.0,0.0,0.0,0.0,0.0,0.0,0.0,0.0,0.0,0.0,0.0,0.0,0.0,0.0,0.0,0.0,0.0,0.0,0.0,0.0,0.0,0.0,0.0,0.0,0.0,0.0,0.0,0.0,0.0,0.0,0.0,0.0,0.0,0.0,0.0,0.0,0.0,0.0,0.0,0.0,0.0,0.0,0.0,0.0,0.0,0.0,0.0,0.0,0.0,0.0,0.0,0.0,0.0,0.0,0.0,0.0,0.0,0.0,0.0,-3.5232,-3.6002,-3.6002,-3.5761,-3.56,0.0,0.0,0.0,0.0,0.0,0.0,0.0,0.0,0.0,-3.598,-3.6002,-3.6088,-3.6301,-3.6301,-3.6301,-3.6301,-3.6301,-3.6301,-3.6343,-3.7156,-3.7666,-3.7911,-3.7631,-3.8061,-3.8906,-3.8765,-3.8707,-3.8707,0.0,0.0,0.0,0.0,0.0,-3.8707,-3.8707,0.0,0.0,0.0,0.0,0.0,0.0,0.0,0.0,0.0,0.0,0.0,0.0,0.0,0.0,0.0,0.0,0.0,0.0,0.0,0.0,0.0,0.0,0.0,0.0,0.0,0.0,0.0,0.0,0.0,0.0,0.0,0.0,0.0,0.0,0.0,0.0,0.0,0.0,0.0,0.0,0.0,0.0,0.0,0.0,0.0,0.0,0.0,0.0,0.0,0.0,0.0,0.0,0.0,0.0,0.0,0.0,0.0,0.0,0.0,0.0,0.0,0.0,0.0,0.0,0.0,0.0,0.0,0.0,0.0,0.0,0.0,0.0,-3.6131,-3.6174,-3.628,-3.5893,-3.56,0.0,0.0,0.0,0.0,0.0,0.0,-3.5761,-3.5761,-3.5937,-3.6301,-3.706,-3.7473,-3.7473,-3.7473,-3.7538,-3.7667,-3.7667,-3.7667,-3.7667,-3.7667,-3.7857,-3.8164,-3.7815,-3.8398,-3.9524,-3.8939,-3.8707,-3.8707,-3.8707,-3.8707,0.0,-3.8707,-3.8707,-3.8707,-3.8707,-3.8707,-3.8707,-3.8707,0.0,-3.8707,-3.8707,0.0,0.0,0.0,0.0,-3.8707,-3.8707,0.0,0.0,0.0,0.0,0.0,0.0,0.0,0.0,0.0,0.0,0.0,0.0,0.0,0.0,0.0,0.0,0.0,0.0,0.0,0.0,0.0,0.0,0.0,0.0,0.0,0.0,0.0,0.0,0.0,0.0,0.0,0.0,0.0,0.0,0.0,0.0,0.0,0.0,0.0,0.0,0.0,0.0,0.0,0.0,0.0,0.0,0.0,0.0,0.0,0.0,0.0,0.0,0.0,0.0,0.0,0.0,0.0,0.0,0.0,0.0,0.0,0.0,-3.6259,-3.5893,0.0,0.0,0.0,0.0,-3.56,-3.56,-3.5783,-3.6237,-3.6259,-3.628,-3.6301,-3.9152,-4.067,-4.067,-4.067,-4.0903,-4.1314,-4.1314,-4.1314,-4.1314,-4.1314,-4.1354,-4.1376,-4.1336,-4.1136,-4.0688,-3.9281,-3.8707,-3.8707,-3.8707,-3.8707,-3.8707,-3.8707,-3.8707,-3.8707,-3.8707,-3.8707,-3.8707,-3.8707,-3.8707,-3.8707,-3.8707,-3.8707,0.0,0.0,-3.8707,-3.8707,-3.8707,-1.9455,0.0,0.0,0.0,0.0,0.0,0.0,0.0,0.0,0.0,0.0,0.0,0.0,0.0,0.0,0.0,0.0,0.0,0.0,0.0,0.0,0.0,0.0,0.0,0.0,0.0,0.0,0.0,0.0,0.0,0.0,0.0,0.0,0.0,0.0,0.0,0.0,0.0,0.0,0.0,0.0,0.0,0.0,0.0,0.0,0.0,0.0,0.0,0.0,0.0,0.0,0.0,0.0,0.0,0.0,0.0,0.0,0.0,0.0,0.0,0.0,0.0,-3.6237,-3.5893,0.0,0.0,-3.5871,-3.6872,-3.8865,-3.902,-3.9089,-3.925,-3.9272,-3.9272,-3.9272,-4.0342,-4.1035,-4.1358,-4.1358,-4.1426,-4.1604,-4.1604,-4.1604,-4.1604,-4.1604,-4.1604,-4.1604,-4.1604,-4.1515,-4.1388,-4.1901,-4.2109,-4.2109,-4.2109,-4.1984,-4.1791,-4.1791,-4.1791,-4.1479,-3.9423,-3.8707,-3.8707,-3.8707,-3.8707,-3.8707,-3.8707,-3.8707,-3.8707,-3.8707,-3.8707,-3.8707,-3.8707,-1.9455,0.0,0.0,0.0,0.0,0.0,0.0,0.0,0.0,0.0,0.0,0.0,0.0,0.0,0.0,0.0,0.0,0.0,0.0,0.0,0.0,0.0,0.0,0.0,0.0,0.0,0.0,0.0,0.0,0.0,0.0,0.0,0.0,0.0,0.0,0.0,0.0,0.0,0.0,0.0,0.0,0.0,0.0,0.0,0.0,0.0,0.0,0.0,0.0,0.0,0.0,0.0,0.0,0.0,0.0,0.0,0.0,0.0,0.0,0.0,0.0,-3.5958,-3.6259,-3.6953,-3.7382,-3.7382,-3.7676,-3.8703,-4.0756,-4.0912,-4.0912,-4.0912,-4.1854,-4.2504,-4.2673,-4.2697,-4.284,-4.3144,-4.3144,-4.3144,-4.3144,-4.3144,-4.3258,-4.3421,-4.3421,-4.3308,-4.3144,-4.3144,-4.3144,-4.324,-4.4305,-4.4728,-4.4675,-4.4186,-4.3862,-4.3666,-4.3666,-4.3666,-4.3352,-4.1233,-4.0477,-4.0477,-4.0477,-4.0399,-4.0322,-4.0322,-4.0322,-4.0322,-4.0322,-4.0322,-4.0322,-4.0322,-2.7567,-1.221,-0.2332,0.0,0.0,0.0,0.0,0.0,0.0,0.0,0.0,0.0,0.0,0.0,0.0,0.0,0.0,0.0,0.0,0.0,0.0,0.0,0.0,0.0,0.0,0.0,0.0,0.0,0.0,0.0,0.0,0.0,0.0,0.0,0.0,0.0,0.0,0.0,0.0,0.0,0.0,0.0,0.0,0.0,0.0,0.0,0.0,0.0,0.0,0.0,0.0,0.0,0.0,0.0,0.0,0.0,0.0,0.0,0.0,-3.5622,-3.6109,-3.6439,-3.6439,-3.9083,-4.0912,-4.0912,-4.0998,-4.105,-4.105,-4.105,-4.1073,-4.1073,-4.3845,-4.5667,-4.6172,-4.6196,-4.6196,-4.6196,-4.6196,-4.6196,-4.6221,-4.6221,-4.6488,-4.6998,-4.6998,-4.6725,-4.6221,-4.6221,-4.6221,-4.6221,-4.6221,-4.6221,-4.6075,-4.4638,-4.4088,-4.4153,-4.4153,-4.4153,-4.4135,-4.4042,-4.4005,-4.4005,-4.4005,-4.3781,-4.3532,-4.3532,-4.3532,-4.3532,-4.3532,-4.3515,-4.3515,-4.3515,-4.3515,-3.6152,-0.694,0.0,0.0,0.0,0.0,0.0,0.0,0.0,0.0,0.0,0.0,0.0,0.0,0.0,0.0,0.0,0.0,0.0,0.0,0.0,0.0,0.0,0.0,0.0,0.0,0.0,0.0,0.0,0.0,0.0,0.0,0.0,0.0,0.0,0.0,0.0,0.0,0.0,0.0,0.0,0.0,0.0,0.0,0.0,0.0,0.0,0.0,0.0,0.0,0.0,0.0,0.0,0.0,0.0,0.0,0.0,-3.611,-3.611,-3.8148,-3.9652,-3.9652,-4.0394,-4.0912,-4.0912,-4.2888,-4.4165,-4.4165,-4.4518,-4.474,-4.474,-4.5543,-4.6048,-4.6214,-4.6196,-4.6196,-4.6196,-4.6196,-4.6392,-4.6772,-4.6772,-4.6865,-4.6998,-4.6998,-4.6911,-4.6772,-4.6772,-4.6772,-4.6772,-4.6772,-4.6772,-4.6707,-4.5918,-4.6392,-4.7553,-4.7553,-4.7553,-4.7218,-4.4822,-4.4005,-4.4005,-4.4005,-4.3942,-4.3862,-4.3862,-4.3862,-4.3862,-4.3862,-4.3682,-4.3515,-4.3515,-4.3515,-3.6152,-0.694,0.0,0.0,0.0,0.0,0.0,0.0,0.0,0.0,0.0,0.0,0.0,0.0,0.0,0.0,0.0,0.0,0.0,0.0,0.0,0.0,0.0,0.0,0.0,0.0,0.0,0.0,0.0,0.0,0.0,0.0,0.0,0.0,0.0,0.0,0.0,0.0,0.0,0.0,0.0,0.0,0.0,0.0,0.0,0.0,0.0,0.0,0.0,0.0,0.0,0.0,0.0,0.0,0.0,0.0,-3.8036,-3.8215,-3.8215,-3.9773,-4.0912,-4.0912,-4.2209,-4.311,-4.311,-4.4702,-4.5736,-4.5736,-4.6023,-4.6196,-4.6196,-4.6196,-4.6196,-4.6196,-4.6196,-4.6935,-4.8505,-4.8505,-4.8671,-4.896,-4.896,-4.896,-4.896,-4.896,-4.896,0.0,-4.7797,-4.7272,-4.7272,-4.7272,-4.7272,0.0,0.0,0.0,0.0,0.0,-4.855,-4.8868,-4.6962,-4.6196,-4.5897,-4.4903,-4.4588,-4.4767,-4.5742,-4.6048,-4.6015,-4.5848,-4.5658,-4.5498,-4.5498,-4.4507,-3.6152,-0.694,0.0,0.0,0.0,0.0,0.0,0.0,0.0,0.0,0.0,0.0,0.0,0.0,0.0,0.0,0.0,0.0,0.0,0.0,0.0,0.0,0.0,0.0,0.0,0.0,0.0,0.0,0.0,0.0,0.0,0.0,0.0,0.0,0.0,0.0,0.0,0.0,0.0,0.0,0.0,0.0,0.0,0.0,0.0,0.0,0.0,0.0,0.0,0.0,0.0,0.0,0.0,0.0,0.0,0.0,-4.0912,-4.1032,-4.1378,-4.146,-4.1507,-4.1507,-4.4289,-4.6196,-4.6196,-4.6196,-4.6239,-4.6295,-4.6555,-4.6723,-4.6723,0.0,0.0,0.0,0.0,-4.8392,-5.1672,-5.1765,-5.179,-5.179,-5.179,-5.179,-5.179,-5.179,-5.1593,-5.1135,-4.8734,-4.7717,-4.7717,-4.7717,-4.7717,-4.7657,-4.7245,-4.7066,-4.7025,-4.7209,-4.8232,0.0,0.0,0.0,0.0,-4.6489,-4.5794,-4.6189,-4.8271,-4.8909,-4.8839,-4.8476,-4.8344,-4.8306,-4.8306,-4.6177,-3.6597,-0.7014,0.0,0.0,0.0,0.0,0.0,0.0,0.0,0.0,0.0,0.0,0.0,0.0,0.0,0.0,0.0,0.0,0.0,0.0,0.0,0.0,0.0,0.0,0.0,0.0,0.0,0.0,0.0,0.0,0.0,0.0,0.0,0.0,0.0,0.0,0.0,0.0,0.0,0.0,0.0,0.0,0.0,0.0,0.0,0.0,0.0,0.0,0.0,0.0,0.0,0.0,0.0,0.0,0.0,-4.0625,-4.0912,-4.1733,-4.4173,-4.4908,-4.5156,-4.5156,-4.5779,-4.6196,-4.6196,-4.6196,-4.6368,-4.6819,-4.8786,-4.9978,-4.9978,-5.0403,0.0,-5.0631,-5.0631,-5.0966,-5.169,-5.2126,-5.2358,-5.2358,0.0,0.0,-5.2358,-5.2358,-5.0931,-4.8435,-4.7946,-4.7717,-4.7717,-4.7717,-4.7717,-4.7678,-4.7593,-4.7334,-4.7165,-4.8513,-4.923,-4.9509,-4.9509,-4.9443,-4.9246,-4.8477,-4.8233,-4.8309,-4.8749,-4.8909,0.0,-4.8821,-4.855,-4.8306,-4.8306,-4.7847,-3.9368,-0.7562,0.0,0.0,0.0,0.0,0.0,0.0,0.0,0.0,0.0,0.0,0.0,0.0,0.0,0.0,0.0,0.0,0.0,0.0,0.0,0.0,0.0,0.0,0.0,0.0,0.0,0.0,0.0,0.0,0.0,0.0,0.0,0.0,0.0,0.0,0.0,0.0,0.0,0.0,0.0,0.0,0.0,0.0,0.0,0.0,0.0,0.0,0.0,0.0,0.0,-3.6679,0.0,0.0,-4.0764,-4.2831,-4.3147,-4.3757,-4.5561,-4.6023,-4.6196,-4.6196,-4.6196,-4.6295,-4.6584,-4.8024,-4.9068,-4.9335,-5.0798,-5.1589,-5.1307,-5.1538,-5.1815,-5.2102,-5.2102,-5.2102,-5.2102,-5.2382,-5.2498,-5.2498,-5.2498,-5.2498,-5.2521,-5.2731,-5.1967,-5.0453,-5.0453,-4.9398,-4.7717,-4.7717,-4.7717,-4.7717,-4.7717,-4.7551,-4.7446,-4.8288,-4.8605,-4.8569,-4.8327,-4.8251,-4.8212,-4.7997,-4.7756,-4.7718,-4.8641,-4.8909,-4.8909,-4.8909,-4.875,-4.855,-4.8344,-4.8306,-4.0139,-0.7708,0.0,0.0,0.0,0.0,0.0,0.0,0.0,0.0,0.0,0.0,0.0,0.0,0.0,0.0,0.0,0.0,0.0,0.0,0.0,0.0,0.0,0.0,0.0,0.0,0.0,0.0,0.0,0.0,0.0,0.0,0.0,0.0,0.0,0.0,0.0,0.0,0.0,0.0,0.0,0.0,0.0,0.0,0.0,0.0,0.0,0.0,-3.6462,-3.6462,-3.8492,-4.0263,-4.0263,-4.0722,-4.2083,-4.4931,-4.5397,-4.5581,-4.6122,-4.6295,-4.6548,-4.7064,-4.7109,-4.7315,-4.7861,-5.0209,-5.174,-5.184,-5.2246,-5.2317,-5.1864,-5.1864,-5.2036,-5.2498,-5.2498,-5.2498,-5.2498,-5.2498,-5.2498,-5.2498,-5.259,-5.2636,-5.2658,-5.3035,-5.3185,-5.3185,-5.3185,-5.1146,-4.7824,-4.7824,-4.7824,-4.7824,-4.7824,-4.7762,-4.7717,-4.7717,-4.7717,-4.7654,-4.7267,-4.7133,-4.7026,-4.64,-4.6205,-4.6477,-4.7941,-4.8384,-4.844,-4.8803,-4.8909,-4.8803,-4.8401,-4.8306,-4.1717,-1.56,-0.457,0.0,0.0,0.0,0.0,0.0,0.0,0.0,0.0,0.0,0.0,0.0,0.0,0.0,0.0,0.0,0.0,0.0,0.0,0.0,0.0,0.0,0.0,0.0,0.0,0.0,0.0,0.0,0.0,0.0,0.0,0.0,0.0,0.0,0.0,0.0,0.0,0.0,-3.56,-3.56,-3.56,-3.56,-3.56,-3.56,0.0,0.0,-3.9605,-3.9605,-4.0246,-4.0799,-4.0799,-4.3003,-4.4948,-4.5345,-4.5397,-4.5581,-4.6122,-4.6607,-4.7772,-5.0084,-5.0364,-5.0585,-5.1123,-5.1476,-5.1889,-5.2364,-5.2475,-5.2475,-5.241,-5.241,-5.2452,-5.2498,-5.2498,-5.2498,-5.2498,-5.2498,-5.2498,-5.2498,-5.2926,-5.3121,-5.3121,-5.3164,-5.3185,-5.3185,-5.3185,-5.1312,-4.8229,-4.8229,-4.8229,-4.8229,-4.8229,-4.801,-4.7717,-4.7717,-4.7717,-4.7678,-4.7636,-4.7615,-4.7145,-4.4308,-4.4638,-4.6246,-4.6429,-4.6501,-4.684,-4.844,-4.8909,-4.8803,-4.8401,-4.8306,-4.7388,-4.3773,-2.0941,0.0,0.0,0.0,0.0,0.0,0.0,0.0,0.0,0.0,0.0,0.0,0.0,0.0,0.0,0.0,0.0,0.0,0.0,0.0,0.0,0.0,0.0,0.0,0.0,0.0,0.0,0.0,0.0,0.0,0.0,0.0,0.0,0.0,0.0,0.0,0.0,0.0,-3.56,-3.56,-3.56,0.0,-3.6924,-3.821,-3.821,-3.9174,-4.0188,-4.051,-4.0752,-4.1447,-4.3199,-4.4535,-4.5397,0.0,-4.5397,-4.5581,-4.6122,-4.796,-4.9694,-5.076,-5.0891,-5.1114,-5.164,-5.169,-5.1914,-5.2475,-5.2498,-5.2498,-5.2498,-5.2771,-5.2775,-5.2521,-5.2498,-5.2636,-5.2886,-5.2904,-5.2904,-5.2904,-5.31,-5.3185,-5.3185,-5.3185,-5.3332,-5.3539,-5.3539,-5.2763,-5.1341,-4.9455,-4.8642,-4.8624,-4.8401,-4.819,-4.803,-4.7783,-4.7717,-4.772,-4.797,-4.7888,-4.7482,-4.6142,-4.6323,-4.6962,-4.6392,-4.6196,-4.6301,-4.6746,-4.6864,-4.7088,-4.8055,-4.8306,-4.8306,-4.8306,-2.3566,0.0,0.0,0.0,0.0,0.0,0.0,0.0,0.0,0.0,0.0,0.0,0.0,0.0,0.0,0.0,0.0,0.0,0.0,0.0,0.0,0.0,0.0,0.0,0.0,0.0,0.0,0.0,0.0,0.0,0.0,0.0,0.0,0.0,0.0,0.0,0.0,0.0,-3.662,0.0,0.0,-3.7007,-3.8601,-4.032,-4.032,-4.032,-4.0658,-4.1884,-4.213,-4.2802,-4.5001,-4.5397,-4.5397,-4.5397,-4.5397,-4.5901,-4.7296,-4.9469,-5.0891,-5.0891,-5.0891,-5.1167,-5.184,-5.1914,-5.2084,-5.2475,-5.2498,-5.2567,-5.2704,-5.3014,-5.3035,-5.2704,-5.2686,-5.286,-5.3185,-5.3185,-5.3185,-5.3185,-5.3185,-5.3185,-5.3206,-5.3314,-5.3519,-5.3813,-5.3926,-5.3982,-5.3795,-5.1392,-4.9831,-4.8874,-4.8587,-4.8476,-4.8439,-4.8149,-4.803,-4.807,-4.8229,-4.805,-4.7717,-4.7717,-4.7717,-4.767,-4.7537,-4.7495,-4.7375,-4.6817,-4.6052,-4.5709,-4.7124,-4.7488,-4.7632,-4.8172,-2.3566,0.0,0.0,0.0,0.0,0.0,0.0,0.0,0.0,0.0,0.0,0.0,0.0,0.0,0.0,0.0,0.0,0.0,0.0,0.0,0.0,0.0,0.0,0.0,0.0,0.0,0.0,0.0,0.0,0.0,0.0,0.0,0.0,0.0,0.0,0.0,0.0,0.0,-3.9182,-4.1587,-4.2721,-4.0528,-4.0417,-4.0888,-4.0888,-4.0888,-4.1716,-4.4656,-4.5259,-4.5294,-4.538,-4.5397,-4.5397,-4.5397,-4.5397,-4.6645,-5.0231,-5.0838,-5.0891,-5.0891,-5.0891,-5.1324,0.0,-5.2475,-5.2475,-5.2498,-5.2498,-5.2704,-5.3143,-5.3185,-5.3185,-5.3185,-5.3185,-5.3203,-5.3185,-5.3185,-5.3185,-5.3185,-5.3185,-5.3185,-5.3206,-5.3599,-5.3793,-5.3813,-5.4217,-5.4373,-5.4373,-5.426,-5.2143,-4.8909,-4.8891,-4.8891,-4.8891,-4.8874,-4.8855,-4.8803,-4.8439,-4.805,-4.7717,-4.7717,-4.7717,-4.8085,-5.0134,-5.075,-5.0642,-5.0028,-4.7717,-4.5423,-4.5459,-4.5485,-4.597,-4.7856,-2.3566,0.0,0.0,0.0,0.0,0.0,0.0,0.0,0.0,0.0,0.0,0.0,0.0,0.0,0.0,0.0,0.0,0.0,0.0,0.0,0.0,0.0,0.0,0.0,0.0,0.0,0.0,0.0,0.0,0.0,0.0,0.0,0.0,0.0,0.0,0.0,0.0,0.0,-3.9825,-4.1754,-4.3032,-4.1105,-4.0776,-4.0912,-4.0912,-4.244,-4.4156,-4.519,-4.5103,-4.4875,-4.4875,-4.5157,-4.5397,-4.5397,-4.5397,-4.6546,-4.9847,-5.0309,-5.0309,-5.0309,-5.0963,0.0,0.0,0.0,0.0,-5.2498,-5.2794,-5.3035,-5.3185,-5.3185,-5.3185,-5.3185,-5.3185,-5.3185,-5.3185,-5.3185,-5.3334,-5.3599,-5.3599,-5.3599,-5.3619,-5.4,-5.4199,-5.4199,-5.4339,-5.4409,-5.4409,-5.4409,-5.3665,-5.2309,-4.9868,-4.9046,-4.9265,-4.8995,-4.8909,-4.8838,-4.8439,-4.8209,-4.805,-4.7783,-4.7717,-4.8168,-5.0652,-5.141,-5.1228,-5.028,-4.9252,-4.7965,-4.5931,-4.5397,-4.5485,-4.5767,-2.2366,0.0,0.0,0.0,0.0,0.0,0.0,0.0,0.0,0.0,0.0,0.0,0.0,0.0,0.0,0.0,0.0,0.0,0.0,0.0,0.0,0.0,0.0,0.0,0.0,0.0,0.0,0.0,0.0,0.0,0.0,0.0,0.0,0.0,0.0,0.0,0.0,0.0,-4.1313,-4.2368,-4.3087,-4.1328,-4.1698,-4.2509,-4.2509,-4.4027,-4.5397,-4.5397,-4.4968,-4.4615,-4.4615,-4.4875,-4.5184,-4.5371,-4.5397,-4.6466,-4.9579,-5.0011,-5.0097,-5.0309,-5.1149,-5.1858,0.0,0.0,0.0,-5.2498,-5.2794,-5.3035,-5.3185,-5.3185,-5.3185,-5.3185,-5.3185,-5.3185,-5.3185,-5.3185,-5.3459,-5.4,-5.4,-5.4,-5.4018,-5.4287,-5.4409,-5.4409,-5.4409,-5.4409,-5.4409,-5.4409,-5.4409,-5.4167,-5.1907,-5.0405,-4.9443,-4.9046,-4.8909,-4.8855,-4.8605,-4.842,-4.8229,-4.7845,-4.7717,-4.819,-5.0891,-5.169,-5.1564,-5.0828,-5.032,-4.9545,-4.7551,-4.6224,-4.5264,-4.4737,-2.9924,-1.3015,-0.2302,0.0,0.0,0.0,0.0,0.0,0.0,0.0,0.0,0.0,0.0,0.0,0.0,0.0,0.0,0.0,0.0,0.0,0.0,0.0,0.0,0.0,0.0,0.0,0.0,0.0,0.0,0.0,0.0,0.0,0.0,0.0,0.0,0.0,0.0,0.0,-4.3515,-4.3515,-4.3123,-4.1538,-4.3285,-4.5397,-4.5397,-4.5397,-4.5397,-4.5371,-4.494,-4.4615,-4.4615,-4.4615,-4.4765,-4.5264,-4.5344,-4.6439,-4.9522,-4.9982,-5.0195,0.0,0.0,0.0,0.0,0.0,0.0,-5.2498,0.0,-5.2686,-5.3143,-5.3164,-5.3164,-5.3185,-5.3185,-5.3185,-5.3185,-5.3248,-5.3638,-5.4409,-5.4409,-5.4409,-5.4409,-5.4409,-5.4409,-5.4409,-5.4426,-5.4443,-5.4443,-5.4443,-5.4443,-5.4458,-5.478,-5.2776,-4.9668,-4.9137,-4.8926,-4.8909,-4.8909,-4.8642,-4.8229,-4.7845,-4.7717,-4.819,-5.0891,-5.169,-5.169,-5.169,-5.0892,-5.004,-5.0011,-4.7707,-4.5264,-4.4765,-4.4626,-3.6423,-0.6465,0.0,0.0,0.0,0.0,0.0,0.0,0.0,0.0,0.0,0.0,0.0,0.0,0.0,0.0,0.0,0.0,0.0,0.0,0.0,0.0,0.0,0.0,0.0,0.0,0.0,0.0,0.0,0.0,0.0,0.0,0.0,0.0,0.0,0.0,0.0,-4.3515,-4.3515,-4.3614,-4.4143,-4.4828,-4.5397,-4.5397,-4.5397,-4.5291,-4.4903,-4.4682,-4.4615,-4.4615,-4.4615,-4.4626,-4.4793,-4.4793,0.0,-4.8838,-4.97,0.0,-5.0195,0.0,-5.1088,-5.1088,-5.1589,0.0,0.0,-5.2498,-5.2544,-5.2681,-5.2681,-5.2838,-5.3185,-5.3185,-5.3185,-5.3185,-5.3775,-5.4199,-5.4409,-5.4409,-5.4409,-5.4409,-5.4409,-5.4409,-5.4407,-5.467,-5.478,-5.478,-5.478,-5.478,-5.478,-5.4871,-5.4173,-5.2834,-5.0295,-4.9164,-4.8909,-4.8909,-4.8642,-4.8229,-4.7845,-4.7717,-4.819,-5.0891,-5.169,-5.169,-5.169,-5.1202,-5.0561,-5.0126,-4.7707,-4.5371,-4.5238,-4.4903,-3.6423,-0.6465,0.0,0.0,0.0,0.0,0.0,0.0,0.0,0.0,0.0,0.0,0.0,0.0,0.0,0.0,0.0,0.0,0.0,0.0,0.0,0.0,0.0,0.0,0.0,0.0,0.0,0.0,0.0,0.0,0.0,0.0,0.0,0.0,0.0,0.0,0.0,-4.3515,-4.4525,-4.5808,-4.6705,-4.6791,-4.6382,-4.5283,-4.5049,-4.494,-4.4654,-4.4615,-4.4615,-4.4615,-4.4615,-4.4682,0.0,0.0,0.0,-4.9018,-4.9759,-5.008,0.0,-5.07,0.0,-5.0891,-5.1402,-5.1815,0.0,-5.2382,-5.2498,-5.2498,-5.2498,-5.2636,-5.2864,-5.2904,-5.3148,-5.3716,-5.4163,-5.4409,-5.4409,-5.4409,-5.4474,-5.4622,-5.4622,-5.4622,-5.4638,0.0,-5.4901,-5.4901,-5.4901,-5.4901,-5.4901,-5.4901,-5.478,-5.421,-5.0773,-4.9249,-4.8909,-4.8909,-4.8642,-4.8229,-4.7845,-4.7717,-4.7979,-4.95,-5.0772,-5.169,-5.169,-5.1307,-5.0754,-5.0155,-4.7707,-4.5397,-4.5397,-4.4995,-3.6423,-0.6465,0.0,0.0,0.0,0.0,0.0,0.0,0.0,0.0,0.0,0.0,0.0,0.0,0.0,0.0,0.0,0.0,0.0,0.0,0.0,0.0,0.0,0.0,0.0,0.0,0.0,0.0,0.0,0.0,0.0,0.0,0.0,0.0,0.0,0.0,0.0,-4.3515,-4.5883,-4.8458,-4.8803,-4.8605,-4.7656,-4.5169,-4.4615,-4.4615,-4.4615,0.0,-4.4615,-4.4615,-4.4615,-4.4765,-4.5211,0.0,-4.6328,-4.9028,-4.9752,-5.0195,-5.0727,-5.0863,-5.0891,-5.0891,-5.1307,-5.1589,-5.1589,-5.2102,-5.241,-5.2498,-5.2498,-5.2549,-5.2663,-5.2686,-5.3196,-5.4304,-5.4407,-5.4458,-5.4458,-5.4458,-5.4622,-5.4901,-5.4901,-5.4901,-5.4901,0.0,0.0,-5.4901,-5.4946,-5.4931,-5.4901,-5.4901,-5.4901,-5.4496,-5.1324,-4.9622,-4.8909,-4.8909,-4.8642,-4.8229,-4.7845,-4.7717,-4.7717,-4.7717,-4.9567,-5.169,-5.169,-5.1307,-5.0782,-5.0252,-4.7827,-4.5502,-4.5423,-4.5022,-3.6497,-0.6482,0.0,0.0,0.0,0.0,0.0,0.0,0.0,0.0,0.0,0.0,0.0,0.0,0.0,0.0,0.0,0.0,0.0,0.0,0.0,0.0,0.0,0.0,0.0,0.0,0.0,0.0,0.0,0.0,0.0,0.0,0.0,0.0,0.0,0.0,0.0,-4.3515,-4.6096,-4.8803,-4.8891,-4.8605,-4.7656,-4.5169,-4.4615,0.0,0.0,-4.4615,-4.4615,-4.4615,-4.4615,-4.4626,-4.4709,-4.5103,-4.5587,-4.6121,-4.8407,-5.004,0.0,-5.0589,-5.0891,0.0,0.0,0.0,0.0,0.0,0.0,-5.2475,-5.2498,-5.2824,-5.3561,-5.358,-5.3678,-5.3889,-5.4522,-5.481,-5.481,-5.481,-5.4841,-5.4901,-5.4901,-5.4901,-5.4901,0.0,0.0,-5.4916,-5.5192,-5.5151,-5.4901,-5.4901,-5.4901,-5.478,-5.3884,-5.1583,-4.8909,-4.8909,-4.8642,-4.8229,-4.7845,-4.7717,-4.7717,-4.7717,-4.9567,-5.169,-5.169,-5.1307,-5.0891,-5.0782,-4.84,-4.5947,-4.5502,-4.5318,-3.6947,-0.6547,0.0,0.0,0.0,0.0,0.0,0.0,0.0,0.0,0.0,0.0,0.0,0.0,0.0,0.0,0.0,0.0,0.0,0.0,0.0,0.0,0.0,0.0,0.0,0.0,0.0,0.0,0.0,0.0,0.0,0.0,0.0,0.0,0.0,0.0,0.0,-4.3716,-4.5027,-4.6754,-4.8481,-4.8605,-4.7656,-4.5169,0.0,0.0,0.0,-4.2262,-4.2262,-4.2262,-4.3548,0.0,-4.4615,-4.482,-4.5076,-4.5371,-4.8051,0.0,-5.0011,-5.0533,-5.0891,0.0,0.0,0.0,0.0,0.0,0.0,-5.2054,-5.2572,-5.306,-5.3459,-5.3498,-5.3775,-5.4369,-5.473,-5.4901,-5.4901,-5.508,-5.508,-5.4901,-5.4901,-5.5009,-5.5151,0.0,0.0,-5.5165,-5.5319,-5.5325,-5.5137,-5.496,-5.4901,-5.4856,-5.4524,-5.2069,-4.8909,-4.8909,-4.8767,-4.855,-4.8131,-4.7886,-4.7717,-4.7717,-4.9567,-5.169,-5.169,-5.1513,-5.1246,-5.0972,-4.8573,-4.6073,-4.5528,-3.3298,-1.7769,-0.3154,0.0,0.0,0.0,0.0,0.0,0.0,0.0,0.0,0.0,0.0,0.0,0.0,0.0,0.0,0.0,0.0,0.0,0.0,0.0,0.0,0.0,0.0,0.0,0.0,0.0,0.0,0.0,0.0,0.0,0.0,0.0,0.0,0.0,0.0,0.0,-4.383,-4.3958,-4.4602,-4.7115,-4.7517,-4.664,-4.419,-4.365,0.0,-4.0587,-4.0096,-4.0096,-4.0096,-4.2042,-4.3853,0.0,-4.4615,-4.4737,-4.5157,-4.741,-4.9269,0.0,-5.0422,0.0,0.0,0.0,0.0,0.0,0.0,0.0,0.0,-5.2757,-5.3185,-5.3185,-5.3439,-5.3981,-5.4886,-5.4901,-5.4931,-5.5004,-5.5279,-5.5273,-5.5085,-5.5033,-5.5151,-5.5403,0.0,0.0,0.0,-5.5472,-5.5434,-5.5364,-5.5019,-5.4901,-5.4856,-5.4524,-5.257,-4.9978,-4.9168,-4.8909,-4.882,-4.8439,-4.803,-4.7717,-4.7717,-4.9567,-5.169,-5.169,-5.169,-5.1564,-5.1034,-4.8573,-4.6073,-4.5528,-2.7128,-0.7945,-0.1413,0.0,0.0,0.0,0.0,0.0,0.0,0.0,0.0,0.0,0.0,0.0,0.0,0.0,0.0,0.0,0.0,0.0,0.0,0.0,0.0,0.0,0.0,0.0,0.0,0.0,0.0,0.0,0.0,0.0,0.0,0.0,0.0,0.0,0.0,0.0,-4.3549,-4.3765,-4.4,-4.4002,-4.3973,-4.3357,-4.103,0.0,-4.0434,-4.0163,-4.0096,-4.0096,-4.0096,-4.0333,-4.1416,-4.4158,-4.4615,-4.4615,-4.4671,-4.5343,-4.6845,-4.9683,0.0,0.0,0.0,0.0,0.0,0.0,0.0,0.0,0.0,-5.3143,-5.3185,-5.3185,-5.4196,-5.4791,-5.4901,-5.4901,-5.5066,-5.5345,-5.539,-5.5477,-5.5618,-5.544,-5.5377,-5.5416,0.0,0.0,0.0,-5.5671,-5.5566,-5.5364,-5.5019,-5.4901,-5.4856,-5.4524,-5.4185,-5.3423,-5.0053,-4.8909,-4.882,-4.8439,-4.803,-4.7717,-4.7717,-4.9567,-5.169,-5.169,-5.169,-5.1564,-5.1034,-4.8573,-4.6073,-4.5528,-4.326,-3.3643,-0.5963,0.0,0.0,0.0,0.0,0.0,0.0,0.0,0.0,0.0,0.0,0.0,0.0,0.0,0.0,0.0,0.0,0.0,0.0,0.0,0.0,0.0,0.0,0.0,0.0,0.0,0.0,0.0,0.0,0.0,0.0,0.0,0.0,0.0,0.0,0.0,-4.3515,-4.3599,-4.3666,-4.3531,-4.3515,-4.3249,-4.2348,0.0,-4.0096,-4.0096,-4.0096,-4.0096,-4.0096,-4.0096,-4.0502,-4.1704,-4.343,0.0,-4.4615,-4.4793,-4.6178,-4.9591,0.0,0.0,0.0,0.0,0.0,0.0,0.0,0.0,0.0,-5.2794,-5.3127,-5.3889,-5.4571,-5.4901,-5.4901,-5.5109,-5.5265,-5.5403,-5.5526,-5.5615,-5.5703,-5.5623,-5.5577,-5.5589,0.0,0.0,0.0,-5.5703,-5.5577,-5.5364,-5.5019,-5.4901,-5.4856,-5.4524,-5.4409,-5.387,-5.0182,-4.8909,-4.882,-4.8439,-4.803,-4.7717,-4.7717,-4.8435,-4.9639,-5.1254,-5.169,-5.1564,-5.1034,-4.8321,-4.5667,-4.545,-4.5157,-3.6677,-0.6497,0.0,0.0,0.0,0.0,0.0,0.0,0.0,0.0,0.0,0.0,0.0,0.0,0.0,0.0,0.0,0.0,0.0,0.0,0.0,0.0,0.0,0.0,0.0,0.0,0.0,0.0,0.0,0.0,0.0,0.0,0.0,0.0,0.0,0.0,0.0,-4.3515,-4.3515,-4.3515,-4.3515,-4.3515,-4.3321,0.0,0.0,-4.0096,-4.0096,-4.0096,-4.0096,-4.0096,-4.0096,-4.0096,-4.0096,-4.2634,-4.4615,-4.4615,-4.4615,-4.5886,0.0,0.0,0.0,0.0,0.0,0.0,0.0,0.0,0.0,0.0,0.0,-5.3235,-5.4356,-5.4638,-5.4795,-5.4901,-5.5137,-5.5292,-5.5403,-5.5593,-5.5703,-5.5703,-5.5703,-5.5726,0.0,0.0,0.0,0.0,-5.5703,-5.5577,-5.5364,-5.5019,-5.4901,-5.4871,-5.4638,-5.4493,-5.387,-5.0182,-4.8909,-4.882,-4.8439,-4.811,-4.7866,-4.7738,-4.7717,-4.8262,-5.0963,-5.1589,-5.1376,-5.0998,-4.8286,-4.5607,-4.545,-4.5103,-3.661,-0.6485,0.0,0.0,0.0,0.0,0.0,0.0,0.0,0.0,0.0,0.0,0.0,0.0,0.0,0.0,0.0,0.0,0.0,0.0,0.0,0.0,0.0,0.0,0.0,0.0,0.0,0.0,0.0,0.0,0.0,0.0,0.0,0.0,0.0,0.0,0.0,-4.3515,-4.3515,-4.3515,-4.3515,-4.3515,-4.2903,0.0,-4.0121,-4.0096,-4.0096,-4.0096,-4.0096,-4.0096,-4.0096,-4.0096,-4.0096,-4.2634,-4.4615,-4.4615,-4.4615,0.0,0.0,0.0,0.0,0.0,0.0,0.0,0.0,0.0,0.0,0.0,0.0,-5.3559,-5.4373,-5.439,-5.4573,-5.4901,-5.4901,-5.508,-5.5403,-5.5593,-5.5703,-5.5703,-5.5703,0.0,0.0,0.0,0.0,0.0,-5.5703,-5.5577,-5.5364,-5.5019,-5.4901,-5.4901,-5.4901,-5.4686,-5.387,-5.0182,-4.8909,-4.882,-4.8439,-4.8287,-4.8209,-4.7824,-4.7717,-4.8262,-5.0963,-5.1324,-5.0918,-5.0891,-4.8573,-4.6048,-4.5528,-4.5397,-3.7055,-0.6567,0.0,0.0,0.0,0.0,0.0,0.0,0.0,0.0,0.0,0.0,0.0,0.0,0.0,0.0,0.0,0.0,0.0,0.0,0.0,0.0,0.0,0.0,0.0,0.0,0.0,0.0,0.0,0.0,0.0,0.0,0.0,0.0,0.0,0.0,0.0,-4.3515,-4.3515,-4.3515,-4.3515,-4.3515,-4.2903,-4.0618,-4.0096,-4.0096,-4.0096,-4.0096,-4.0096,-4.0096,-4.0096,-4.0096,-4.0096,-4.2634,0.0,0.0,0.0,0.0,0.0,0.0,0.0,0.0,0.0,0.0,0.0,0.0,0.0,0.0,0.0,-5.2995,-5.3559,-5.3851,-5.4163,-5.4557,-5.4557,-5.4733,-5.5066,-5.5127,-5.5275,-5.549,-5.5626,0.0,0.0,0.0,0.0,0.0,-5.5703,-5.5577,-5.5364,-5.5019,-5.4901,-5.4901,-5.4901,-5.4686,-5.387,-5.0182,-4.8909,-4.8891,-4.875,-4.8532,-4.8229,-4.7824,-4.7717,-4.8262,-5.0963,-5.1307,-5.0891,-5.0891,-4.8573,-4.6073,-4.5528,-4.5397,-3.7055,-0.6567,0.0,0.0,0.0,0.0,0.0,0.0,0.0,0.0,0.0,0.0,0.0,0.0,0.0,0.0,0.0,0.0,0.0,0.0,0.0,0.0,0.0,0.0,0.0,0.0,0.0,0.0,0.0,0.0,0.0,0.0,0.0,0.0,0.0,0.0,0.0,-4.1476,-4.1941,-4.2208,-4.2208,-4.2208,0.0,-4.0417,-4.0096,-4.0096,-4.0096,-4.0096,-4.0096,-4.0096,-4.0096,-4.0096,-4.0096,-4.2634,0.0,0.0,0.0,0.0,0.0,0.0,0.0,0.0,0.0,0.0,0.0,0.0,0.0,0.0,0.0,-5.2974,-5.3416,-5.3519,-5.3697,-5.3926,-5.411,-5.4354,-5.4717,-5.4717,-5.4886,-5.5225,0.0,0.0,0.0,0.0,0.0,0.0,-5.5703,-5.5577,-5.5377,-5.5165,-5.5004,-5.4901,-5.4901,-5.4686,-5.38,-4.9639,-4.8192,-4.8135,-4.7959,-4.7575,-4.712,-4.666,-4.7788,-4.9549,-5.1236,-5.1462,-5.1167,-5.0945,-4.9451,-4.7542,-4.5805,-4.5397,-4.0209,-2.1216,-0.81,0.0,0.0,0.0,0.0,0.0,0.0,0.0,0.0,0.0,0.0,0.0,0.0,0.0,0.0,0.0,0.0,0.0,0.0,0.0,0.0,0.0,0.0,0.0,0.0,0.0,0.0,0.0,0.0,0.0,0.0,0.0,0.0,0.0,0.0,0.0,-3.9276,-4.0096,-4.0096,-4.0096,-4.0096,-4.0096,-4.0096,0.0,-4.0096,-4.0096,-4.0096,-4.0096,-4.0096,-4.0096,-4.0096,-4.2634,0.0,0.0,0.0,0.0,0.0,0.0,0.0,0.0,0.0,0.0,0.0,0.0,0.0,0.0,0.0,0.0,-5.3832,-5.3498,-5.329,-5.329,-5.3678,-5.4073,-5.4443,-5.4458,-5.4654,-5.496,0.0,0.0,0.0,0.0,0.0,0.0,-5.5703,-5.5589,-5.5428,-5.5403,-5.5211,-5.4901,-5.4901,-5.45,-5.3305,-4.8662,-4.7043,-4.6911,-4.6368,-4.5821,-4.5291,-4.4765,-4.7636,-5.1132,-5.1132,-5.1393,-5.1564,-5.1034,-5.0891,-5.0019,-4.6558,-4.5725,-4.5725,-4.5671,-2.1622,0.0,0.0,0.0,0.0,0.0,0.0,0.0,0.0,0.0,0.0,0.0,0.0,0.0,0.0,0.0,0.0,0.0,0.0,0.0,0.0,0.0,0.0,0.0,0.0,0.0,0.0,0.0,0.0,0.0,0.0,0.0,0.0,0.0,0.0,-3.6207,0.0,-4.0096,-4.0096,-4.0096,-4.0096,0.0,-4.0096,-4.0096,-4.0096,-4.0096,-4.0096,-4.0096,-4.0096,-4.0096,-4.0096,0.0,0.0,0.0,0.0,0.0,0.0,0.0,0.0,0.0,0.0,0.0,0.0,0.0,0.0,0.0,0.0,0.0,-5.4252,-5.4163,-5.4128,-5.4128,-5.4472,-5.4683,-5.4795,-5.5033,-5.5294,-5.5516,0.0,0.0,0.0,0.0,0.0,0.0,-5.5703,-5.5671,-5.5604,-5.546,-5.5211,-5.4901,-5.4901,-5.2703,-4.9527,-4.8039,-4.7312,-4.6911,-4.6368,-4.5821,-4.5291,-4.4765,-4.501,-4.5517,-4.5517,-4.8501,-5.1564,-5.1034,-5.0891,-5.0579,-4.9238,-4.8924,-4.8782,-4.8252,-2.2799,0.0,0.0,0.0,0.0,0.0,0.0,0.0,0.0,0.0,0.0,0.0,0.0,0.0,0.0,0.0,0.0,0.0,0.0,0.0,0.0,0.0,0.0,0.0,0.0,0.0,0.0,0.0,0.0,0.0,0.0,0.0,0.0,0.0,0.0,-3.7297,-3.8853,-4.0096,-4.0096,-4.0096,-4.0096,-4.0096,-4.0096,-4.0096,-4.0096,-4.0096,-4.0096,-4.0096,-4.0096,-4.0096,0.0,-4.2634,0.0,0.0,0.0,0.0,0.0,0.0,0.0,0.0,0.0,0.0,0.0,0.0,0.0,0.0,0.0,0.0,0.0,-5.4109,-5.4474,-5.4638,-5.481,-5.4975,-5.5137,-5.5415,-5.56,-5.5695,0.0,0.0,0.0,0.0,0.0,-5.3226,-5.3226,-5.4194,-5.5487,-5.3472,-5.2477,-5.2129,-5.1928,-5.0376,-4.8248,-4.7845,-4.7227,-4.6584,-4.6295,-4.5821,-4.5344,-4.5066,-4.4553,-4.3981,-4.3687,-4.5704,-4.8427,-5.0379,-5.0891,-5.0809,-5.0506,-5.0195,-4.9818,-4.9155,-3.503,-1.8031,-0.2926,0.0,0.0,0.0,0.0,0.0,0.0,0.0,0.0,0.0,0.0,0.0,0.0,0.0,0.0,0.0,0.0,0.0,0.0,0.0,0.0,0.0,0.0,0.0,0.0,0.0,0.0,0.0,0.0,0.0,0.0,0.0,0.0,-3.9419,-4.0096,-4.0096,-4.0096,-4.0096,-4.0096,-4.0096,-4.0096,-4.0096,-4.0096,-4.0096,-4.0096,-4.0096,-4.0096,0.0,0.0,0.0,0.0,0.0,0.0,0.0,0.0,0.0,0.0,0.0,0.0,0.0,0.0,0.0,0.0,0.0,0.0,0.0,0.0,-5.3504,-5.4249,-5.4533,-5.4776,-5.508,-5.5403,-5.5593,-5.5703,-5.5714,-5.5903,0.0,0.0,0.0,0.0,-5.1162,-5.1147,-5.2575,-5.4453,-5.0884,-4.9246,-4.8874,-4.8513,-4.8344,-4.8229,-4.7744,-4.6962,-4.6196,-4.6196,-4.5897,-4.5502,-4.5423,-4.5039,-4.4457,-4.3776,-4.3598,-4.4632,-4.9114,-5.0296,-5.038,-5.0792,-5.045,-4.9848,-4.9294,-4.9063,-3.9292,-0.6377,0.0,0.0,0.0,0.0,0.0,0.0,0.0,0.0,0.0,0.0,0.0,0.0,0.0,0.0,0.0,0.0,0.0,0.0,0.0,0.0,0.0,0.0,0.0,0.0,0.0,0.0,0.0,0.0,0.0,0.0,0.0,0.0,-3.9977,-4.0096,-4.0096,-4.0096,-4.0096,-4.0096,-4.0096,-4.0096,-4.0096,-4.0096,-4.0096,-4.0096,-4.0096,-4.0096,-4.0942,0.0,0.0,0.0,0.0,0.0,0.0,0.0,0.0,0.0,0.0,0.0,0.0,0.0,0.0,0.0,0.0,0.0,0.0,0.0,0.0,-5.2806,-5.2875,-5.4228,-5.508,-5.5403,-5.5593,-5.5703,-5.5714,-5.5903,-5.6012,0.0,0.0,0.0,-5.5103,-5.4946,-5.3257,-5.0688,-4.9826,-4.9246,-4.8891,-4.882,-4.8587,-4.819,-4.7385,-4.6702,-4.6196,-4.6196,-4.6147,-4.5998,-4.5554,-4.5039,-4.4457,-4.3776,-4.3598,-4.4183,-4.6832,-4.7505,-4.808,-5.0352,-5.045,-4.9982,-4.9877,-4.9415,-3.9292,-0.6377,0.0,0.0,0.0,0.0,0.0,0.0,0.0,0.0,0.0,0.0,0.0,0.0,0.0,0.0,0.0,0.0,0.0,0.0,0.0,0.0,0.0,0.0,0.0,0.0,0.0,0.0,0.0,0.0,0.0,0.0,0.0,0.0,-4.0096,-4.0096,-4.0096,-4.0096,-4.0096,-4.0096,-4.0096,-4.0096,-4.0096,-4.0096,-4.0096,-4.0096,-4.0096,0.0,-4.299,-4.4378,0.0,0.0,0.0,0.0,0.0,0.0,0.0,0.0,0.0,0.0,0.0,0.0,0.0,0.0,0.0,0.0,0.0,0.0,0.0,0.0,-5.3193,-5.3944,-5.4486,-5.4856,-5.5135,-5.5268,-5.5281,-5.5539,-5.5735,0.0,0.0,-5.5894,-5.5975,-5.5778,-5.341,-4.9885,-4.9593,-4.9396,-4.9164,-4.8732,-4.8325,-4.7888,-4.7227,-4.6655,-4.6196,-4.6196,-4.6196,-4.6097,-4.5563,-4.5039,-4.4457,-4.3776,-4.3598,-4.3836,-4.4862,-4.5994,-4.71,-4.7949,-4.7933,-4.7589,-4.7172,-4.6831,-4.2157,-2.7027,-1.1051,0.0,0.0,0.0,0.0,0.0,0.0,0.0,0.0,0.0,0.0,0.0,0.0,0.0,0.0,0.0,0.0,0.0,0.0,0.0,0.0,0.0,0.0,0.0,0.0,0.0,0.0,0.0,0.0,0.0,0.0,0.0,-4.0096,-4.0096,-4.0096,-4.0096,-4.0096,-4.0096,-4.0096,-4.0096,-4.0096,-4.0096,-4.0096,-4.0096,-4.0096,-4.2567,0.0,-4.4615,0.0,0.0,0.0,0.0,0.0,0.0,0.0,0.0,0.0,0.0,0.0,0.0,0.0,0.0,0.0,0.0,0.0,0.0,0.0,0.0,-5.3658,-5.3755,-5.3944,-5.4269,-5.4622,-5.478,-5.481,-5.5301,-5.5615,-5.5767,-5.5767,-5.5384,-5.4734,-5.4512,-5.2643,-4.9885,-4.9593,-4.9443,-4.9281,-4.8569,-4.805,-4.7636,-4.716,-4.6725,-4.6368,-4.6246,-4.6196,-4.6097,-4.5563,-4.5039,-4.4485,-4.3981,-4.3717,-4.3598,-4.3598,-4.5243,-4.6754,-4.6171,-4.5916,-4.5589,-4.4761,-4.461,-4.4534,-4.4343,-2.0316,0.0,0.0,0.0,0.0,0.0,0.0,0.0,0.0,0.0,0.0,0.0,0.0,0.0,0.0,0.0,0.0,0.0,0.0,0.0,0.0,0.0,0.0,0.0,0.0,0.0,0.0,0.0,0.0,0.0,0.0,0.0,-4.0096,-4.0096,-4.0096,-4.0096,-4.0096,-4.0096,-4.0096,-4.0096,-4.0096,-4.0096,-4.0096,-4.0096,-4.0096,-4.2567,0.0,0.0,0.0,0.0,0.0,0.0,0.0,0.0,0.0,0.0,0.0,0.0,0.0,0.0,0.0,0.0,0.0,0.0,0.0,0.0,0.0,0.0,-5.3248,-5.3619,-5.3813,-5.3851,-5.4252,-5.4443,-5.4474,-5.5497,-5.5958,-5.5986,-5.5986,-5.4128,-5.1058,-5.079,-5.038,-4.9885,-4.9593,-4.9281,-4.8891,-4.8458,-4.805,-4.7636,-4.716,-4.6957,-4.6865,-4.6368,-4.6196,-4.6097,-4.5563,-4.5039,-4.4587,-4.4542,-4.4068,-4.3598,-4.3598,-4.5243,-4.6892,-4.6807,-4.6314,-4.5589,-4.4761,-4.461,-4.4343,-4.3566,-1.9906,0.0,0.0,0.0,0.0,0.0,0.0,0.0,0.0,0.0,0.0,0.0,0.0,0.0,0.0,0.0,0.0,0.0,0.0,0.0,0.0,0.0,0.0,0.0,0.0,0.0,0.0,0.0,0.0,0.0,0.0,0.0,-4.0096,-4.0096,-4.0096,-4.0096,-4.0096,-4.0096,-4.0096,-4.0096,-4.0096,-4.0096,-4.0096,-4.0671,-4.255,0.0,0.0,0.0,0.0,0.0,0.0,0.0,0.0,0.0,0.0,0.0,0.0,0.0,0.0,0.0,0.0,0.0,0.0,0.0,0.0,0.0,0.0,0.0,0.0,-5.0676,-5.0748,-5.0785,-5.2976,-5.4163,-5.4407,-5.4821,-5.4072,-5.2478,-5.2719,-5.1828,-5.0188,-5.0089,-4.9986,-4.9885,-4.9593,-4.9246,-4.8838,-4.8458,-4.805,-4.7657,-4.7508,-4.7227,-4.6911,-4.6368,-4.6196,-4.6097,-4.5563,-4.5264,-4.5039,-4.4682,-4.4126,-4.3598,-4.3598,-4.4226,-4.5209,-4.6557,-4.6349,-4.5735,-4.5426,-4.4964,-4.4496,-4.4189,-3.5233,-2.1843,-0.3204,0.0,0.0,0.0,0.0,0.0,0.0,0.0,0.0,0.0,0.0,0.0,0.0,0.0,0.0,0.0,0.0,0.0,0.0,0.0,0.0,0.0,0.0,0.0,0.0,0.0,0.0,0.0,0.0,0.0,-4.0096,-4.0096,-4.0096,-4.0096,-4.0096,-4.0096,-4.0096,-4.0096,-4.0096,-4.0096,-4.0857,-4.2161,-4.4225,0.0,0.0,0.0,0.0,0.0,0.0,0.0,0.0,0.0,0.0,0.0,0.0,0.0,0.0,0.0,0.0,0.0,0.0,0.0,0.0,0.0,0.0,0.0,0.0,-4.8909,-4.8909,-4.8927,-5.1175,-5.2452,-5.285,-5.2715,-5.1568,-4.9688,-4.9829,-4.9886,-4.9912,-4.9912,-4.9857,-4.9764,-4.9582,-4.9246,-4.8838,-4.8458,-4.813,-4.7868,-4.7741,-4.7399,-4.6911,-4.6368,-4.6196,-4.6122,-4.577,-4.5528,-4.5291,-4.4737,-4.4286,-4.3864,-4.3658,-4.3598,-4.4174,-4.6365,-4.6509,-4.608,-4.5844,-4.5151,-4.461,-4.461,-4.4381,-3.4775,-0.5112,0.0,0.0,0.0,0.0,0.0,0.0,0.0,0.0,0.0,0.0,0.0,0.0,0.0,0.0,0.0,0.0,0.0,0.0,0.0,0.0,0.0,0.0,0.0,0.0,0.0,0.0,0.0,0.0,0.0,-4.0096,-4.0096,-4.0096,-4.0096,-4.0096,-4.0096,-4.0096,-4.0096,-4.0113,-4.0146,-4.2533,-4.4615,-4.4615,-4.4615,0.0,0.0,0.0,0.0,0.0,0.0,0.0,0.0,0.0,0.0,0.0,0.0,0.0,0.0,0.0,0.0,0.0,0.0,0.0,0.0,0.0,0.0,0.0,-4.8909,-4.8909,-4.8909,-4.8909,-4.9115,-4.9474,-4.9081,-4.8678,-4.8267,-4.7868,-4.8532,-4.9879,-4.9879,-4.975,-4.9509,-4.9509,-4.9246,-4.8838,-4.8458,-4.8306,-4.8248,-4.7845,-4.7399,-4.6911,-4.6368,-4.6196,-4.6196,-4.6196,-4.5821,-4.5291,-4.4765,-4.4598,-4.4457,-4.3809,-4.3631,-4.4177,-4.6382,-4.6876,-4.6684,-4.5952,-4.5151,-4.461,-4.461,-4.3879,-3.4156,-0.5366,-0.0179,0.0,0.0,0.0,0.0,0.0,0.0,0.0,0.0,0.0,0.0,0.0,0.0,0.0,0.0,0.0,0.0,0.0,0.0,0.0,0.0,0.0,0.0,0.0,0.0,0.0,0.0,0.0,0.0,-4.0096,-4.0096,-4.0096,-4.0096,-4.0096,-4.0096,-4.0096,-4.0096,-4.0705,-4.2838,-4.3988,-4.4615,-4.4615,0.0,0.0,0.0,0.0,0.0,0.0,0.0,0.0,0.0,0.0,0.0,0.0,0.0,0.0,0.0,0.0,0.0,0.0,0.0,0.0,0.0,0.0,0.0,0.0,0.0,-4.8909,-4.8909,-4.8909,-4.896,-4.9062,-4.896,-4.8532,-4.7868,-4.7741,-4.7951,-4.8421,-4.9273,-4.9582,-4.9509,-4.9509,-4.9246,-4.8891,-4.8767,-4.855,-4.8248,-4.7845,-4.7399,-4.6911,-4.6368,-4.6196,-4.6196,-4.6196,-4.5821,-4.5371,-4.5211,-4.4903,-4.4815,-4.5684,-4.5913,-4.6108,-4.675,-4.6509,-4.592,-4.5114,-4.4776,-4.461,-4.461,-4.3879,-4.0554,-3.1929,-1.3513,0.0,0.0,0.0,0.0,0.0,0.0,0.0,0.0,0.0,0.0,0.0,0.0,0.0,0.0,0.0,0.0,0.0,0.0,0.0,0.0,0.0,0.0,0.0,0.0,0.0,0.0,0.0,0.0,-4.0096,-4.0096,-4.0096,-4.0096,-4.0096,-4.0096,-4.0096,-4.1027,-4.2451,-4.4501,-4.4737,-4.4671,-4.4875,0.0,0.0,0.0,0.0,0.0,0.0,0.0,0.0,0.0,0.0,0.0,0.0,0.0,0.0,0.0,0.0,0.0,0.0,0.0,0.0,0.0,0.0,0.0,0.0,0.0,0.0,-4.866,-4.882,-4.8821,-4.866,-4.8839,-4.8458,-4.7717,-4.7717,-4.7593,-4.749,-4.8402,-4.8785,-4.882,-4.9313,-4.9345,-4.9131,-4.896,-4.8642,-4.8248,-4.7845,-4.7399,-4.6952,-4.6631,-4.6368,-4.6196,-4.6196,-4.5667,-4.513,-4.5344,-4.4814,-4.4411,-4.5371,-4.6236,-4.6876,-4.6876,-4.6349,-4.5662,-4.5188,-4.4814,-4.461,-4.461,-4.4189,-4.3723,-4.3369,-1.9223,0.0,0.0,0.0,0.0,0.0,0.0,0.0,0.0,0.0,0.0,0.0,0.0,0.0,0.0,0.0,0.0,0.0,0.0,0.0,0.0,0.0,0.0,0.0,0.0,0.0,0.0,0.0,0.0,-4.0096,-4.0096,-4.0096,-4.0096,-4.0096,-4.0096,-4.0146,-4.2308,-4.448,-4.5239,0.0,-4.482,0.0,0.0,0.0,0.0,0.0,0.0,0.0,0.0,0.0,0.0,0.0,0.0,0.0,0.0,0.0,0.0,0.0,0.0,0.0,0.0,0.0,0.0,0.0,0.0,0.0,0.0,0.0,0.0,-4.866,-4.8624,-4.819,-4.855,-4.8345,-4.7696,-4.7657,-4.7399,-4.7043,-4.7508,-4.7717,-4.7804,-4.8909,-4.9329,-4.9297,-4.8873,-4.855,-4.8229,-4.7723,-4.7272,-4.6911,-4.6865,-4.6536,-4.6122,-4.6122,-4.5406,-4.4682,-4.513,-4.4435,-4.3598,-4.3598,-4.5243,-4.6876,-4.6876,-4.6385,-4.588,-4.5807,-4.5151,-4.461,-4.461,-4.461,-4.4305,-4.3448,-2.1421,-0.3049,-0.0404,0.0,0.0,0.0,0.0,0.0,0.0,0.0,0.0,0.0,0.0,0.0,0.0,0.0,0.0,0.0,0.0,0.0,0.0,0.0,0.0,0.0,0.0,0.0,0.0,0.0,0.0,-4.0096,-4.0096,-4.0096,-4.0096,-4.0096,-4.0196,-4.0631,-4.1243,-4.2419,-4.4888,-4.5318,0.0,0.0,0.0,0.0,0.0,0.0,0.0,0.0,0.0,0.0,0.0,0.0,0.0,0.0,0.0,0.0,0.0,0.0,0.0,0.0,0.0,0.0,0.0,0.0,0.0,-4.7717,-4.7717,-4.7741,0.0,-4.8229,-4.8034,-4.7276,-4.7367,-4.7515,-4.7696,-4.7312,-4.707,-4.7043,-4.7508,-4.7717,-4.7738,-4.799,-4.809,-4.8032,-4.7582,-4.779,-4.8132,-4.6944,-4.6464,-4.6295,-4.5871,-4.5667,-4.5581,-4.5581,-4.513,-4.4514,-4.4109,-4.3789,-4.3598,-4.3598,-4.5243,-4.6876,-4.6876,-4.6789,-4.6509,-4.5916,-4.5151,-4.461,-4.461,-4.461,-4.4305,-4.3448,-3.8118,-2.6249,-0.3423,0.0,0.0,0.0,0.0,0.0,0.0,0.0,0.0,0.0,0.0,0.0,0.0,0.0,0.0,0.0,0.0,0.0,0.0,0.0,0.0,0.0,0.0,0.0,0.0,0.0,0.0,-4.0096,-4.0096,-4.0096,-4.0096,-4.0296,-4.0558,-4.084,-4.0912,-4.136,-4.2923,-4.438,0.0,0.0,0.0,0.0,0.0,0.0,0.0,0.0,0.0,0.0,0.0,0.0,0.0,0.0,0.0,0.0,0.0,0.0,0.0,0.0,0.0,0.0,0.0,0.0,0.0,-4.7717,-4.7888,-4.7888,-4.7696,-4.7414,-4.7173,-4.6998,-4.6998,-4.7002,-4.6985,-4.7002,-4.6998,-4.7048,-4.7705,-4.799,-4.797,-4.7783,-4.7717,-4.7636,-4.716,-4.7102,-4.72,-4.6453,-4.6196,-4.6097,-4.5563,-4.5397,-4.5397,-4.5397,-4.5039,-4.4514,-4.42,-4.3864,-4.3598,-4.3598,-4.4461,-4.5587,-4.6655,-4.6876,-4.6684,-4.5936,-4.5463,-4.5077,-4.4648,-4.461,-4.4458,-4.3996,-3.2054,-1.7429,-0.2272,0.0,0.0,0.0,0.0,0.0,0.0,0.0,0.0,0.0,0.0,0.0,0.0,0.0,0.0,0.0,0.0,0.0,0.0,0.0,0.0,0.0,0.0,0.0,0.0,0.0,0.0,-4.0096,-4.0096,-4.0096,-4.0096,-4.0493,-4.0912,-4.0912,-4.0912,-4.0912,-4.0912,0.0,0.0,0.0,0.0,0.0,0.0,0.0,0.0,0.0,0.0,0.0,0.0,0.0,0.0,0.0,0.0,0.0,0.0,0.0,0.0,0.0,0.0,0.0,0.0,0.0,-4.7425,-4.7425,-4.7931,-4.803,-4.7696,-4.6684,-4.6392,-4.6725,-4.6819,-4.6607,-4.6221,-4.6772,-4.7093,-4.7276,-4.7931,-4.819,-4.817,-4.7927,-4.7762,-4.7636,-4.716,-4.6725,-4.6319,-4.6221,-4.6196,-4.6122,-4.5667,-4.5476,-4.5397,-4.5397,-4.5076,-4.4709,-4.4643,-4.4126,-4.3598,-4.3598,-4.3598,-4.4174,-4.6365,-4.6876,-4.6574,-4.5354,-4.5476,-4.5536,-4.4776,-4.461,-4.4534,-4.4419,-2.3865,-0.577,-0.0747,0.0,0.0,0.0,0.0,0.0,0.0,0.0,0.0,0.0,0.0,0.0,0.0,0.0,0.0,0.0,0.0,0.0,0.0,0.0,0.0,0.0,0.0,0.0,0.0,0.0,0.0,-4.0096,-4.0096,-4.0096,-4.0096,-4.0493,-4.0912,-4.0912,0.0,-4.0912,0.0,0.0,0.0,0.0,0.0,0.0,0.0,0.0,0.0,0.0,0.0,0.0,0.0,0.0,0.0,0.0,0.0,0.0,0.0,0.0,0.0,0.0,0.0,-4.6295,-4.6295,-4.6368,0.0,-4.6416,-4.732,-4.7741,-4.7696,-4.6684,-4.5998,-4.5615,-4.6097,-4.627,-4.6221,-4.6772,-4.7428,-4.8111,-4.7868,-4.7783,-4.7804,-4.8092,-4.801,-4.7636,-4.716,-4.6934,-4.6819,-4.6368,-4.6196,-4.6196,-4.6122,-4.577,-4.5397,-4.5397,-4.5344,-4.5184,-4.4737,-4.4126,-4.3598,-4.3598,-4.3598,-4.4174,-4.6365,-4.6876,-4.6025,-4.2847,-4.4085,-4.5536,-4.4776,-4.461,-4.4343,-4.3606,-4.0149,-2.8969,-0.3782,0.0,0.0,0.0,0.0,0.0,0.0,0.0,0.0,0.0,0.0,0.0,0.0,0.0,0.0,0.0,0.0,0.0,0.0,0.0,0.0,0.0,0.0,0.0,0.0,0.0,0.0,-4.0096,-3.8877,-3.7584,-3.7584,-3.903,-4.0444,-4.0444,-4.068,-4.0912,0.0,0.0,0.0,0.0,0.0,0.0,0.0,0.0,0.0,0.0,0.0,0.0,0.0,0.0,0.0,0.0,0.0,0.0,0.0,0.0,0.0,0.0,-4.6196,-4.6196,-4.6196,-4.6196,0.0,-4.6196,-4.6637,-4.6847,-4.6847,-4.5786,-4.5344,-4.5423,-4.5947,-4.6196,-4.6246,-4.7048,-4.7468,-4.7557,-4.7381,-4.7597,-4.803,-4.799,-4.7866,-4.7657,-4.7464,-4.7245,-4.6911,-4.6392,-4.6196,-4.6196,-4.6196,-4.5821,-4.5397,-4.5397,-4.5397,-4.5291,-4.4737,-4.44,-4.4068,-4.3717,-4.3598,-4.3853,-4.4813,-4.4756,-4.396,-4.2022,-4.3816,-4.5536,-4.4776,-4.461,-4.4458,-4.4112,-4.3606,-3.3439,-0.4365,0.0,0.0,0.0,0.0,0.0,0.0,0.0,0.0,0.0,0.0,0.0,0.0,0.0,0.0,0.0,0.0,0.0,0.0,0.0,0.0,0.0,0.0,0.0,0.0,0.0,0.0,-4.0096,-3.7905,-3.56,-3.56,-3.7872,-4.0096,0.0,0.0,0.0,0.0,0.0,0.0,0.0,0.0,0.0,0.0,0.0,0.0,0.0,0.0,0.0,0.0,0.0,0.0,0.0,0.0,0.0,0.0,0.0,0.0,-4.6172,-4.6073,-4.6048,-4.6214,-4.6073,-4.6048,-4.6196,-4.502,-4.4724,-4.5267,-4.4631,-4.4553,-4.4978,-4.5955,-4.6319,-4.6246,-4.7138,-4.7316,-4.702,-4.7133,-4.7493,-4.7933,-4.7783,-4.7717,-4.7717,-4.7717,-4.7399,-4.6934,-4.6536,-4.6319,-4.6196,-4.6196,-4.5922,-4.5581,-4.545,-4.5397,-4.5318,-4.493,-4.4709,-4.4457,-4.3776,-4.3598,-4.3598,-4.3598,-4.3099,-4.2413,-4.1753,-4.3816,-4.5536,-4.4776,-4.461,-4.461,-4.461,-4.4073,-3.6213,-1.43,-0.4724,0.0,0.0,0.0,0.0,0.0,0.0,0.0,0.0,0.0,0.0,0.0,0.0,0.0,0.0,0.0,0.0,0.0,0.0,0.0,0.0,0.0,0.0,0.0,0.0,0.0,-4.0096,-3.7905,-3.56,-3.56,-3.7872,-4.0096,0.0,0.0,0.0,0.0,0.0,0.0,0.0,0.0,0.0,0.0,0.0,0.0,0.0,0.0,0.0,0.0,0.0,0.0,0.0,0.0,0.0,0.0,0.0,0.0,-4.6172,-4.5718,-4.5667,-4.6172,-4.571,-4.5684,-4.6214,-4.1851,-4.0722,-4.2789,-4.3372,-4.3658,-4.3759,-4.596,-4.6678,-4.6221,-4.6795,-4.7002,-4.7025,-4.7486,-4.7443,-4.7116,-4.7529,-4.7717,-4.7717,-4.7717,-4.7399,-4.6998,-4.6975,-4.6631,-4.6196,-4.6196,-4.6172,-4.6073,-4.5537,-4.5397,-4.5397,-4.5371,-4.4995,-4.4457,-4.3776,-4.3598,-4.3598,-4.3598,-4.3099,-4.2413,-4.1753,-4.3816,-4.5536,-4.4776,-4.461,-4.461,-4.461,-4.4572,-4.3746,-4.1423,-1.7624,0.0,0.0,0.0,0.0,0.0,0.0,0.0,0.0,0.0,0.0,0.0,0.0,0.0,0.0,0.0,0.0,0.0,0.0,0.0,0.0,0.0,0.0,0.0,0.0,0.0,-3.7736,-3.6411,-3.56,-3.56,-3.6394,-3.7719,-3.9673,0.0,0.0,0.0,0.0,0.0,0.0,0.0,0.0,0.0,0.0,0.0,0.0,0.0,0.0,0.0,0.0,0.0,0.0,0.0,0.0,0.0,0.0,0.0,-4.5684,-4.5502,-4.5502,-4.5667,-4.5502,-4.5641,-4.6196,-4.3015,-4.1813,-4.2602,-4.2836,-4.2384,-4.1386,-4.1844,-4.3567,-4.6221,-4.6772,-4.6998,-4.7002,-4.7178,-4.7138,-4.702,-4.7201,-4.7578,-4.805,-4.7804,-4.7399,-4.6998,-4.6998,-4.6865,-4.6655,-4.6319,-4.6196,-4.6097,-4.5563,-4.5397,-4.5397,-4.5397,-4.4995,-4.4542,-4.4298,-4.3923,-4.3598,-4.3598,-4.3099,-4.2413,-4.1753,-4.3816,-4.5698,-4.5426,-4.4964,-4.461,-4.461,-4.461,-4.4305,-4.3448,-1.8595,0.0,0.0,0.0,0.0,0.0,0.0,0.0,0.0,0.0,0.0,0.0,0.0,0.0,0.0,0.0,0.0,0.0,0.0,0.0,0.0,0.0,0.0,0.0,0.0,0.0,-3.614,-3.56,-3.56,-3.56,-3.56,-3.6107,-3.8125,0.0,0.0,0.0,0.0,0.0,0.0,0.0,0.0,0.0,0.0,0.0,0.0,0.0,0.0,0.0,0.0,0.0,0.0,0.0,0.0,0.0,0.0,0.0,-4.5397,-4.5397,-4.5397,-4.5397,-4.5397,-4.5581,-4.5922,-4.3706,-4.2602,-4.2586,-4.1845,-4.0929,-3.9833,-3.9458,-4.1075,-4.418,-4.4712,-4.5634,-4.6749,-4.6929,-4.6998,-4.702,-4.716,-4.7663,-4.8229,-4.7681,-4.7377,-4.7205,-4.7048,-4.6998,-4.6934,-4.6584,-4.6343,-4.6122,-4.5787,-4.5537,-4.5397,-4.5397,-4.513,-4.482,-4.4654,-4.4097,-4.3598,-4.3598,-4.3099,-4.2476,-4.2045,-4.3228,-4.467,-4.5634,-4.5389,-4.4927,-4.4663,-4.461,-4.4305,-4.3448,-2.6877,-1.1017,-0.1256,0.0,0.0,0.0,0.0,0.0,0.0,0.0,0.0,0.0,0.0,0.0,0.0,0.0,0.0,0.0,0.0,0.0,0.0,0.0,0.0,0.0,0.0,0.0,0.0,0.0,0.0,0.0,0.0,0.0,0.0,0.0,0.0,0.0,0.0,0.0,0.0,0.0,0.0,0.0,0.0,0.0,0.0,0.0,0.0,0.0,0.0,0.0,0.0,0.0,0.0,0.0,0.0,-4.5371,-4.5371,-4.5397,-4.5371,-4.5318,-4.5371,-4.5397,-4.5397,-4.3532,-4.2554,-4.2472,-4.0388,-3.9404,-3.9404,-3.9348,-3.9573,-4.0113,-4.0631,-4.2812,-4.6049,-4.6713,-4.6998,-4.7066,-4.7529,-4.7929,-4.8132,-4.732,-4.7312,-4.7615,-4.716,-4.7002,-4.6998,-4.6998,-4.6655,-4.6221,-4.6196,-4.5821,-4.5423,-4.5397,-4.5397,-4.5264,-4.4737,-4.4097,-4.3598,-4.3598,-4.3099,-4.2618,-4.2602,-4.2077,-4.2428,-4.5159,-4.576,-4.5536,-4.4739,-4.461,-4.4305,-4.3448,-4.3329,-3.2811,-0.3737,0.0,0.0,0.0,0.0,0.0,0.0,0.0,0.0,0.0,0.0,0.0,0.0,0.0,0.0,0.0,0.0,0.0,0.0,0.0,0.0,0.0,0.0,0.0,-3.56,0.0,0.0,0.0,0.0,0.0,0.0,0.0,0.0,0.0,0.0,0.0,0.0,0.0,0.0,0.0,0.0,0.0,0.0,0.0,0.0,0.0,0.0,0.0,0.0,0.0,0.0,0.0,0.0,-4.482,-4.482,-4.5184,-4.478,-4.3413,-4.4697,-4.5397,-4.5397,-4.3532,-4.1811,-4.0231,-4.1194,-4.1694,-4.1629,-4.0039,-3.9379,-3.952,-3.9677,-4.0312,-4.1484,-4.4987,-4.6655,-4.707,-4.785,-4.7585,-4.6835,-4.7338,-4.7377,-4.7205,-4.7443,-4.7272,-4.6998,-4.6998,-4.6888,-4.6702,-4.6319,-4.6097,-4.5897,-4.5502,-4.5397,-4.5264,-4.4737,-4.4097,-4.3598,-4.3598,-4.3462,-4.319,-4.268,-4.246,-4.2414,-4.2701,-4.4417,-4.5536,-4.4739,-4.461,-4.4534,-4.4266,-4.3723,-3.2811,-0.3737,0.0,0.0,0.0,0.0,0.0,0.0,0.0,0.0,0.0,0.0,0.0,0.0,0.0,0.0,0.0,0.0,0.0,0.0,0.0,0.0,0.0,0.0,0.0,-3.56,-3.56,-3.56,0.0,0.0,0.0,-3.56,-3.56,0.0,0.0,0.0,0.0,0.0,0.0,0.0,0.0,0.0,0.0,0.0,0.0,0.0,0.0,0.0,0.0,0.0,0.0,0.0,0.0,-4.1737,-4.3278,-4.453,-4.4903,-4.4042,-4.1802,-4.3092,-4.4328,-4.5397,-4.3532,-4.1945,-4.0697,-4.1994,-4.2126,-4.1194,-4.0836,-4.0165,-3.9299,-3.9299,-3.9432,-3.9837,-4.255,-4.4284,-4.5279,-4.5228,-4.5749,-4.6584,-4.6939,-4.716,-4.7334,-4.7611,-4.7399,-4.6998,-4.6998,-4.6998,-4.6888,-4.6368,-4.6196,-4.6122,-4.5821,-4.5563,-4.5264,-4.4737,-4.4097,-4.3598,-4.3598,-4.3598,-4.3492,-4.3099,-4.279,-4.2397,-4.172,-4.388,-4.5536,-4.4739,-4.461,-4.461,-4.461,-4.4189,-3.7582,-2.0295,-0.7489,0.0,0.0,0.0,0.0,0.0,0.0,0.0,0.0,0.0,0.0,0.0,0.0,0.0,0.0,0.0,0.0,0.0,0.0,0.0,0.0,0.0,0.0,-3.5247,-3.5362,-3.56,0.0,0.0,0.0,-3.56,-3.56,0.0,0.0,0.0,0.0,0.0,0.0,0.0,0.0,0.0,0.0,0.0,0.0,0.0,0.0,0.0,0.0,0.0,0.0,0.0,-4.0096,-4.0096,-4.1159,-4.3558,-4.3951,-4.299,-4.0578,-4.1223,-4.2724,-4.5086,-4.3443,-4.2602,-4.2602,-4.2602,-4.1578,-3.9726,-4.171,-4.1512,-3.9654,-3.9421,-3.9599,-4.0104,-4.0298,-4.1226,-4.24,-4.1391,-4.3156,-4.628,-4.5887,-4.6354,-4.7228,-4.7591,-4.7421,-4.7088,-4.702,-4.6998,-4.6911,-4.644,-4.6246,-4.6196,-4.6196,-4.577,-4.5211,-4.4709,-4.4155,-4.3687,-4.3628,-4.3598,-4.3598,-4.3598,-4.3068,-4.2397,-4.172,-4.388,-4.5573,-4.4852,-4.4663,-4.461,-4.461,-4.461,-4.4305,-4.3409,-1.7953,0.0,0.0,0.0,0.0,0.0,0.0,0.0,0.0,0.0,0.0,0.0,0.0,0.0,0.0,0.0,0.0,0.0,0.0,0.0,0.0,0.0,0.0,0.0,0.0,0.0,0.0,0.0,0.0,-3.56,-3.56,-3.56,0.0,0.0,0.0,0.0,0.0,0.0,0.0,0.0,0.0,0.0,0.0,0.0,0.0,0.0,0.0,0.0,0.0,-4.0096,-4.0096,-4.0096,-3.9518,-3.8145,-3.9924,-4.084,-4.0516,-4.1223,-4.2093,-4.3127,-4.2774,-4.2602,-4.2602,-4.2602,-4.2373,-4.1977,-4.2406,-4.2357,-4.1862,-4.0061,-3.9599,-4.0206,-4.1556,-4.1281,-4.0103,-4.1094,-4.1724,-4.2178,-4.2833,-4.3386,-4.4204,-4.6812,-4.7636,-4.7508,-4.7116,-4.6998,-4.698,-4.6865,-4.6536,-4.6196,-4.6196,-4.5511,-4.4737,-4.4643,-4.4485,-4.4286,-4.3747,-4.3598,-4.3598,-4.3598,-4.3068,-4.2397,-4.172,-4.388,-4.5735,-4.5573,-4.5039,-4.461,-4.461,-4.461,-4.4305,-4.3409,-1.7953,0.0,0.0,0.0,0.0,0.0,0.0,0.0,0.0,0.0,0.0,0.0,0.0,0.0,0.0,0.0,0.0,0.0,0.0,0.0,0.0,0.0,0.0,0.0,0.0,0.0,-3.3556,0.0,0.0,0.0,-3.3556,-3.3937,0.0,0.0,0.0,0.0,0.0,0.0,0.0,0.0,0.0,0.0,0.0,0.0,0.0,0.0,0.0,0.0,0.0,-4.0096,-4.0096,-4.0096,-3.8914,-3.6147,-3.7458,-3.8376,-3.8494,-3.8866,-3.9861,-4.154,-4.1916,-4.227,-4.2602,-4.2602,-4.2602,-4.2602,-4.2602,-4.201,-4.0901,-4.0074,-4.0338,-4.1335,-4.1054,-4.0954,-4.0906,-4.0586,-4.0476,-4.0693,-4.2318,-4.2901,-4.3118,-4.4747,-4.5309,-4.5231,-4.4793,-4.4664,-4.4967,-4.6516,-4.5551,-4.3851,-4.3613,-4.3172,-4.3047,-4.4264,-4.4615,-4.453,-4.4184,-4.3835,-4.3598,-4.3598,-4.3068,-4.2508,-4.2174,-4.2962,-4.4148,-4.557,-4.5463,-4.5077,-4.4648,-4.461,-4.4305,-4.3409,-3.0599,-1.6039,-0.154,0.0,0.0,0.0,0.0,0.0,0.0,0.0,0.0,0.0,0.0,0.0,0.0,0.0,0.0,0.0,0.0,0.0,0.0,0.0,0.0,0.0,0.0,0.0,0.0,0.0,-3.1511,0.0,0.0,0.0,-3.4333,0.0,0.0,0.0,0.0,0.0,0.0,0.0,0.0,0.0,0.0,0.0,0.0,0.0,0.0,0.0,0.0,-4.0096,-4.0096,-3.9558,-3.8133,-3.5619,-3.6147,-3.6492,-3.6492,-3.6492,-3.78,-4.0459,-4.0573,-4.1149,-4.2206,-4.246,-4.2602,-4.2602,-4.2602,-4.1409,-3.9358,-4.021,-4.1105,-4.1862,-4.0508,-4.0734,-4.1794,-4.0128,-3.9858,-4.0604,-4.2462,-4.292,-4.2671,-4.2844,-4.2901,-4.2844,-4.2512,-4.229,-4.2625,-4.5192,-4.393,-4.1493,-4.1035,-4.0912,-4.1343,-4.3377,-4.4258,-4.4615,-4.4615,-4.4097,-4.3598,-4.3598,-4.316,-4.2759,-4.2634,-4.2174,-4.2482,-4.4642,-4.5444,-4.5536,-4.4739,-4.461,-4.4343,-4.3645,-4.3409,-3.2168,-0.3094,0.0,0.0,0.0,0.0,0.0,0.0,0.0,0.0,0.0,0.0,0.0,0.0,0.0,0.0,0.0,0.0,0.0,0.0,0.0,0.0,0.0,0.0,0.0,0.0,-3.1511,0.0,0.0,0.0,-3.1582,-3.1879,0.0,0.0,0.0,0.0,0.0,0.0,0.0,0.0,0.0,0.0,0.0,0.0,0.0,0.0,0.0,0.0,0.0,-4.0096,-3.7573,-3.5878,-3.5537,-3.6147,-3.6492,-3.6492,-3.6492,-3.78,-4.0459,-3.8251,-3.83,-4.0749,-4.1997,-4.2602,-4.2602,-4.2602,-4.1409,-3.9421,-4.1435,-4.1301,-3.9798,-4.1512,-4.121,-3.9708,-3.9924,-4.0597,-4.1453,-4.1719,-4.1784,-4.187,-4.2632,-4.2901,-4.2882,-4.2844,-4.2313,-4.1763,-4.2097,-4.193,-4.1493,-4.1035,-4.0912,-4.0957,-4.1247,-4.2944,-4.4615,-4.4615,-4.4097,-4.3598,-4.3598,-4.3539,-4.3312,-4.2728,-4.2539,-4.2414,-4.2115,-4.4148,-4.5536,-4.4739,-4.461,-4.4572,-4.4473,-4.3762,-3.2168,-0.3094,0.0,0.0,0.0,0.0,0.0,0.0,0.0,0.0,0.0,0.0,0.0,0.0,0.0,0.0,0.0,0.0,0.0,0.0,0.0,0.0,0.0,0.0,0.0,0.0,0.0,0.0,-3.1511,0.0,-3.1511,0.0,0.0,0.0,0.0,0.0,0.0,0.0,0.0,0.0,0.0,0.0,0.0,0.0,0.0,0.0,0.0,0.0,0.0,0.0,0.0,-3.5504,-3.5504,-3.6147,-3.6492,-3.6492,-3.6492,-3.703,-3.8169,-3.8616,-3.8616,-3.82,-4.0357,-4.1374,-4.136,-4.0901,-4.0665,-4.0704,-4.2037,-4.2077,-4.1207,-4.082,-4.0513,-4.0271,-4.0782,-4.1226,-4.1604,-4.1604,-4.1604,-4.1626,-4.1705,-4.1731,-4.1835,-4.2374,-4.231,-4.1952,-4.1692,-4.1604,-4.156,-4.1358,-4.1105,-4.0912,-4.0912,-4.1665,-4.2817,-4.4247,-4.4097,-4.3598,-4.3598,-4.3598,-4.3539,-4.3221,-4.2883,-4.2381,-4.172,-4.3943,-4.5536,-4.4739,-4.461,-4.461,-4.461,-4.4266,-3.9187,-2.6477,-1.0045,0.0,0.0,0.0,0.0,0.0,0.0,0.0,0.0,0.0,0.0,0.0,0.0,0.0,0.0,0.0,0.0,0.0,0.0,0.0,-3.5504,0.0,0.0,0.0,0.0,0.0,0.0,0.0,0.0,0.0,0.0,0.0,0.0,0.0,0.0,0.0,0.0,0.0,0.0,0.0,0.0,0.0,0.0,0.0,0.0,0.0,0.0,0.0,-3.5085,0.0,-3.5504,-3.6147,-3.6492,-3.6492,-3.6492,-3.6492,-3.6492,-3.8431,-3.8816,-3.7615,-3.8831,-3.9902,-4.0755,-3.9996,-4.0462,-4.1883,-4.2206,-4.2445,-4.2438,-4.053,-4.0213,-4.0959,-4.1426,-4.1604,-4.1604,-4.1604,-4.1604,-4.156,-4.1221,-4.1012,-4.1012,-4.1697,-4.1809,-4.1618,-4.1277,-4.1203,-4.1203,-4.1203,-4.0948,-4.0704,-4.0847,-4.068,-4.1061,-4.3491,-4.3671,-4.3312,-4.3312,-4.3312,-4.3281,-4.3082,-4.2649,-4.243,-4.2717,-4.4448,-4.5625,-4.5002,-4.4723,-4.461,-4.461,-4.461,-4.4266,-4.3369,-1.731,0.0,0.0,0.0,0.0,0.0,0.0,0.0,0.0,0.0,0.0,0.0,0.0,0.0,0.0,0.0,0.0,0.0,0.0,0.0,0.0,0.0,0.0,-3.537,0.0,0.0,0.0,0.0,-3.1511,0.0,0.0,0.0,0.0,0.0,0.0,-3.1511,0.0,0.0,0.0,0.0,0.0,0.0,0.0,0.0,0.0,0.0,0.0,0.0,-3.4022,0.0,-3.5504,-3.6147,-3.6492,-3.6492,-3.6492,-3.6492,-3.6492,-3.6584,-3.7892,-4.0336,-3.7831,-3.837,-4.1555,-4.0808,-4.1229,-4.2523,-4.1916,-4.2013,-4.25,-4.1323,-4.0871,-4.0959,-4.1426,-4.1604,-4.1604,-4.1604,-4.1604,-4.1604,-4.1582,-4.129,-4.0894,-4.0935,-4.059,-4.0171,-4.0146,-4.0146,-4.0146,-4.0146,-4.0121,-4.0263,-4.0752,-4.0121,-3.9919,-4.2138,-4.2665,-4.2634,-4.2634,-4.2634,-4.2429,-4.1785,-4.1654,-4.2491,-4.5207,-4.576,-4.5771,-4.5771,-4.5077,-4.461,-4.461,-4.461,-4.4266,-4.3369,-1.731,0.0,0.0,0.0,0.0,0.0,0.0,0.0,0.0,0.0,0.0,0.0,0.0,0.0,0.0,0.0,0.0,0.0,0.0,0.0,0.0,0.0,-3.5504,-3.5504,0.0,0.0,0.0,0.0,0.0,0.0,0.0,0.0,0.0,0.0,-3.1511,-3.1511,-3.1511,0.0,0.0,0.0,0.0,0.0,0.0,0.0,0.0,0.0,0.0,-3.1582,-3.3962,-3.5504,0.0,-3.5731,-3.6035,-3.6492,-3.6492,-3.6492,-3.6492,-3.6492,-3.6953,-3.7846,-3.6923,-3.8036,-4.0851,-4.0627,-4.0749,-4.1189,-4.0953,-4.0481,-3.9897,-4.0586,-4.0912,-4.0959,-4.1426,-4.1604,-4.1604,-4.1604,-4.1604,-4.156,-4.1244,-4.1035,-4.0912,-4.0912,-4.0534,-4.0096,-4.0096,-4.0096,-4.0096,-4.0096,-4.0096,-4.0045,-3.9884,-3.9573,-3.9973,-4.2621,-4.2914,-4.2602,-4.2602,-4.2602,-4.2397,-4.172,-4.1588,-4.1889,-4.2853,-4.4575,-4.5625,-4.5077,-4.5241,-4.5188,-4.4648,-4.461,-4.4496,-4.4189,-3.4846,-2.0882,-0.1629,0.0,0.0,0.0,0.0,0.0,0.0,0.0,0.0,0.0,0.0,0.0,0.0,0.0,0.0,0.0,0.0,0.0,-3.5504,-3.5504,0.0,0.0,-3.5504,0.0,-3.5504,0.0,0.0,0.0,0.0,0.0,0.0,0.0,0.0,-3.1511,-3.1511,-3.1511,0.0,-3.1511,0.0,0.0,0.0,0.0,0.0,0.0,-3.1511,-3.1511,-3.3095,-3.4502,0.0,0.0,-3.594,-3.6147,-3.6367,-3.6492,-3.6492,-3.6492,-3.6492,-3.6507,-3.7204,-3.8076,-3.9123,-4.0059,-4.0489,-4.0478,-3.9959,-3.9231,-3.8476,-3.9566,-4.0003,-4.0054,-4.0343,-4.0937,-4.1604,-4.1604,-4.1604,-4.156,-4.1244,-4.1035,-4.0912,-4.0912,-4.068,-4.0345,-4.0163,-4.0096,-4.0096,-4.0096,-4.0096,-3.9986,-3.9432,-3.9299,-4.0044,-4.2903,-4.3251,-4.2883,-4.2665,-4.2602,-4.2397,-4.172,-4.1588,-4.1588,-4.1588,-4.3105,-4.446,-4.4974,-4.5225,-4.5204,-4.4663,-4.461,-4.461,-4.461,-4.384,-3.154,-0.2466,0.0,0.0,0.0,0.0,0.0,0.0,0.0,0.0,0.0,0.0,0.0,0.0,0.0,0.0,0.0,0.0,0.0]},{"header":{"parameterUnit":"m.s-1","parameterCategory":1,"la1":30.6,"la2":29.2853,"lo1":-89.7004,"lo2":-87.6739,"dy":0.0162,"dx":0.0183,"nx":112,"ny":82,"refTime":"2023-05-03T00:00:00:Z","depth":0,"parameterNumber":3,"parameterNumberName":"V-component_of_WINDS"},"data":[0.0,0.0,0.0,0.0,0.0,0.0,0.0,0.0,0.0,0.0,0.0,0.0,0.0,0.0,0.0,0.0,0.0,0.0,0.0,0.0,0.0,0.0,0.0,0.0,0.0,0.0,0.0,0.0,0.0,0.0,0.0,0.0,0.0,0.0,0.0,0.0,0.0,0.0,0.0,0.0,0.0,0.0,0.0,0.0,0.0,0.0,0.0,0.0,0.0,0.0,0.0,0.0,0.0,0.0,0.0,0.0,0.0,0.0,0.0,0.0,0.0,0.0,0.0,0.0,0.0,0.0,0.0,0.0,0.0,0.0,0.0,0.0,0.0,0.0,0.0,0.0,0.0,0.0,0.0,0.0,0.0,0.0,0.0,0.0,0.0,0.0,0.0,0.0,0.0,0.0,0.0,0.0,0.0,0.0,0.0,0.0,0.0,0.0,0.0,0.0,0.0,0.0,0.0,0.0,0.0,0.0,0.0,0.0,0.0,0.0,0.0,0.0,0.0,0.0,0.0,0.0,0.0,0.0,0.0,0.0,0.0,0.0,0.0,0.0,0.0,0.0,0.0,0.0,0.0,0.0,0.0,0.0,0.0,0.0,0.0,0.0,0.0,0.0,0.0,0.0,0.0,0.0,0.0,0.0,0.0,0.0,0.0,0.0,0.0,0.0,0.0,0.0,0.0,0.0,0.0,0.0,0.0,0.0,0.0,0.0,0.0,0.0,0.0,0.0,0.0,0.0,0.0,0.0,0.0,0.0,0.0,0.0,0.0,0.0,0.0,0.0,0.0,0.0,0.0,0.0,0.0,0.0,0.0,0.0,0.0,0.0,0.0,0.0,0.0,0.0,0.0,0.0,0.0,0.0,0.0,0.0,0.0,0.0,0.0,0.0,0.0,0.0,0.0,0.0,0.0,0.0,0.0,0.0,0.0,0.0,0.0,0.0,0.0,0.0,0.0,0.0,0.0,0.0,0.0,0.0,0.0,0.0,0.0,0.0,0.0,0.0,0.0,0.0,0.0,0.0,0.0,0.0,0.0,0.0,0.0,0.0,0.0,0.0,0.0,0.0,0.0,0.0,0.0,0.0,0.0,0.0,0.0,0.0,0.0,0.0,0.0,0.0,0.0,0.0,0.0,0.0,0.0,0.0,0.0,0.0,0.0,0.0,0.0,0.0,0.0,0.0,0.0,0.0,0.0,0.0,0.0,0.0,0.0,0.0,0.0,0.0,0.0,0.0,0.0,0.0,0.0,0.0,0.0,0.0,0.0,0.0,0.0,0.0,0.0,0.0,0.0,0.0,0.0,0.0,0.0,0.0,0.0,0.0,0.0,0.0,0.0,0.0,0.0,0.0,0.0,0.0,0.0,0.0,0.0,0.0,0.0,0.0,0.0,0.0,0.0,0.0,0.0,0.0,0.0,0.0,0.0,0.0,0.0,0.0,0.0,0.0,0.0,0.0,0.0,0.0,0.0,0.0,0.0,0.0,0.0,0.0,0.0,0.0,0.0,0.0,0.0,0.0,0.0,0.0,0.0,0.0,0.0,0.0,0.0,0.0,0.0,0.0,0.0,0.0,0.0,0.0,0.0,0.0,0.0,0.0,0.0,0.0,0.0,0.0,0.0,0.0,0.0,0.0,0.0,0.0,0.0,0.0,0.0,0.0,0.0,0.0,0.0,0.0,0.0,0.0,0.0,0.0,0.0,0.0,0.0,0.0,0.0,0.0,0.0,0.0,0.0,0.0,0.0,0.0,0.0,0.0,0.0,0.0,0.0,0.0,0.0,0.0,0.0,0.0,0.0,0.0,0.0,0.0,0.0,0.0,0.0,0.0,0.0,0.0,0.0,0.0,0.0,0.0,0.0,0.0,0.0,0.0,0.0,0.0,0.0,0.0,0.0,0.0,0.0,0.0,0.0,0.0,0.0,0.0,0.0,0.0,0.0,0.0,0.0,0.0,0.0,0.0,0.0,0.0,0.0,0.0,0.0,0.0,0.0,0.0,0.0,0.0,0.0,0.0,0.0,0.0,0.0,0.0,0.0,0.0,0.0,0.0,0.0,0.0,0.0,0.0,0.0,0.0,0.0,0.0,0.0,0.0,0.0,0.0,0.0,0.0,0.0,0.0,0.0,0.0,0.0,0.0,0.0,0.0,0.0,0.0,0.0,0.0,0.0,0.0,0.0,0.0,0.0,0.0,0.0,0.0,0.0,0.0,0.0,0.0,0.0,0.0,0.0,0.0,0.0,0.0,0.0,0.0,0.0,0.0,0.0,0.0,0.0,0.0,0.0,0.0,0.0,0.0,0.0,0.0,0.0,0.0,0.0,0.0,0.0,0.0,0.0,0.0,0.0,0.0,0.0,0.0,0.0,0.0,0.0,0.0,0.0,0.0,0.0,0.0,0.0,0.0,0.0,0.0,0.0,0.0,0.0,0.0,0.0,0.0,0.0,0.0,0.0,0.0,0.0,0.0,0.0,0.0,0.0,0.0,0.0,0.0,0.0,0.0,0.0,0.0,0.0,0.0,0.0,0.0,0.0,0.0,0.0,0.0,0.0,0.0,0.0,0.0,0.0,0.0,0.0,0.0,0.0,0.0,0.0,0.0,0.0,0.0,0.0,0.0,0.0,0.0,0.0,0.0,0.0,0.0,0.0,0.0,0.0,0.0,0.0,0.0,0.0,0.0,0.0,0.0,0.0,0.0,0.0,0.0,0.0,0.0,0.0,0.0,0.0,0.0,0.0,0.0,0.0,0.0,0.0,0.0,0.0,0.0,0.0,0.0,0.0,0.0,0.0,0.0,0.0,0.0,0.0,0.0,0.0,0.0,0.0,0.0,0.0,0.0,0.0,0.0,0.0,0.0,0.0,0.0,0.0,0.0,0.0,0.0,0.0,0.0,0.0,0.0,0.0,0.0,0.0,0.0,0.0,0.0,0.0,0.0,0.0,0.0,0.0,0.0,0.0,0.0,0.0,0.0,0.0,0.0,0.0,0.0,0.0,0.0,0.0,0.0,0.0,0.0,0.0,0.0,0.0,0.0,0.0,0.0,0.0,0.0,0.0,0.0,0.0,0.0,0.0,0.0,0.0,0.0,0.0,0.0,0.0,0.0,0.0,0.0,0.0,0.0,0.0,0.0,0.0,0.0,0.0,0.0,0.0,0.0,0.0,0.0,0.0,0.0,0.0,0.0,0.0,0.0,0.0,0.0,0.0,0.0,0.0,0.0,0.0,0.0,0.0,0.0,0.0,0.0,0.0,0.0,0.0,0.0,0.0,0.0,0.0,0.0,0.0,0.0,0.0,0.0,0.0,0.0,0.0,0.0,0.0,0.0,0.0,0.0,0.0,0.0,0.0,0.0,0.0,0.0,0.0,0.0,0.0,0.0,0.0,0.0,0.0,0.0,0.0,0.0,0.0,0.0,0.0,0.0,0.0,0.0,0.0,0.0,0.0,0.0,0.0,0.0,0.0,0.0,0.0,0.0,0.0,0.0,0.0,0.0,0.0,0.0,0.0,0.0,0.0,0.0,0.0,0.0,0.0,0.0,0.0,0.0,0.0,0.0,0.0,0.0,0.0,0.0,0.0,0.0,0.0,0.0,0.0,0.0,0.0,0.0,0.0,0.0,0.0,0.0,0.0,0.0,0.0,0.0,0.0,0.0,0.0,0.0,0.0,0.0,0.0,0.0,0.0,0.0,0.0,0.0,0.0,0.0,0.0,0.0,0.0,0.0,0.0,0.0,0.0,0.0,0.0,0.0,0.0,0.0,0.0,0.0,0.0,0.0,0.0,0.0,0.0,0.0,0.0,0.0,0.0,0.0,0.0,0.0,0.0,0.0,0.0,0.0,0.0,0.0,0.0,0.0,0.0,0.0,0.0,0.0,0.0,0.0,0.0,0.0,0.0,0.0,0.0,0.0,0.0,0.0,0.0,0.0,0.0,0.0,0.0,0.0,0.0,0.0,0.0,0.0,0.0,0.0,0.0,0.0,0.0,0.0,0.0,0.0,0.0,0.0,0.0,0.0,0.0,0.0,0.0,0.0,0.0,0.0,0.0,0.0,0.0,0.0,0.0,0.0,0.0,0.0,0.0,0.0,0.0,0.0,0.0,0.0,0.0,0.0,0.0,0.0,0.0,0.0,0.0,0.0,0.0,0.0,0.0,0.0,0.0,0.0,0.0,0.0,0.0,0.0,0.0,0.0,0.0,0.0,0.0,0.0,0.0,0.0,0.0,0.0,0.0,0.0,0.0,0.0,0.0,0.0,0.0,0.0,0.0,0.0,0.0,0.0,0.0,0.0,0.0,0.0,0.0,0.0,0.0,0.0,0.0,0.0,0.0,0.0,0.0,0.0,0.0,0.0,0.0,0.0,0.0,0.0,0.0,0.0,0.0,0.0,0.0,0.0,0.0,0.0,0.0,0.0,0.0,0.0,0.0,0.0,0.0,0.0,0.0,0.0,0.0,0.0,0.0,0.0,0.0,0.0,0.0,0.0,0.0,0.0,0.0,0.0,0.0,0.0,0.0,0.0,0.0,0.0,0.0,0.0,0.0,0.0,0.0,0.0,0.0,0.0,0.0,0.0,0.0,0.0,0.0,0.0,0.0,0.0,0.0,0.0,0.0,0.0,0.0,0.0,0.0,0.0,0.0,0.0,0.0,0.0,0.0,0.0,0.0,0.0,0.0,0.0,0.0,0.0,0.0,0.0,0.0,0.0,0.0,0.0,0.0,0.0,0.0,0.0,0.0,0.0,0.0,0.0,0.0,0.0,0.0,0.0,0.0,0.0,0.0,0.0,0.0,0.0,0.0,0.0,0.0,0.0,0.0,0.0,0.0,0.0,0.0,0.0,0.0,0.0,0.0,0.0,0.0,0.0,0.0,0.0,0.0,0.0,0.0,0.0,0.0,0.0,0.0,0.0,0.0,0.0,0.0,0.0,0.0,0.0,0.0,0.0,0.0,0.0,0.0,0.0,0.0,0.0,0.0,0.0,0.0,0.0,0.0,0.0,0.0,0.0,0.0,0.0,0.0,0.0,0.0,0.0,0.0,0.0,0.0,0.0,0.0,0.0,0.0,0.0,0.0,0.0,0.0,0.0,0.0,0.0,0.0,0.0,0.0,0.0,0.0,0.0,0.0,0.0,0.0,0.0,0.0,0.0,0.0,0.0,0.0,0.0,0.0,0.0,0.0,0.0,0.0,0.0,0.0,0.0,0.0,0.0,0.0,0.0,0.0,0.0,0.0,0.0,0.0,0.0,0.0,0.0,0.0,0.0,0.0,0.0,0.0,0.0,0.0,0.0,0.0,0.0,0.0,0.0,0.0,0.0,0.0,0.0,0.0,0.0,0.0,0.0,0.0,0.0,0.0,0.0,0.0,0.0,0.0,0.0,0.0,0.0,0.0,0.0,0.0,0.0,0.0,0.0,0.0,0.0,0.0,0.0,0.0,0.0,0.0,0.0,0.0,0.0,0.0,0.0,0.0,0.0,0.0,0.0,0.0,0.0,0.0,0.0,0.0,0.0,0.0,0.0,0.0,0.0,0.0,0.0,0.0,0.0,0.0,0.0,0.0,0.0,0.0,0.0,0.0,0.0,0.0,0.0,0.0,0.0,0.0,0.0,0.0,0.0,0.0,0.0,0.0,0.0,0.0,0.0,0.0,0.0,0.0,0.0,1.4088,0.0,0.0,0.0,0.0,0.0,0.0,0.0,0.0,0.0,0.0,0.0,0.0,0.0,0.0,0.0,0.0,0.0,0.0,0.0,0.0,0.0,0.0,0.0,0.0,0.0,0.0,0.0,0.0,0.0,0.0,0.0,0.0,0.0,0.0,0.0,0.0,0.0,0.0,0.0,0.0,0.0,0.0,0.0,0.0,0.0,0.0,0.0,0.0,0.0,0.0,0.0,0.0,0.0,0.0,0.0,0.0,0.0,0.0,0.0,0.0,0.0,0.0,0.0,0.0,0.0,0.0,0.0,0.0,0.0,0.0,0.0,0.0,0.0,0.0,0.0,0.0,0.0,0.0,0.0,0.0,0.0,0.0,0.0,0.0,0.0,0.0,0.0,0.0,0.0,0.0,0.0,0.0,0.0,0.0,0.0,0.0,0.0,0.0,0.0,0.0,0.0,0.0,0.0,0.0,0.0,0.0,0.0,0.0,0.0,0.0,0.0,0.0,1.4088,0.0,0.0,0.0,0.0,0.0,0.0,0.0,0.0,0.0,0.0,0.0,0.0,0.0,0.0,0.0,0.0,0.0,0.0,0.0,0.0,0.0,0.0,0.0,0.0,0.0,0.0,0.0,0.0,0.0,0.0,0.0,0.0,0.0,0.0,0.0,0.0,0.0,0.0,0.0,0.0,0.0,0.0,0.0,0.0,0.0,0.0,0.0,0.0,0.0,0.0,0.0,0.0,0.0,0.0,0.0,0.0,0.0,0.0,0.0,0.0,0.0,0.0,0.0,0.0,0.0,0.0,0.0,0.0,0.0,0.0,0.0,0.0,0.0,0.0,0.0,0.0,0.0,0.0,0.0,0.0,0.0,0.0,0.0,0.0,0.0,0.0,0.0,0.0,0.0,0.0,0.0,0.0,0.0,0.0,0.0,0.0,0.0,0.0,0.0,0.0,0.0,0.0,0.0,0.0,0.0,0.0,1.9183,1.5504,1.387,1.387,1.387,1.3955,1.4088,0.0,0.0,0.0,0.0,0.0,0.0,0.0,0.0,0.0,0.0,0.0,0.0,0.0,0.0,0.0,0.0,0.0,0.0,0.0,0.0,0.0,0.0,0.0,0.0,0.0,0.0,0.0,0.0,0.0,0.0,0.0,0.0,0.0,0.0,0.0,0.0,0.0,0.0,0.0,0.0,0.0,0.0,0.0,0.0,0.0,0.0,0.0,0.0,0.0,0.0,0.0,0.0,0.0,0.0,0.0,0.0,0.0,0.0,0.0,0.0,0.0,0.0,0.0,0.0,0.0,0.0,0.0,0.0,0.0,0.0,0.0,0.0,0.0,0.0,0.0,0.0,0.0,0.0,0.0,0.0,0.0,0.0,0.0,2.0605,2.0605,0.0,0.0,0.0,0.0,0.0,0.0,0.0,0.0,0.0,0.0,0.0,0.0,0.0,0.0,1.9499,1.946,1.946,1.946,1.946,1.942,1.9134,1.4859,1.2875,1.2875,1.2875,0.0,1.4088,1.4088,0.0,0.0,0.0,0.0,0.0,0.0,0.0,0.0,0.0,0.0,0.0,0.0,0.0,0.0,0.0,0.0,0.0,0.0,0.0,0.0,0.0,0.0,0.0,0.0,0.0,0.0,0.0,0.0,0.0,0.0,0.0,0.0,0.0,0.0,0.0,0.0,0.0,0.0,0.0,0.0,0.0,0.0,0.0,0.0,0.0,0.0,0.0,0.0,0.0,0.0,0.0,0.0,0.0,0.0,0.0,0.0,0.0,0.0,0.0,0.0,0.0,0.0,0.0,0.0,0.0,0.0,0.0,0.0,0.0,0.0,0.0,0.0,0.0,0.0,0.0,0.0,0.0,0.0,0.0,0.0,0.0,2.0961,1.9854,1.9854,2.0284,2.0605,0.0,0.0,0.0,0.0,0.0,0.0,0.0,0.0,0.0,1.9893,1.9854,1.9696,1.9301,1.9301,1.9301,1.9301,1.9301,1.9301,1.9222,1.7277,1.6134,1.5703,1.6216,1.5233,1.3349,1.387,1.4088,1.4088,0.0,0.0,0.0,0.0,0.0,1.4088,1.4088,0.0,0.0,0.0,0.0,0.0,0.0,0.0,0.0,0.0,0.0,0.0,0.0,0.0,0.0,0.0,0.0,0.0,0.0,0.0,0.0,0.0,0.0,0.0,0.0,0.0,0.0,0.0,0.0,0.0,0.0,0.0,0.0,0.0,0.0,0.0,0.0,0.0,0.0,0.0,0.0,0.0,0.0,0.0,0.0,0.0,0.0,0.0,0.0,0.0,0.0,0.0,0.0,0.0,0.0,0.0,0.0,0.0,0.0,0.0,0.0,0.0,0.0,0.0,0.0,0.0,0.0,0.0,0.0,0.0,0.0,0.0,0.0,1.9618,1.9539,1.9341,2.005,2.0605,0.0,0.0,0.0,0.0,0.0,0.0,2.0284,2.0284,1.9971,1.9301,1.9705,1.9925,1.9925,1.9925,1.9802,1.9556,1.9556,1.9556,1.9556,1.9556,1.9185,1.8614,1.9268,1.7803,1.4974,1.4365,1.4088,1.4088,1.4088,1.4088,0.0,1.4088,1.4088,1.4088,1.4088,1.4088,1.4088,1.4088,0.0,1.4088,1.4088,0.0,0.0,0.0,0.0,1.4088,1.4088,0.0,0.0,0.0,0.0,0.0,0.0,0.0,0.0,0.0,0.0,0.0,0.0,0.0,0.0,0.0,0.0,0.0,0.0,0.0,0.0,0.0,0.0,0.0,0.0,0.0,0.0,0.0,0.0,0.0,0.0,0.0,0.0,0.0,0.0,0.0,0.0,0.0,0.0,0.0,0.0,0.0,0.0,0.0,0.0,0.0,0.0,0.0,0.0,0.0,0.0,0.0,0.0,0.0,0.0,0.0,0.0,0.0,0.0,0.0,0.0,0.0,0.0,1.9381,2.005,0.0,0.0,0.0,0.0,2.0605,2.0605,2.0245,1.942,1.9381,1.9341,1.9301,2.0763,2.1568,2.1568,2.1568,2.1123,2.0262,2.0262,2.0262,2.0262,2.0262,2.0226,2.018,2.0217,2.0622,2.09,1.607,1.4088,1.4088,1.4088,1.4088,1.4088,1.4088,1.4088,1.4088,1.4088,1.4088,1.4088,1.4088,1.4088,1.4088,1.4088,1.4088,0.0,0.0,1.4088,1.4088,1.4088,0.7081,0.0,0.0,0.0,0.0,0.0,0.0,0.0,0.0,0.0,0.0,0.0,0.0,0.0,0.0,0.0,0.0,0.0,0.0,0.0,0.0,0.0,0.0,0.0,0.0,0.0,0.0,0.0,0.0,0.0,0.0,0.0,0.0,0.0,0.0,0.0,0.0,0.0,0.0,0.0,0.0,0.0,0.0,0.0,0.0,0.0,0.0,0.0,0.0,0.0,0.0,0.0,0.0,0.0,0.0,0.0,0.0,0.0,0.0,0.0,0.0,0.0,1.942,2.005,0.0,0.0,2.0089,2.0176,2.1212,2.1296,2.1169,2.0869,2.0827,2.0827,2.0827,2.1394,2.1419,2.0789,2.0789,2.0654,2.0292,2.0292,2.0292,2.0292,2.0292,2.0292,2.0292,2.0292,2.0473,2.0466,1.6032,1.4243,1.4243,1.4243,1.461,1.5211,1.5211,1.5211,1.5097,1.4349,1.4088,1.4088,1.4088,1.4088,1.4088,1.4088,1.4088,1.4088,1.4088,1.4088,1.4088,1.4088,0.7081,0.0,0.0,0.0,0.0,0.0,0.0,0.0,0.0,0.0,0.0,0.0,0.0,0.0,0.0,0.0,0.0,0.0,0.0,0.0,0.0,0.0,0.0,0.0,0.0,0.0,0.0,0.0,0.0,0.0,0.0,0.0,0.0,0.0,0.0,0.0,0.0,0.0,0.0,0.0,0.0,0.0,0.0,0.0,0.0,0.0,0.0,0.0,0.0,0.0,0.0,0.0,0.0,0.0,0.0,0.0,0.0,0.0,0.0,0.0,0.0,1.9932,1.9381,2.0273,2.0988,2.0988,2.0456,2.0525,2.1614,2.1696,2.1696,2.1696,2.2254,2.2362,2.2037,2.199,2.171,2.1101,2.1101,2.1101,2.1101,2.1101,2.0865,2.0479,2.0479,2.0715,2.1101,2.1101,2.1101,2.0857,1.8182,1.7114,1.6926,1.5053,1.4729,1.5302,1.5302,1.5302,1.5192,1.445,1.4185,1.4185,1.4185,1.4405,1.4676,1.4676,1.4676,1.4676,1.4676,1.4676,1.4676,1.4676,1.0033,0.4429,0.0846,0.0,0.0,0.0,0.0,0.0,0.0,0.0,0.0,0.0,0.0,0.0,0.0,0.0,0.0,0.0,0.0,0.0,0.0,0.0,0.0,0.0,0.0,0.0,0.0,0.0,0.0,0.0,0.0,0.0,0.0,0.0,0.0,0.0,0.0,0.0,0.0,0.0,0.0,0.0,0.0,0.0,0.0,0.0,0.0,0.0,0.0,0.0,0.0,0.0,0.0,0.0,0.0,0.0,0.0,0.0,0.0,2.0566,1.9861,1.9375,1.9375,2.0726,2.1696,2.1696,2.1742,2.1769,2.1769,2.1769,2.1724,2.1724,2.3251,2.3646,2.2644,2.2594,2.2594,2.2594,2.2594,2.2594,2.2544,2.2544,2.1987,2.0925,2.0925,2.1479,2.2544,2.2544,2.2544,2.2544,2.2544,2.2544,2.2038,1.6634,1.4485,1.4346,1.4346,1.4346,1.434,1.431,1.4298,1.4298,1.4298,1.4968,1.5737,1.5737,1.5737,1.5737,1.5737,1.5784,1.5784,1.5784,1.5784,1.3114,0.2517,0.0,0.0,0.0,0.0,0.0,0.0,0.0,0.0,0.0,0.0,0.0,0.0,0.0,0.0,0.0,0.0,0.0,0.0,0.0,0.0,0.0,0.0,0.0,0.0,0.0,0.0,0.0,0.0,0.0,0.0,0.0,0.0,0.0,0.0,0.0,0.0,0.0,0.0,0.0,0.0,0.0,0.0,0.0,0.0,0.0,0.0,0.0,0.0,0.0,0.0,0.0,0.0,0.0,0.0,0.0,1.9657,1.9657,2.0444,2.1028,2.1028,2.1421,2.1696,2.1696,2.2804,2.3483,2.3483,2.2806,2.2367,2.2367,2.2769,2.2896,2.2603,2.2594,2.2594,2.2594,2.2594,2.219,2.1377,2.1377,2.1173,2.0925,2.0925,2.107,2.1377,2.1377,2.1377,2.1377,2.1377,2.1377,2.1285,2.0564,1.8333,1.5451,1.5451,1.5451,1.5342,1.4564,1.4298,1.4298,1.4298,1.449,1.4729,1.4729,1.4729,1.4729,1.4729,1.5255,1.5784,1.5784,1.5784,1.3114,0.2517,0.0,0.0,0.0,0.0,0.0,0.0,0.0,0.0,0.0,0.0,0.0,0.0,0.0,0.0,0.0,0.0,0.0,0.0,0.0,0.0,0.0,0.0,0.0,0.0,0.0,0.0,0.0,0.0,0.0,0.0,0.0,0.0,0.0,0.0,0.0,0.0,0.0,0.0,0.0,0.0,0.0,0.0,0.0,0.0,0.0,0.0,0.0,0.0,0.0,0.0,0.0,0.0,0.0,0.0,2.0652,2.0319,2.0319,2.1092,2.1696,2.1696,2.1914,2.2084,2.2084,2.2961,2.3555,2.3555,2.2946,2.2594,2.2594,2.2594,2.2594,2.2594,2.2594,2.2639,2.2747,2.2747,2.2437,2.1798,2.1798,2.1798,2.1798,2.1798,2.1798,0.0,2.0659,2.0248,2.0248,2.0248,2.0248,0.0,0.0,0.0,0.0,0.0,1.6776,1.5115,1.447,1.4565,1.5357,1.7688,1.8469,1.803,1.5694,1.4962,1.5062,1.5563,1.6112,1.656,1.656,1.6199,1.3114,0.2517,0.0,0.0,0.0,0.0,0.0,0.0,0.0,0.0,0.0,0.0,0.0,0.0,0.0,0.0,0.0,0.0,0.0,0.0,0.0,0.0,0.0,0.0,0.0,0.0,0.0,0.0,0.0,0.0,0.0,0.0,0.0,0.0,0.0,0.0,0.0,0.0,0.0,0.0,0.0,0.0,0.0,0.0,0.0,0.0,0.0,0.0,0.0,0.0,0.0,0.0,0.0,0.0,0.0,0.0,2.1696,2.176,2.1943,2.1871,2.178,2.178,2.2263,2.2594,2.2594,2.2594,2.2552,2.2392,2.2706,2.2851,2.2851,0.0,0.0,0.0,0.0,2.2759,2.3006,2.2845,2.2788,2.2788,2.2788,2.2788,2.2788,2.2788,2.2702,2.2433,2.0249,1.9279,1.9279,1.9279,1.9279,1.9376,2.0359,2.0771,2.0814,2.0344,1.7615,0.0,0.0,0.0,0.0,2.1617,2.327,2.2341,1.7391,1.5891,1.6105,1.7107,1.7477,1.7582,1.7582,1.6807,1.332,0.2544,0.0,0.0,0.0,0.0,0.0,0.0,0.0,0.0,0.0,0.0,0.0,0.0,0.0,0.0,0.0,0.0,0.0,0.0,0.0,0.0,0.0,0.0,0.0,0.0,0.0,0.0,0.0,0.0,0.0,0.0,0.0,0.0,0.0,0.0,0.0,0.0,0.0,0.0,0.0,0.0,0.0,0.0,0.0,0.0,0.0,0.0,0.0,0.0,0.0,0.0,0.0,0.0,0.0,2.1943,2.1696,2.219,2.3549,2.2944,2.2452,2.2452,2.2514,2.2594,2.2594,2.2594,2.2241,2.1275,2.3204,2.4376,2.4376,2.3437,0.0,2.2941,2.2941,2.2958,2.3014,2.2059,2.1554,2.1554,0.0,0.0,2.1554,2.1554,2.0966,2.0001,1.9493,1.9279,1.9279,1.9279,1.9279,1.9324,1.9532,2.0153,2.0447,1.6823,1.4934,1.4196,1.4196,1.4353,1.488,1.6869,1.7496,1.7285,1.6252,1.5891,0.0,1.6158,1.6895,1.7582,1.7582,1.7415,1.4329,0.2752,0.0,0.0,0.0,0.0,0.0,0.0,0.0,0.0,0.0,0.0,0.0,0.0,0.0,0.0,0.0,0.0,0.0,0.0,0.0,0.0,0.0,0.0,0.0,0.0,0.0,0.0,0.0,0.0,0.0,0.0,0.0,0.0,0.0,0.0,0.0,0.0,0.0,0.0,0.0,0.0,0.0,0.0,0.0,0.0,0.0,0.0,0.0,0.0,0.0,2.4451,0.0,0.0,2.3063,2.2954,2.2942,2.3083,2.334,2.2946,2.2594,2.2594,2.2594,2.2392,2.1784,2.2394,2.2556,2.1965,2.2617,2.3239,2.3857,2.3352,2.2732,2.2116,2.2116,2.2116,2.2116,2.1497,2.1211,2.1211,2.1211,2.1211,2.1153,2.0572,1.9948,1.9367,1.9367,1.9334,1.9279,1.9279,1.9279,1.9279,1.9279,1.9635,1.9835,1.7575,1.6736,1.6842,1.7351,1.7562,1.7667,1.8244,1.8812,1.8857,1.6571,1.5891,1.5891,1.5891,1.6311,1.6895,1.7477,1.7582,1.4609,0.2806,0.0,0.0,0.0,0.0,0.0,0.0,0.0,0.0,0.0,0.0,0.0,0.0,0.0,0.0,0.0,0.0,0.0,0.0,0.0,0.0,0.0,0.0,0.0,0.0,0.0,0.0,0.0,0.0,0.0,0.0,0.0,0.0,0.0,0.0,0.0,0.0,0.0,0.0,0.0,0.0,0.0,0.0,0.0,0.0,0.0,0.0,2.1104,2.1104,2.2,2.2838,2.2838,2.3098,2.3507,2.4079,2.4202,2.3854,2.2745,2.2392,2.2452,2.2954,2.304,2.2568,2.1434,2.2355,2.2901,2.2675,2.1774,2.1603,2.2619,2.2619,2.2222,2.1211,2.1211,2.1211,2.1211,2.1211,2.1211,2.1211,2.0981,2.0867,2.0809,1.9829,1.9424,1.9424,1.9424,1.925,1.8959,1.8959,1.8959,1.8959,1.8959,1.9116,1.9279,1.9279,1.9279,1.9435,2.0308,2.0617,2.057,2.0296,2.1301,2.192,1.8283,1.7193,1.7035,1.6152,1.5891,1.6152,1.7318,1.7582,1.5184,0.5678,0.1663,0.0,0.0,0.0,0.0,0.0,0.0,0.0,0.0,0.0,0.0,0.0,0.0,0.0,0.0,0.0,0.0,0.0,0.0,0.0,0.0,0.0,0.0,0.0,0.0,0.0,0.0,0.0,0.0,0.0,0.0,0.0,0.0,0.0,0.0,0.0,0.0,0.0,2.0605,2.0605,2.0605,2.0605,2.0605,2.0605,0.0,0.0,2.2808,2.2808,2.2309,2.1865,2.1865,2.3046,2.4088,2.4174,2.4202,2.3854,2.2745,2.1733,2.196,2.4292,2.4564,2.406,2.2895,2.2919,2.2562,2.1489,2.1268,2.1268,2.1375,2.1375,2.1325,2.1211,2.1211,2.1211,2.1211,2.1211,2.1211,2.1211,2.0118,1.9597,1.9597,1.9482,1.9424,1.9424,1.9424,1.8803,1.7793,1.7793,1.7793,1.7793,1.7793,1.8429,1.9279,1.9279,1.9279,1.9324,1.9428,1.948,1.9287,1.8071,1.9933,2.2493,2.2021,2.1869,2.1038,1.7035,1.5891,1.6152,1.7318,1.7582,1.7248,1.5932,0.7622,0.0,0.0,0.0,0.0,0.0,0.0,0.0,0.0,0.0,0.0,0.0,0.0,0.0,0.0,0.0,0.0,0.0,0.0,0.0,0.0,0.0,0.0,0.0,0.0,0.0,0.0,0.0,0.0,0.0,0.0,0.0,0.0,0.0,0.0,0.0,0.0,0.0,2.0605,2.0605,2.0605,0.0,2.1318,2.206,2.206,2.2617,2.2969,2.2397,2.1954,2.198,2.2969,2.3742,2.4202,0.0,2.4202,2.3854,2.2745,2.294,2.357,2.4689,2.4821,2.4312,2.3127,2.3014,2.2505,2.1268,2.1211,2.1211,2.1211,2.0522,2.0457,2.1153,2.1211,2.0867,2.0169,2.0176,2.0176,2.0176,1.9655,1.9424,1.9424,1.9424,1.9017,1.8305,1.8305,1.8039,1.749,1.6848,1.663,1.6683,1.7318,1.7898,1.8377,1.9063,1.9279,1.922,1.8534,1.8743,1.9184,1.8642,1.9484,2.0909,2.219,2.2594,2.2333,2.1057,2.0743,2.0231,1.8146,1.7582,1.7582,1.7582,0.8577,0.0,0.0,0.0,0.0,0.0,0.0,0.0,0.0,0.0,0.0,0.0,0.0,0.0,0.0,0.0,0.0,0.0,0.0,0.0,0.0,0.0,0.0,0.0,0.0,0.0,0.0,0.0,0.0,0.0,0.0,0.0,0.0,0.0,0.0,0.0,0.0,0.0,2.1143,0.0,0.0,2.0938,2.2007,2.2696,2.2696,2.2696,2.2653,2.2446,2.2401,2.2758,2.399,2.4202,2.4202,2.4202,2.4202,2.3958,2.3324,2.4127,2.4821,2.4821,2.4821,2.42,2.2675,2.2505,2.2108,2.1268,2.1211,2.1039,2.0694,1.9887,1.9829,2.0694,2.0687,2.0291,1.9424,1.9424,1.9424,1.9424,1.9424,1.9424,1.9366,1.901,1.8363,1.7485,1.7132,1.6956,1.6897,1.6142,1.5831,1.5998,1.6789,1.7107,1.7213,1.8062,1.8377,1.8272,1.7793,1.8325,1.9279,1.9279,1.9279,1.9807,2.242,2.3229,2.3427,2.4566,2.4551,2.3479,2.0246,1.9428,1.9124,1.7891,0.8577,0.0,0.0,0.0,0.0,0.0,0.0,0.0,0.0,0.0,0.0,0.0,0.0,0.0,0.0,0.0,0.0,0.0,0.0,0.0,0.0,0.0,0.0,0.0,0.0,0.0,0.0,0.0,0.0,0.0,0.0,0.0,0.0,0.0,0.0,0.0,0.0,0.0,2.2565,1.9558,1.7098,2.1834,2.2403,2.1741,2.1741,2.1741,2.2181,2.3806,2.4128,2.4146,2.4192,2.4202,2.4202,2.4202,2.4202,2.4347,2.4703,2.4795,2.4821,2.4821,2.4821,2.3865,0.0,2.1268,2.1268,2.1211,2.1211,2.0694,1.954,1.9424,1.9424,1.9424,1.9424,1.943,1.9424,1.9424,1.9424,1.9424,1.9424,1.9424,1.9366,1.8129,1.7543,1.742,1.6188,1.5655,1.5655,1.5623,1.5693,1.5891,1.5945,1.5945,1.5945,1.5998,1.5992,1.6152,1.7213,1.8325,1.9279,1.9279,1.9279,1.9979,2.3645,2.4753,2.4974,2.6182,2.5372,2.4152,2.4044,2.3994,2.292,1.861,0.8577,0.0,0.0,0.0,0.0,0.0,0.0,0.0,0.0,0.0,0.0,0.0,0.0,0.0,0.0,0.0,0.0,0.0,0.0,0.0,0.0,0.0,0.0,0.0,0.0,0.0,0.0,0.0,0.0,0.0,0.0,0.0,0.0,0.0,0.0,0.0,0.0,0.0,2.2935,1.9526,1.6842,2.1114,2.1909,2.1696,2.1696,2.2566,2.354,2.4091,2.4745,2.5196,2.5196,2.4646,2.4202,2.4202,2.4202,2.4619,2.5811,2.598,2.598,2.598,2.4582,0.0,0.0,0.0,0.0,2.1211,2.0464,1.9829,1.9424,1.9424,1.9424,1.9424,1.9424,1.9424,1.9424,1.9424,1.8952,1.8129,1.8129,1.8129,1.8071,1.6832,1.6248,1.6248,1.5774,1.5601,1.5601,1.5601,1.5642,1.5681,1.5843,1.5464,1.4886,1.5624,1.5891,1.6045,1.7213,1.7845,1.8325,1.9063,1.9279,1.9829,2.2751,2.3632,2.4024,2.6035,2.6188,2.5571,2.4486,2.4202,2.3994,2.3194,1.1212,0.0,0.0,0.0,0.0,0.0,0.0,0.0,0.0,0.0,0.0,0.0,0.0,0.0,0.0,0.0,0.0,0.0,0.0,0.0,0.0,0.0,0.0,0.0,0.0,0.0,0.0,0.0,0.0,0.0,0.0,0.0,0.0,0.0,0.0,0.0,0.0,0.0,2.0486,1.8203,1.6756,2.0718,2.2171,2.2602,2.2602,2.3409,2.4202,2.4202,2.499,2.5693,2.5693,2.5196,2.4597,2.4251,2.4202,2.4771,2.6362,2.6591,2.6427,2.598,2.4192,2.2683,0.0,0.0,0.0,2.1211,2.0464,1.9829,1.9424,1.9424,1.9424,1.9424,1.9424,1.9424,1.9424,1.9424,1.8538,1.6832,1.6832,1.6832,1.6773,1.5952,1.5601,1.5601,1.5601,1.5601,1.5601,1.5601,1.5601,1.5596,1.5252,1.4751,1.4353,1.5464,1.5891,1.5992,1.6736,1.7265,1.7793,1.8907,1.9279,1.9776,2.226,2.3014,2.3296,2.4859,2.5916,2.6344,2.535,2.4643,2.4449,2.544,1.7233,0.7496,0.1326,0.0,0.0,0.0,0.0,0.0,0.0,0.0,0.0,0.0,0.0,0.0,0.0,0.0,0.0,0.0,0.0,0.0,0.0,0.0,0.0,0.0,0.0,0.0,0.0,0.0,0.0,0.0,0.0,0.0,0.0,0.0,0.0,0.0,0.0,0.0,1.5784,1.5784,1.677,2.0823,2.3015,2.4202,2.4202,2.4202,2.4202,2.4251,2.5039,2.5693,2.5693,2.5693,2.5391,2.4449,2.4301,2.4822,2.647,2.6646,2.6199,0.0,0.0,0.0,0.0,0.0,0.0,2.1211,0.0,2.0687,1.954,1.9482,1.9482,1.9424,1.9424,1.9424,1.9424,1.9249,1.8012,1.5601,1.5601,1.5601,1.5601,1.5601,1.5601,1.5601,1.5542,1.5483,1.5483,1.5483,1.5483,1.5359,1.4167,1.3956,1.4418,1.5434,1.5838,1.5891,1.5891,1.663,1.7793,1.8907,1.9279,1.9776,2.226,2.3014,2.3014,2.3014,2.4684,2.6537,2.6591,2.5433,2.4449,2.5391,2.5635,2.0976,0.3723,0.0,0.0,0.0,0.0,0.0,0.0,0.0,0.0,0.0,0.0,0.0,0.0,0.0,0.0,0.0,0.0,0.0,0.0,0.0,0.0,0.0,0.0,0.0,0.0,0.0,0.0,0.0,0.0,0.0,0.0,0.0,0.0,0.0,0.0,0.0,1.5784,1.5784,1.707,2.225,2.3898,2.4202,2.4202,2.4202,2.4399,2.5147,2.5538,2.5693,2.5693,2.5693,2.5635,2.5342,2.5342,0.0,2.7631,2.7126,0.0,2.6199,0.0,2.4368,2.4368,2.3239,0.0,0.0,2.1211,2.1096,2.0752,2.0752,2.0349,1.9424,1.9424,1.9424,1.9424,1.7537,1.6248,1.5601,1.5601,1.5601,1.5601,1.5601,1.5601,1.5537,1.4585,1.4167,1.4167,1.4167,1.4167,1.4167,1.3808,1.4326,1.5212,1.4779,1.5148,1.5891,1.5891,1.663,1.7793,1.8907,1.9279,1.9776,2.226,2.3014,2.3014,2.3014,2.408,2.5485,2.6373,2.5433,2.4251,2.4498,2.5147,2.0976,0.3723,0.0,0.0,0.0,0.0,0.0,0.0,0.0,0.0,0.0,0.0,0.0,0.0,0.0,0.0,0.0,0.0,0.0,0.0,0.0,0.0,0.0,0.0,0.0,0.0,0.0,0.0,0.0,0.0,0.0,0.0,0.0,0.0,0.0,0.0,0.0,1.5784,1.6206,1.7241,1.9885,2.0955,2.1937,2.4332,2.4843,2.5039,2.5586,2.5693,2.5693,2.5693,2.5693,2.5538,0.0,0.0,0.0,2.7311,2.7017,2.6418,0.0,2.5209,0.0,2.4821,2.3697,2.2732,0.0,2.1497,2.1211,2.1211,2.1211,2.0867,2.0226,2.0176,1.941,1.7778,1.6301,1.5601,1.5601,1.5601,1.5299,1.4764,1.4764,1.4764,1.4704,0.0,1.3688,1.3688,1.3688,1.3688,1.3688,1.3688,1.4167,1.4716,1.432,1.4939,1.5891,1.5891,1.663,1.7793,1.8907,1.9279,1.9568,2.0948,2.2142,2.3014,2.3014,2.3857,2.5098,2.6318,2.5433,2.4202,2.4202,2.4941,2.0976,0.3723,0.0,0.0,0.0,0.0,0.0,0.0,0.0,0.0,0.0,0.0,0.0,0.0,0.0,0.0,0.0,0.0,0.0,0.0,0.0,0.0,0.0,0.0,0.0,0.0,0.0,0.0,0.0,0.0,0.0,0.0,0.0,0.0,0.0,0.0,0.0,1.5784,1.6587,1.716,1.6152,1.6736,1.9013,2.4461,2.5693,2.5693,2.5693,0.0,2.5693,2.5693,2.5693,2.5391,2.4548,0.0,2.4698,2.6068,2.6454,2.6199,2.5154,2.4876,2.4821,2.4821,2.3857,2.3239,2.3239,2.2116,2.1375,2.1211,2.1211,2.1031,2.0744,2.0687,1.9165,1.5893,1.5537,1.5359,1.5359,1.5359,1.4764,1.3688,1.3688,1.3688,1.3688,0.0,0.0,1.3688,1.3509,1.3569,1.3688,1.3688,1.3688,1.3777,1.4234,1.5053,1.5891,1.5891,1.663,1.7793,1.8907,1.9279,1.9279,1.9279,2.104,2.3014,2.3014,2.3857,2.5043,2.609,2.5163,2.4003,2.4152,2.4892,2.0807,0.3695,0.0,0.0,0.0,0.0,0.0,0.0,0.0,0.0,0.0,0.0,0.0,0.0,0.0,0.0,0.0,0.0,0.0,0.0,0.0,0.0,0.0,0.0,0.0,0.0,0.0,0.0,0.0,0.0,0.0,0.0,0.0,0.0,0.0,0.0,0.0,1.5784,1.5985,1.6152,1.5945,1.6736,1.9013,2.4461,2.5693,0.0,0.0,2.5693,2.5693,2.5693,2.5693,2.5635,2.5489,2.4745,2.4303,2.4587,2.5738,2.6537,0.0,2.543,2.4821,0.0,0.0,0.0,0.0,0.0,0.0,2.1268,2.1211,2.0277,1.8181,1.8123,1.783,1.7185,1.5056,1.4047,1.4047,1.4047,1.3928,1.3688,1.3688,1.3688,1.3688,0.0,0.0,1.3629,1.2552,1.2733,1.3688,1.3688,1.3688,1.3849,1.4943,1.5586,1.5891,1.5891,1.663,1.7793,1.8907,1.9279,1.9279,1.9279,2.104,2.3014,2.3014,2.3857,2.4821,2.5043,2.4,2.3097,2.4003,2.435,1.9956,0.3536,0.0,0.0,0.0,0.0,0.0,0.0,0.0,0.0,0.0,0.0,0.0,0.0,0.0,0.0,0.0,0.0,0.0,0.0,0.0,0.0,0.0,0.0,0.0,0.0,0.0,0.0,0.0,0.0,0.0,0.0,0.0,0.0,0.0,0.0,0.0,1.5159,1.5066,1.5191,1.5753,1.6736,1.9013,2.4461,0.0,0.0,0.0,2.4339,2.4339,2.4339,2.5079,0.0,2.5693,2.5294,2.4794,2.4251,2.5617,0.0,2.6591,2.554,2.4821,0.0,0.0,0.0,0.0,0.0,0.0,2.223,2.0974,1.9707,1.8538,1.8486,1.7537,1.5526,1.4282,1.3688,1.3688,1.3033,1.3033,1.3688,1.3688,1.3333,1.2733,0.0,0.0,1.2672,1.2074,1.2139,1.2793,1.3449,1.3688,1.3868,1.5121,1.5733,1.5891,1.5891,1.6258,1.6895,1.8055,1.8803,1.9279,1.9279,2.104,2.3014,2.3014,2.3408,2.4033,2.4654,2.3691,2.2846,2.3954,1.7752,0.9473,0.1681,0.0,0.0,0.0,0.0,0.0,0.0,0.0,0.0,0.0,0.0,0.0,0.0,0.0,0.0,0.0,0.0,0.0,0.0,0.0,0.0,0.0,0.0,0.0,0.0,0.0,0.0,0.0,0.0,0.0,0.0,0.0,0.0,0.0,0.0,0.0,1.4825,1.4442,1.4546,1.5593,1.6536,1.8607,2.3931,2.5138,0.0,2.3374,2.3091,2.3091,2.3091,2.4212,2.5255,0.0,2.5693,2.544,2.4646,2.5408,2.6197,0.0,2.576,0.0,0.0,0.0,0.0,0.0,0.0,0.0,0.0,2.045,1.9424,1.9424,1.8596,1.6762,1.3748,1.3688,1.3569,1.3269,1.2255,1.2191,1.2844,1.3149,1.2733,1.1776,0.0,0.0,0.0,1.1349,1.153,1.1957,1.3209,1.3688,1.3868,1.5121,1.5697,1.5818,1.5916,1.5891,1.6099,1.7213,1.8377,1.9279,1.9279,2.104,2.3014,2.3014,2.3014,2.3296,2.4479,2.3691,2.2846,2.3954,1.4462,0.4236,0.0753,0.0,0.0,0.0,0.0,0.0,0.0,0.0,0.0,0.0,0.0,0.0,0.0,0.0,0.0,0.0,0.0,0.0,0.0,0.0,0.0,0.0,0.0,0.0,0.0,0.0,0.0,0.0,0.0,0.0,0.0,0.0,0.0,0.0,0.0,0.0,1.5689,1.5016,1.4562,1.5582,1.5896,1.7243,2.222,0.0,2.3286,2.313,2.3091,2.3091,2.3091,2.3227,2.3851,2.543,2.5693,2.5693,2.5596,2.4876,2.4973,2.6417,0.0,0.0,0.0,0.0,0.0,0.0,0.0,0.0,0.0,1.954,1.9424,1.9424,1.6053,1.4043,1.3688,1.3688,1.3093,1.1953,1.1837,1.1224,1.0183,1.1405,1.1897,1.1716,0.0,0.0,0.0,1.0004,1.0675,1.1957,1.3209,1.3688,1.3868,1.5121,1.5601,1.5635,1.5842,1.5891,1.6099,1.7213,1.8377,1.9279,1.9279,2.104,2.3014,2.3014,2.3014,2.3296,2.4479,2.3691,2.2846,2.3954,2.3062,1.7935,0.3179,0.0,0.0,0.0,0.0,0.0,0.0,0.0,0.0,0.0,0.0,0.0,0.0,0.0,0.0,0.0,0.0,0.0,0.0,0.0,0.0,0.0,0.0,0.0,0.0,0.0,0.0,0.0,0.0,0.0,0.0,0.0,0.0,0.0,0.0,0.0,1.5784,1.5493,1.5302,1.5683,1.5784,1.6332,1.8249,0.0,2.3091,2.3091,2.3091,2.3091,2.3091,2.3091,2.3325,2.4017,2.5011,0.0,2.5693,2.5342,2.5465,2.6507,0.0,0.0,0.0,0.0,0.0,0.0,0.0,0.0,0.0,2.0464,1.9468,1.7185,1.4878,1.3688,1.3688,1.2913,1.2315,1.1776,1.0982,1.0308,0.9822,1.0372,1.0615,1.0554,0.0,0.0,0.0,0.9822,1.0615,1.1957,1.3209,1.3688,1.3868,1.5121,1.5601,1.5638,1.5822,1.5891,1.6099,1.7213,1.8377,1.9279,1.9279,2.0001,2.107,2.2552,2.3014,2.3296,2.4479,2.4158,2.3646,2.4102,2.4646,2.0488,0.3629,0.0,0.0,0.0,0.0,0.0,0.0,0.0,0.0,0.0,0.0,0.0,0.0,0.0,0.0,0.0,0.0,0.0,0.0,0.0,0.0,0.0,0.0,0.0,0.0,0.0,0.0,0.0,0.0,0.0,0.0,0.0,0.0,0.0,0.0,0.0,1.5784,1.5784,1.5784,1.5784,1.5784,1.6197,0.0,0.0,2.3091,2.3091,2.3091,2.3091,2.3091,2.3091,2.3091,2.3091,2.4553,2.5693,2.5693,2.5693,2.6027,0.0,0.0,0.0,0.0,0.0,0.0,0.0,0.0,0.0,0.0,0.0,1.9113,1.5715,1.4704,1.4107,1.3688,1.2793,1.2195,1.1776,1.0429,0.9822,0.9822,0.9822,0.9576,0.0,0.0,0.0,0.0,0.9822,1.0615,1.1957,1.3209,1.3688,1.3808,1.4704,1.5304,1.5638,1.5822,1.5891,1.6099,1.7213,1.8167,1.8855,1.9227,1.9279,1.9806,2.2292,2.3239,2.3753,2.4599,2.4272,2.3805,2.4102,2.4745,2.0608,0.365,0.0,0.0,0.0,0.0,0.0,0.0,0.0,0.0,0.0,0.0,0.0,0.0,0.0,0.0,0.0,0.0,0.0,0.0,0.0,0.0,0.0,0.0,0.0,0.0,0.0,0.0,0.0,0.0,0.0,0.0,0.0,0.0,0.0,0.0,0.0,1.5784,1.5784,1.5784,1.5784,1.5784,1.7063,0.0,2.3047,2.3091,2.3091,2.3091,2.3091,2.3091,2.3091,2.3091,2.3091,2.4553,2.5693,2.5693,2.5693,0.0,0.0,0.0,0.0,0.0,0.0,0.0,0.0,0.0,0.0,0.0,0.0,1.8246,1.5655,1.5596,1.4942,1.3688,1.3688,1.3033,1.1776,1.0429,0.9822,0.9822,0.9822,0.0,0.0,0.0,0.0,0.0,0.9822,1.0615,1.1957,1.3209,1.3688,1.3688,1.3688,1.4525,1.5638,1.5822,1.5891,1.6099,1.7213,1.7635,1.7845,1.8959,1.9279,1.9806,2.2292,2.3865,2.4765,2.4821,2.3691,2.2896,2.3954,2.4202,1.9755,0.3501,0.0,0.0,0.0,0.0,0.0,0.0,0.0,0.0,0.0,0.0,0.0,0.0,0.0,0.0,0.0,0.0,0.0,0.0,0.0,0.0,0.0,0.0,0.0,0.0,0.0,0.0,0.0,0.0,0.0,0.0,0.0,0.0,0.0,0.0,0.0,1.5784,1.5784,1.5784,1.5784,1.5784,1.7063,2.1996,2.3091,2.3091,2.3091,2.3091,2.3091,2.3091,2.3091,2.3091,2.3091,2.4553,0.0,0.0,0.0,0.0,0.0,0.0,0.0,0.0,0.0,0.0,0.0,0.0,0.0,0.0,0.0,1.988,1.8246,1.7367,1.6301,1.5002,1.5002,1.4346,1.3093,1.2664,1.2001,1.1163,1.0247,0.0,0.0,0.0,0.0,0.0,0.9822,1.0615,1.1957,1.3209,1.3688,1.3688,1.3688,1.4525,1.5638,1.5822,1.5891,1.5945,1.6311,1.6948,1.7793,1.8959,1.9279,1.9806,2.2292,2.3857,2.4821,2.4821,2.3691,2.2846,2.3954,2.4202,1.9755,0.3501,0.0,0.0,0.0,0.0,0.0,0.0,0.0,0.0,0.0,0.0,0.0,0.0,0.0,0.0,0.0,0.0,0.0,0.0,0.0,0.0,0.0,0.0,0.0,0.0,0.0,0.0,0.0,0.0,0.0,0.0,0.0,0.0,0.0,0.0,0.0,1.561,1.6839,1.8572,1.8572,1.8572,0.0,2.2403,2.3091,2.3091,2.3091,2.3091,2.3091,2.3091,2.3091,2.3091,2.3091,2.4553,0.0,0.0,0.0,0.0,0.0,0.0,0.0,0.0,0.0,0.0,0.0,0.0,0.0,0.0,0.0,1.9938,1.8719,1.8363,1.7837,1.7067,1.6543,1.565,1.4406,1.4406,1.3748,1.2496,0.0,0.0,0.0,0.0,0.0,0.0,0.9822,1.0615,1.1897,1.2672,1.3269,1.3688,1.3688,1.4525,1.5809,1.7274,1.7779,1.7877,1.829,1.9161,2.0305,2.1387,2.1214,2.1032,2.2544,2.352,2.42,2.471,2.4119,2.3574,2.4099,2.4202,2.1436,1.1311,0.4318,0.0,0.0,0.0,0.0,0.0,0.0,0.0,0.0,0.0,0.0,0.0,0.0,0.0,0.0,0.0,0.0,0.0,0.0,0.0,0.0,0.0,0.0,0.0,0.0,0.0,0.0,0.0,0.0,0.0,0.0,0.0,0.0,0.0,0.0,0.0,1.8734,2.3091,2.3091,2.3091,2.3091,2.3091,2.3091,0.0,2.3091,2.3091,2.3091,2.3091,2.3091,2.3091,2.3091,2.4553,0.0,0.0,0.0,0.0,0.0,0.0,0.0,0.0,0.0,0.0,0.0,0.0,0.0,0.0,0.0,0.0,1.7426,1.8486,1.9133,1.9133,1.7895,1.6661,1.5483,1.5359,1.4644,1.3449,0.0,0.0,0.0,0.0,0.0,0.0,0.9822,1.0554,1.1655,1.1776,1.2556,1.3688,1.3688,1.454,1.6234,1.9599,2.0822,2.107,2.2241,2.3347,2.4399,2.5391,2.46,2.3302,2.3302,2.3151,2.3296,2.4479,2.4821,2.4735,2.443,2.4376,2.4376,2.4476,1.1588,0.0,0.0,0.0,0.0,0.0,0.0,0.0,0.0,0.0,0.0,0.0,0.0,0.0,0.0,0.0,0.0,0.0,0.0,0.0,0.0,0.0,0.0,0.0,0.0,0.0,0.0,0.0,0.0,0.0,0.0,0.0,0.0,0.0,0.0,1.9353,0.0,2.3091,2.3091,2.3091,2.3091,0.0,2.3091,2.3091,2.3091,2.3091,2.3091,2.3091,2.3091,2.3091,2.3091,0.0,0.0,0.0,0.0,0.0,0.0,0.0,0.0,0.0,0.0,0.0,0.0,0.0,0.0,0.0,0.0,0.0,1.607,1.6366,1.6484,1.6484,1.5235,1.4461,1.4107,1.3149,1.2005,1.0728,0.0,0.0,0.0,0.0,0.0,0.0,0.9822,1.0004,1.0368,1.1409,1.2556,1.3688,1.3688,1.5174,1.7356,1.9105,2.0205,2.107,2.2241,2.3347,2.4399,2.5391,2.5986,2.6279,2.6279,2.4712,2.3296,2.4479,2.4821,2.5012,2.5837,2.6013,2.628,2.7161,1.2932,0.0,0.0,0.0,0.0,0.0,0.0,0.0,0.0,0.0,0.0,0.0,0.0,0.0,0.0,0.0,0.0,0.0,0.0,0.0,0.0,0.0,0.0,0.0,0.0,0.0,0.0,0.0,0.0,0.0,0.0,0.0,0.0,0.0,0.0,2.1533,2.2432,2.3091,2.3091,2.3091,2.3091,2.3091,2.3091,2.3091,2.3091,2.3091,2.3091,2.3091,2.3091,2.3091,0.0,2.4553,0.0,0.0,0.0,0.0,0.0,0.0,0.0,0.0,0.0,0.0,0.0,0.0,0.0,0.0,0.0,0.0,0.0,1.6478,1.5299,1.4704,1.4047,1.3389,1.2793,1.1526,1.0493,0.9758,0.0,0.0,0.0,0.0,0.0,1.0226,1.0226,1.0044,1.0034,1.21,1.3633,1.4763,1.532,1.6368,1.774,1.8907,2.0351,2.1784,2.2392,2.3347,2.4301,2.4852,2.5723,2.6688,2.7167,2.6188,2.4942,2.4844,2.4821,2.4987,2.5595,2.6199,2.6909,2.8023,2.0225,1.041,0.1689,0.0,0.0,0.0,0.0,0.0,0.0,0.0,0.0,0.0,0.0,0.0,0.0,0.0,0.0,0.0,0.0,0.0,0.0,0.0,0.0,0.0,0.0,0.0,0.0,0.0,0.0,0.0,0.0,0.0,0.0,0.0,0.0,2.2701,2.3091,2.3091,2.3091,2.3091,2.3091,2.3091,2.3091,2.3091,2.3091,2.3091,2.3091,2.3091,2.3091,0.0,0.0,0.0,0.0,0.0,0.0,0.0,0.0,0.0,0.0,0.0,0.0,0.0,0.0,0.0,0.0,0.0,0.0,0.0,0.0,1.8227,1.5941,1.4867,1.4102,1.3033,1.1776,1.0429,0.9822,0.9761,0.848,0.0,0.0,0.0,0.0,1.0293,1.0464,1.0398,1.0461,1.316,1.488,1.5998,1.7001,1.7477,1.7793,1.9108,2.0909,2.2594,2.2594,2.3197,2.4003,2.4152,2.4901,2.5927,2.7023,2.7309,2.7084,2.6114,2.5835,2.567,2.4979,2.5705,2.6854,2.7818,2.8184,2.2685,0.3682,0.0,0.0,0.0,0.0,0.0,0.0,0.0,0.0,0.0,0.0,0.0,0.0,0.0,0.0,0.0,0.0,0.0,0.0,0.0,0.0,0.0,0.0,0.0,0.0,0.0,0.0,0.0,0.0,0.0,0.0,0.0,0.0,2.3023,2.3091,2.3091,2.3091,2.3091,2.3091,2.3091,2.3091,2.3091,2.3091,2.3091,2.3091,2.3091,2.3091,2.3578,0.0,0.0,0.0,0.0,0.0,0.0,0.0,0.0,0.0,0.0,0.0,0.0,0.0,0.0,0.0,0.0,0.0,0.0,0.0,0.0,2.027,2.0033,1.5806,1.3033,1.1776,1.0429,0.9822,0.9761,0.848,0.7872,0.0,0.0,0.0,0.842,0.9503,1.0775,1.2169,1.3643,1.488,1.5945,1.6099,1.6789,1.7898,1.9931,2.153,2.2594,2.2594,2.2695,2.2996,2.3904,2.4901,2.5927,2.7023,2.7309,2.781,2.9979,3.0557,2.9608,2.5725,2.5705,2.6646,2.68,2.7603,2.2685,0.3682,0.0,0.0,0.0,0.0,0.0,0.0,0.0,0.0,0.0,0.0,0.0,0.0,0.0,0.0,0.0,0.0,0.0,0.0,0.0,0.0,0.0,0.0,0.0,0.0,0.0,0.0,0.0,0.0,0.0,0.0,0.0,0.0,2.3091,2.3091,2.3091,2.3091,2.3091,2.3091,2.3091,2.3091,2.3091,2.3091,2.3091,2.3091,2.3091,0.0,2.4758,2.5557,0.0,0.0,0.0,0.0,0.0,0.0,0.0,0.0,0.0,0.0,0.0,0.0,0.0,0.0,0.0,0.0,0.0,0.0,0.0,0.0,1.9229,1.6879,1.511,1.3868,1.2539,1.1937,1.1877,1.0607,0.964,0.0,0.0,0.8541,0.7991,0.9271,1.0806,1.2495,1.3753,1.4515,1.5148,1.6365,1.7529,1.8743,2.0351,2.1632,2.2594,2.2594,2.2594,2.2795,2.3845,2.4901,2.5927,2.7023,2.7309,2.7592,2.8926,3.0443,3.1249,2.9744,2.9807,3.039,3.0927,3.144,2.9246,2.0506,0.8634,0.0,0.0,0.0,0.0,0.0,0.0,0.0,0.0,0.0,0.0,0.0,0.0,0.0,0.0,0.0,0.0,0.0,0.0,0.0,0.0,0.0,0.0,0.0,0.0,0.0,0.0,0.0,0.0,0.0,0.0,0.0,2.3091,2.3091,2.3091,2.3091,2.3091,2.3091,2.3091,2.3091,2.3091,2.3091,2.3091,2.3091,2.3091,2.4514,0.0,2.5693,0.0,0.0,0.0,0.0,0.0,0.0,0.0,0.0,0.0,0.0,0.0,0.0,0.0,0.0,0.0,0.0,0.0,0.0,0.0,0.0,1.7954,1.7661,1.7009,1.6011,1.4764,1.4167,1.4047,1.1881,1.0308,0.9332,0.9332,0.8896,0.8241,0.9489,1.095,1.2495,1.3753,1.4353,1.4832,1.6842,1.8325,1.9428,2.0506,2.1479,2.2241,2.2493,2.2594,2.2795,2.3845,2.4901,2.5878,2.6688,2.7119,2.7309,2.7309,2.9451,3.1834,3.2706,3.3131,3.358,3.458,3.4775,3.4872,3.5114,1.6124,0.0,0.0,0.0,0.0,0.0,0.0,0.0,0.0,0.0,0.0,0.0,0.0,0.0,0.0,0.0,0.0,0.0,0.0,0.0,0.0,0.0,0.0,0.0,0.0,0.0,0.0,0.0,0.0,0.0,0.0,0.0,2.3091,2.3091,2.3091,2.3091,2.3091,2.3091,2.3091,2.3091,2.3091,2.3091,2.3091,2.3091,2.3091,2.4514,0.0,0.0,0.0,0.0,0.0,0.0,0.0,0.0,0.0,0.0,0.0,0.0,0.0,0.0,0.0,0.0,0.0,0.0,0.0,0.0,0.0,0.0,1.9249,1.8071,1.742,1.7367,1.607,1.5483,1.5299,1.0411,0.8113,0.8055,0.8055,0.8331,0.8946,1.016,1.1342,1.2495,1.3753,1.4832,1.5945,1.716,1.8325,1.9428,2.0506,2.0968,2.1173,2.2241,2.2594,2.2795,2.3845,2.4901,2.5742,2.5781,2.6544,2.7309,2.7309,2.9451,3.1629,3.1721,3.2505,3.358,3.458,3.4775,3.5114,3.6073,1.6629,0.0,0.0,0.0,0.0,0.0,0.0,0.0,0.0,0.0,0.0,0.0,0.0,0.0,0.0,0.0,0.0,0.0,0.0,0.0,0.0,0.0,0.0,0.0,0.0,0.0,0.0,0.0,0.0,0.0,0.0,0.0,2.3091,2.3091,2.3091,2.3091,2.3091,2.3091,2.3091,2.3091,2.3091,2.3091,2.3091,2.3422,2.4504,0.0,0.0,0.0,0.0,0.0,0.0,0.0,0.0,0.0,0.0,0.0,0.0,0.0,0.0,0.0,0.0,0.0,0.0,0.0,0.0,0.0,0.0,0.0,0.0,1.6772,1.6489,1.6501,1.6703,1.6366,1.5537,1.3605,1.1555,0.9549,0.8114,0.8848,1.1126,1.1564,1.2001,1.2495,1.3753,1.488,1.6045,1.716,1.8325,1.9376,1.9739,2.0351,2.107,2.2241,2.2594,2.2795,2.3845,2.4449,2.4901,2.5538,2.6448,2.7309,2.7309,2.8107,2.9359,3.1182,3.2454,3.3381,3.3767,3.4347,3.492,3.5307,2.7963,1.7027,0.2498,0.0,0.0,0.0,0.0,0.0,0.0,0.0,0.0,0.0,0.0,0.0,0.0,0.0,0.0,0.0,0.0,0.0,0.0,0.0,0.0,0.0,0.0,0.0,0.0,0.0,0.0,0.0,0.0,0.0,2.3091,2.3091,2.3091,2.3091,2.3091,2.3091,2.3091,2.3091,2.3091,2.3091,2.353,2.428,2.5469,0.0,0.0,0.0,0.0,0.0,0.0,0.0,0.0,0.0,0.0,0.0,0.0,0.0,0.0,0.0,0.0,0.0,0.0,0.0,0.0,0.0,0.0,0.0,0.0,1.5891,1.5891,1.5897,1.6628,1.635,1.5155,1.5552,1.4665,1.2792,1.1561,1.1574,1.2387,1.2387,1.2604,1.3044,1.3867,1.488,1.6045,1.716,1.8115,1.8795,1.9168,1.9998,2.107,2.2241,2.2594,2.2745,2.3447,2.3954,2.4399,2.544,2.6217,2.688,2.7214,2.7309,2.8007,3.0907,3.219,3.2869,3.3231,3.4101,3.4775,3.4775,3.5066,2.7785,0.4084,0.0,0.0,0.0,0.0,0.0,0.0,0.0,0.0,0.0,0.0,0.0,0.0,0.0,0.0,0.0,0.0,0.0,0.0,0.0,0.0,0.0,0.0,0.0,0.0,0.0,0.0,0.0,0.0,0.0,2.3091,2.3091,2.3091,2.3091,2.3091,2.3091,2.3091,2.3091,2.3101,2.312,2.4495,2.5693,2.5693,2.5693,0.0,0.0,0.0,0.0,0.0,0.0,0.0,0.0,0.0,0.0,0.0,0.0,0.0,0.0,0.0,0.0,0.0,0.0,0.0,0.0,0.0,0.0,0.0,1.5891,1.5891,1.5891,1.5891,1.5309,1.4245,1.5416,1.6524,1.7687,1.8795,1.6711,1.2436,1.2436,1.3098,1.4196,1.4196,1.488,1.6045,1.716,1.7582,1.774,1.8907,1.9998,2.107,2.2241,2.2594,2.2594,2.2594,2.3347,2.4399,2.5391,2.5684,2.5927,2.7044,2.733,2.8076,3.0918,3.1618,3.1936,3.3081,3.4101,3.4775,3.4775,3.5692,2.8724,0.4513,0.0151,0.0,0.0,0.0,0.0,0.0,0.0,0.0,0.0,0.0,0.0,0.0,0.0,0.0,0.0,0.0,0.0,0.0,0.0,0.0,0.0,0.0,0.0,0.0,0.0,0.0,0.0,0.0,0.0,2.3091,2.3091,2.3091,2.3091,2.3091,2.3091,2.3091,2.3091,2.3442,2.467,2.5333,2.5693,2.5693,0.0,0.0,0.0,0.0,0.0,0.0,0.0,0.0,0.0,0.0,0.0,0.0,0.0,0.0,0.0,0.0,0.0,0.0,0.0,0.0,0.0,0.0,0.0,0.0,0.0,1.5891,1.5891,1.5891,1.5731,1.541,1.5731,1.6948,1.8795,1.9168,1.8527,1.7087,1.4654,1.3867,1.4196,1.4196,1.488,1.5945,1.6258,1.6895,1.774,1.8907,1.9998,2.107,2.2241,2.2594,2.2594,2.2594,2.3347,2.4251,2.4548,2.5147,2.6398,2.9526,3.0317,3.0518,3.1385,3.219,3.3058,3.415,3.4592,3.4775,3.4775,3.5692,3.4104,2.6851,1.1364,0.0,0.0,0.0,0.0,0.0,0.0,0.0,0.0,0.0,0.0,0.0,0.0,0.0,0.0,0.0,0.0,0.0,0.0,0.0,0.0,0.0,0.0,0.0,0.0,0.0,0.0,0.0,0.0,2.3091,2.3091,2.3091,2.3091,2.3091,2.3091,2.3091,2.3627,2.4324,2.4985,2.544,2.5596,2.5196,0.0,0.0,0.0,0.0,0.0,0.0,0.0,0.0,0.0,0.0,0.0,0.0,0.0,0.0,0.0,0.0,0.0,0.0,0.0,0.0,0.0,0.0,0.0,0.0,0.0,0.0,1.6577,1.6099,1.6158,1.6577,1.6105,1.716,1.9279,1.9279,1.9532,1.9732,1.7259,1.6205,1.6099,1.4724,1.4617,1.5256,1.5731,1.663,1.774,1.8907,1.9998,2.1027,2.1683,2.2241,2.2594,2.2594,2.3646,2.4695,2.4301,2.5226,2.6883,2.9254,3.0748,3.1618,3.1618,3.2454,3.3481,3.4052,3.4543,3.4775,3.4775,3.5307,3.5883,3.631,1.6166,0.0,0.0,0.0,0.0,0.0,0.0,0.0,0.0,0.0,0.0,0.0,0.0,0.0,0.0,0.0,0.0,0.0,0.0,0.0,0.0,0.0,0.0,0.0,0.0,0.0,0.0,0.0,0.0,2.3091,2.3091,2.3091,2.3091,2.3091,2.3091,2.3003,2.4181,2.5102,2.4372,0.0,2.5294,0.0,0.0,0.0,0.0,0.0,0.0,0.0,0.0,0.0,0.0,0.0,0.0,0.0,0.0,0.0,0.0,0.0,0.0,0.0,0.0,0.0,0.0,0.0,0.0,0.0,0.0,0.0,0.0,1.6577,1.6683,1.7898,1.6836,1.7417,1.9331,1.9376,1.9998,2.0822,1.9739,1.9279,1.9011,1.5891,1.4671,1.4778,1.5939,1.6895,1.7793,1.916,2.0248,2.107,2.1173,2.1886,2.2745,2.2745,2.4143,2.5538,2.4695,2.5849,2.7309,2.7309,2.9451,3.1618,3.1618,3.2403,3.3181,3.3281,3.4101,3.4775,3.4775,3.4775,3.5163,3.6216,1.8014,0.2564,0.0339,0.0,0.0,0.0,0.0,0.0,0.0,0.0,0.0,0.0,0.0,0.0,0.0,0.0,0.0,0.0,0.0,0.0,0.0,0.0,0.0,0.0,0.0,0.0,0.0,0.0,0.0,2.3091,2.3091,2.3091,2.3091,2.3091,2.2916,2.2176,2.2277,2.2852,2.3993,2.435,0.0,0.0,0.0,0.0,0.0,0.0,0.0,0.0,0.0,0.0,0.0,0.0,0.0,0.0,0.0,0.0,0.0,0.0,0.0,0.0,0.0,0.0,0.0,0.0,0.0,1.9279,1.9279,1.9168,0.0,1.7793,1.8258,2.0189,1.9923,1.962,1.9331,2.0205,2.0712,2.0822,1.9739,1.9279,1.9227,1.8482,1.822,1.8318,1.9406,1.8885,1.7996,2.0901,2.2038,2.2392,2.3247,2.3646,2.3854,2.3854,2.4695,2.583,2.6438,2.6965,2.7309,2.7309,2.9451,3.1618,3.1618,3.1783,3.219,3.3131,3.4101,3.4775,3.4775,3.4775,3.5163,3.6216,3.2055,2.2074,0.2879,0.0,0.0,0.0,0.0,0.0,0.0,0.0,0.0,0.0,0.0,0.0,0.0,0.0,0.0,0.0,0.0,0.0,0.0,0.0,0.0,0.0,0.0,0.0,0.0,0.0,0.0,2.3091,2.3091,2.3091,2.3091,2.274,2.2309,2.183,2.1696,2.1934,2.2823,2.3659,0.0,0.0,0.0,0.0,0.0,0.0,0.0,0.0,0.0,0.0,0.0,0.0,0.0,0.0,0.0,0.0,0.0,0.0,0.0,0.0,0.0,0.0,0.0,0.0,0.0,1.9279,1.8743,1.8743,1.9331,1.9761,2.0328,2.0925,2.0925,2.0865,2.0858,2.0865,2.0925,2.0763,1.9153,1.8482,1.8534,1.9063,1.9279,1.9428,2.0506,2.0542,2.0218,2.1971,2.2594,2.2795,2.3845,2.4202,2.4202,2.4202,2.4901,2.583,2.6362,2.688,2.7309,2.7309,2.8393,2.9888,3.1247,3.1618,3.1936,3.3069,3.3717,3.42,3.4726,3.4775,3.4969,3.5548,2.6365,1.4657,0.1911,0.0,0.0,0.0,0.0,0.0,0.0,0.0,0.0,0.0,0.0,0.0,0.0,0.0,0.0,0.0,0.0,0.0,0.0,0.0,0.0,0.0,0.0,0.0,0.0,0.0,0.0,2.3091,2.3091,2.3091,2.3091,2.2388,2.1696,2.1696,2.1696,2.1696,2.1696,0.0,0.0,0.0,0.0,0.0,0.0,0.0,0.0,0.0,0.0,0.0,0.0,0.0,0.0,0.0,0.0,0.0,0.0,0.0,0.0,0.0,0.0,0.0,0.0,0.0,1.9887,1.9887,1.8579,1.8377,1.9331,2.1522,2.219,2.1479,2.1275,2.1733,2.2544,2.1377,2.066,2.0189,1.8579,1.7898,1.795,1.8698,1.9116,1.9428,2.0506,2.1479,2.2342,2.2544,2.2594,2.2745,2.3646,2.4053,2.4202,2.4202,2.4794,2.5489,2.5645,2.6448,2.7309,2.7309,2.7309,2.8007,3.0907,3.1618,3.1785,3.2575,3.304,3.3618,3.4592,3.4775,3.4872,3.5017,1.9068,0.4852,0.0629,0.0,0.0,0.0,0.0,0.0,0.0,0.0,0.0,0.0,0.0,0.0,0.0,0.0,0.0,0.0,0.0,0.0,0.0,0.0,0.0,0.0,0.0,0.0,0.0,0.0,0.0,2.3091,2.3091,2.3091,2.3091,2.2388,2.1696,2.1696,0.0,2.1696,0.0,0.0,0.0,0.0,0.0,0.0,0.0,0.0,0.0,0.0,0.0,0.0,0.0,0.0,0.0,0.0,0.0,0.0,0.0,0.0,0.0,0.0,0.0,2.2392,2.2392,2.2241,0.0,2.2139,2.0086,1.9168,1.9331,2.1522,2.2996,2.3746,2.2795,2.2443,2.2544,2.1377,1.9828,1.8108,1.8795,1.9063,1.9011,1.816,1.8429,1.9428,2.0506,2.1019,2.1275,2.2241,2.2594,2.2594,2.2745,2.3447,2.4202,2.4202,2.4301,2.4597,2.544,2.6448,2.7309,2.7309,2.7309,2.8007,3.0907,3.1618,3.1411,3.0775,3.203,3.3618,3.4592,3.4775,3.5114,3.6026,3.3615,2.4362,0.318,0.0,0.0,0.0,0.0,0.0,0.0,0.0,0.0,0.0,0.0,0.0,0.0,0.0,0.0,0.0,0.0,0.0,0.0,0.0,0.0,0.0,0.0,0.0,0.0,0.0,0.0,2.3091,2.2389,2.1699,2.1699,2.2082,2.2476,2.2476,2.2087,2.1696,0.0,0.0,0.0,0.0,0.0,0.0,0.0,0.0,0.0,0.0,0.0,0.0,0.0,0.0,0.0,0.0,0.0,0.0,0.0,0.0,0.0,0.0,2.2594,2.2594,2.2594,2.2594,0.0,2.2594,2.1623,2.1165,2.1165,2.3329,2.4301,2.4152,2.3097,2.2594,2.2493,2.0763,1.9783,1.9517,1.999,1.9472,1.8377,1.8482,1.8855,1.9376,1.9843,2.0359,2.107,2.219,2.2594,2.2594,2.2594,2.3347,2.4202,2.4202,2.4202,2.4399,2.544,2.6024,2.6544,2.7119,2.7309,2.7602,2.8894,2.9623,3.0072,3.0182,3.1834,3.3618,3.4592,3.4775,3.4969,3.5404,3.6026,2.8121,0.3671,0.0,0.0,0.0,0.0,0.0,0.0,0.0,0.0,0.0,0.0,0.0,0.0,0.0,0.0,0.0,0.0,0.0,0.0,0.0,0.0,0.0,0.0,0.0,0.0,0.0,0.0,2.3091,2.1885,2.0605,2.0605,2.1865,2.3091,0.0,0.0,0.0,0.0,0.0,0.0,0.0,0.0,0.0,0.0,0.0,0.0,0.0,0.0,0.0,0.0,0.0,0.0,0.0,0.0,0.0,0.0,0.0,0.0,2.2644,2.2846,2.2896,2.2603,2.2846,2.2896,2.2594,2.2939,2.3468,2.4196,2.5509,2.5723,2.4932,2.3038,2.2342,2.2493,2.0557,2.0145,2.0873,2.0617,1.9672,1.852,1.9063,1.9279,1.9279,1.9279,1.9998,2.1019,2.1886,2.2342,2.2594,2.2594,2.3147,2.3854,2.4102,2.4202,2.435,2.5098,2.5489,2.5927,2.7023,2.7309,2.7309,2.7309,2.8055,2.9082,2.9988,3.1834,3.3618,3.4592,3.4775,3.4775,3.4775,3.5452,2.9918,1.1946,0.3972,0.0,0.0,0.0,0.0,0.0,0.0,0.0,0.0,0.0,0.0,0.0,0.0,0.0,0.0,0.0,0.0,0.0,0.0,0.0,0.0,0.0,0.0,0.0,0.0,0.0,2.3091,2.1885,2.0605,2.0605,2.1865,2.3091,0.0,0.0,0.0,0.0,0.0,0.0,0.0,0.0,0.0,0.0,0.0,0.0,0.0,0.0,0.0,0.0,0.0,0.0,0.0,0.0,0.0,0.0,0.0,0.0,2.2644,2.3546,2.3646,2.2644,2.3605,2.3655,2.2603,2.3799,2.5756,2.8456,2.7631,2.7214,2.7013,2.2852,2.1581,2.2544,2.1326,2.0865,2.0814,1.9791,1.9894,2.0609,1.9687,1.9279,1.9279,1.9279,1.9998,2.0925,2.0976,2.1683,2.2594,2.2594,2.2644,2.2846,2.3895,2.4202,2.4202,2.4251,2.4941,2.5927,2.7023,2.7309,2.7309,2.7309,2.8055,2.9082,2.9988,3.1834,3.3618,3.4592,3.4775,3.4775,3.4775,3.4823,3.4798,3.4527,1.4821,0.0,0.0,0.0,0.0,0.0,0.0,0.0,0.0,0.0,0.0,0.0,0.0,0.0,0.0,0.0,0.0,0.0,0.0,0.0,0.0,0.0,0.0,0.0,0.0,0.0,2.1787,2.1075,2.0605,2.0605,2.1065,2.1777,2.2847,0.0,0.0,0.0,0.0,0.0,0.0,0.0,0.0,0.0,0.0,0.0,0.0,0.0,0.0,0.0,0.0,0.0,0.0,0.0,0.0,0.0,0.0,0.0,2.3655,2.4003,2.4003,2.3646,2.4003,2.3696,2.2594,2.5718,2.7807,2.8803,2.842,2.7001,2.4561,2.3614,2.2983,2.2544,2.1377,2.0925,2.0865,2.0514,2.0557,2.0873,2.0462,1.9465,1.8325,1.9011,1.9998,2.0925,2.0925,2.1173,2.1632,2.2342,2.2594,2.2795,2.3845,2.4202,2.4202,2.4202,2.4941,2.5781,2.6159,2.6784,2.7309,2.7309,2.8055,2.9082,2.9988,3.1834,3.3431,3.3767,3.4347,3.4775,3.4775,3.4775,3.5163,3.6216,1.5638,0.0,0.0,0.0,0.0,0.0,0.0,0.0,0.0,0.0,0.0,0.0,0.0,0.0,0.0,0.0,0.0,0.0,0.0,0.0,0.0,0.0,0.0,0.0,0.0,0.0,2.0918,2.0605,2.0605,2.0605,2.0605,2.0899,2.2012,0.0,0.0,0.0,0.0,0.0,0.0,0.0,0.0,0.0,0.0,0.0,0.0,0.0,0.0,0.0,0.0,0.0,0.0,0.0,0.0,0.0,0.0,0.0,2.4202,2.4202,2.4202,2.4202,2.4202,2.3854,2.3147,2.6914,2.8803,2.8792,2.7828,2.6012,2.358,2.4239,2.3894,2.2693,2.1627,2.1279,2.1428,2.1078,2.0925,2.0873,2.0506,1.9257,1.7793,1.9264,2.005,2.0403,2.0763,2.0925,2.1019,2.1784,2.2291,2.2745,2.3456,2.3895,2.4202,2.4202,2.4695,2.5294,2.5586,2.6496,2.7309,2.7309,2.8055,2.8989,2.9577,3.1048,3.2454,3.3155,3.3817,3.4396,3.4738,3.4775,3.5163,3.6216,2.2602,0.9265,0.1056,0.0,0.0,0.0,0.0,0.0,0.0,0.0,0.0,0.0,0.0,0.0,0.0,0.0,0.0,0.0,0.0,0.0,0.0,0.0,0.0,0.0,0.0,0.0,0.0,0.0,0.0,0.0,0.0,0.0,0.0,0.0,0.0,0.0,0.0,0.0,0.0,0.0,0.0,0.0,0.0,0.0,0.0,0.0,0.0,0.0,0.0,0.0,0.0,0.0,0.0,0.0,0.0,2.4251,2.4251,2.4202,2.4251,2.435,2.4251,2.4202,2.4202,2.7268,2.8771,2.8648,2.5916,2.4623,2.4623,2.4528,2.4013,2.3101,2.2176,2.2109,2.2584,2.1412,2.0925,2.0771,1.9687,1.8639,1.7996,2.0086,2.0205,1.948,2.0506,2.0865,2.0925,2.0925,2.1632,2.2544,2.2594,2.3347,2.4152,2.4202,2.4202,2.4449,2.544,2.6496,2.7309,2.7309,2.8055,2.8746,2.8803,2.9531,3.0755,3.281,3.3247,3.3618,3.464,3.4775,3.5163,3.6216,3.6358,2.7593,0.3143,0.0,0.0,0.0,0.0,0.0,0.0,0.0,0.0,0.0,0.0,0.0,0.0,0.0,0.0,0.0,0.0,0.0,0.0,0.0,0.0,0.0,0.0,0.0,2.0605,0.0,0.0,0.0,0.0,0.0,0.0,0.0,0.0,0.0,0.0,0.0,0.0,0.0,0.0,0.0,0.0,0.0,0.0,0.0,0.0,0.0,0.0,0.0,0.0,0.0,0.0,0.0,0.0,2.5294,2.5294,2.4597,2.5206,2.7458,2.5353,2.4202,2.4202,2.7268,2.7739,2.5692,2.7008,2.7597,2.7554,2.5447,2.4368,2.41,2.3841,2.3805,2.389,2.2614,2.1632,2.0712,1.8788,1.9346,2.1097,2.0094,2.005,2.0403,1.9894,2.0248,2.0925,2.0925,2.1121,2.153,2.2342,2.2795,2.3197,2.4003,2.4202,2.4449,2.544,2.6496,2.7309,2.7309,2.7489,2.7914,2.8653,2.8978,2.9561,3.0811,3.2271,3.3618,3.464,3.4775,3.4872,3.5211,3.5883,2.7593,0.3143,0.0,0.0,0.0,0.0,0.0,0.0,0.0,0.0,0.0,0.0,0.0,0.0,0.0,0.0,0.0,0.0,0.0,0.0,0.0,0.0,0.0,0.0,0.0,2.0605,2.0605,2.0605,0.0,0.0,0.0,2.0605,2.0605,0.0,0.0,0.0,0.0,0.0,0.0,0.0,0.0,0.0,0.0,0.0,0.0,0.0,0.0,0.0,0.0,0.0,0.0,0.0,0.0,2.4036,2.4923,2.5645,2.5147,2.6398,2.9886,2.7851,2.5916,2.4202,2.7268,2.7961,2.6303,2.7993,2.8147,2.7008,2.6519,2.5649,2.4497,2.4497,2.4282,2.3878,2.3103,2.1479,1.9395,1.9315,2.0369,2.1784,2.096,2.0506,2.0153,1.9539,1.9998,2.0925,2.0925,2.0925,2.1121,2.2241,2.2594,2.2745,2.3347,2.3845,2.4449,2.544,2.6496,2.7309,2.7309,2.7309,2.7441,2.8055,2.8524,2.9071,3.0034,3.188,3.3618,3.464,3.4775,3.4775,3.4775,3.5307,3.0774,1.6954,0.6298,0.0,0.0,0.0,0.0,0.0,0.0,0.0,0.0,0.0,0.0,0.0,0.0,0.0,0.0,0.0,0.0,0.0,0.0,0.0,0.0,0.0,0.0,2.1126,2.0934,2.0605,0.0,0.0,0.0,2.0605,2.0605,0.0,0.0,0.0,0.0,0.0,0.0,0.0,0.0,0.0,0.0,0.0,0.0,0.0,0.0,0.0,0.0,0.0,0.0,0.0,2.3091,2.3091,2.3943,2.5914,2.5631,2.7322,3.156,3.0713,2.8412,2.4735,2.741,2.8803,2.8803,2.8803,2.7454,2.5065,2.7608,2.7411,2.4959,2.4633,2.397,2.3154,2.356,2.1518,1.8326,2.0637,2.1341,2.1091,2.1887,2.0881,1.9081,1.9228,1.9946,2.0719,2.0873,2.0925,2.107,2.2089,2.2493,2.2594,2.2594,2.3447,2.4548,2.5489,2.64,2.7167,2.7262,2.7309,2.7309,2.7309,2.8102,2.9071,3.0034,3.188,3.3568,3.4494,3.4738,3.4775,3.4775,3.4775,3.5163,3.6263,1.5097,0.0,0.0,0.0,0.0,0.0,0.0,0.0,0.0,0.0,0.0,0.0,0.0,0.0,0.0,0.0,0.0,0.0,0.0,0.0,0.0,0.0,0.0,0.0,0.0,0.0,0.0,0.0,0.0,2.0605,2.0605,2.0605,0.0,0.0,0.0,0.0,0.0,0.0,0.0,0.0,0.0,0.0,0.0,0.0,0.0,0.0,0.0,0.0,0.0,2.3091,2.3091,2.3091,2.4514,2.7778,2.519,2.608,3.1512,3.0713,2.9474,2.794,2.8513,2.8803,2.8803,2.8803,2.8514,2.7982,2.8536,2.8503,2.7839,2.5522,2.397,2.333,2.641,2.5858,2.2921,2.1221,2.0974,2.1375,2.003,1.8752,1.786,1.8913,1.9428,1.9739,2.0609,2.0925,2.0917,2.1173,2.1886,2.2594,2.2594,2.3945,2.544,2.5645,2.5878,2.6217,2.7071,2.7309,2.7309,2.7309,2.8102,2.9071,3.0034,3.188,3.3381,3.3568,3.4249,3.4775,3.4775,3.4775,3.5163,3.6263,1.5097,0.0,0.0,0.0,0.0,0.0,0.0,0.0,0.0,0.0,0.0,0.0,0.0,0.0,0.0,0.0,0.0,0.0,0.0,0.0,0.0,0.0,0.0,0.0,0.0,0.0,2.3551,0.0,0.0,0.0,2.3551,2.2999,0.0,0.0,0.0,0.0,0.0,0.0,0.0,0.0,0.0,0.0,0.0,0.0,0.0,0.0,0.0,0.0,0.0,2.3091,2.3091,2.3091,2.4851,2.8946,2.7028,2.7121,3.0008,2.9621,2.9631,3.025,2.976,2.9255,2.8803,2.8803,2.8803,2.8803,2.8803,2.8004,2.6562,2.4617,2.4598,2.5955,2.647,2.666,2.6375,2.3491,2.2378,2.198,1.8565,1.7279,1.7421,1.8079,1.8306,1.8447,1.9535,1.9827,1.9962,2.071,2.118,2.1566,2.2043,2.2895,2.3984,2.5363,2.5693,2.5839,2.6352,2.6928,2.7309,2.7309,2.8102,2.8943,2.9393,3.0715,3.2076,3.3109,3.3717,3.42,3.4726,3.4775,3.5163,3.6263,2.5732,1.3488,0.1295,0.0,0.0,0.0,0.0,0.0,0.0,0.0,0.0,0.0,0.0,0.0,0.0,0.0,0.0,0.0,0.0,0.0,0.0,0.0,0.0,0.0,0.0,0.0,0.0,0.0,2.6499,0.0,0.0,0.0,2.2403,0.0,0.0,0.0,0.0,0.0,0.0,0.0,0.0,0.0,0.0,0.0,0.0,0.0,0.0,0.0,0.0,2.3091,2.3091,2.3887,2.5964,2.9624,2.8946,2.851,2.851,2.851,2.9532,3.1681,3.0505,2.9691,2.9347,2.8978,2.8803,2.8803,2.8803,2.7213,2.4475,2.428,2.5623,2.7839,2.6055,2.639,2.7729,2.5197,2.3537,2.2104,1.8133,1.7178,1.7839,1.7419,1.7279,1.7419,1.8265,1.8773,1.9313,2.0417,2.0543,2.0518,2.1419,2.1696,2.2215,2.4354,2.5295,2.5693,2.5693,2.6496,2.7309,2.7309,2.7961,2.8571,2.8757,2.9393,3.0513,3.236,3.3017,3.3618,3.464,3.4775,3.5114,3.5978,3.6263,2.7052,0.2602,0.0,0.0,0.0,0.0,0.0,0.0,0.0,0.0,0.0,0.0,0.0,0.0,0.0,0.0,0.0,0.0,0.0,0.0,0.0,0.0,0.0,0.0,0.0,0.0,2.6499,0.0,0.0,0.0,2.6383,2.5931,0.0,0.0,0.0,0.0,0.0,0.0,0.0,0.0,0.0,0.0,0.0,0.0,0.0,0.0,0.0,0.0,0.0,2.3091,2.6801,2.9248,2.9753,2.8946,2.851,2.851,2.851,2.9532,3.1681,2.9684,2.9589,3.1339,2.9612,2.8803,2.8803,2.8803,2.7213,2.4633,2.7102,2.695,2.5171,2.7411,2.7018,2.4873,2.3694,2.2157,2.0555,2.0011,1.9874,1.9691,1.7932,1.7279,1.7326,1.7419,1.8673,2.0144,2.0305,2.0337,2.0518,2.1419,2.1696,2.1777,2.2105,2.3927,2.5693,2.5693,2.6496,2.7309,2.7309,2.7404,2.7726,2.8617,2.8896,2.9287,3.0388,3.2076,3.3618,3.464,3.4775,3.4823,3.4981,3.5835,2.7052,0.2602,0.0,0.0,0.0,0.0,0.0,0.0,0.0,0.0,0.0,0.0,0.0,0.0,0.0,0.0,0.0,0.0,0.0,0.0,0.0,0.0,0.0,0.0,0.0,0.0,0.0,0.0,2.6499,0.0,2.6499,0.0,0.0,0.0,0.0,0.0,0.0,0.0,0.0,0.0,0.0,0.0,0.0,0.0,0.0,0.0,0.0,0.0,0.0,0.0,0.0,2.9792,2.9792,2.8946,2.851,2.851,2.851,2.8931,2.9821,3.017,3.017,2.9845,3.0273,3.0476,3.0396,2.7588,2.6852,2.7844,2.8488,2.8115,2.6952,2.6509,2.4948,2.2784,2.1856,2.1006,2.0292,2.0292,2.0292,2.0246,1.9948,1.9849,1.9675,1.8535,1.8727,1.9563,2.011,2.0292,2.0382,2.0789,2.1284,2.1696,2.1696,2.2564,2.3795,2.5353,2.6496,2.7309,2.7309,2.7309,2.7404,2.7867,2.8384,2.9128,3.0034,3.1926,3.3618,3.464,3.4775,3.4775,3.4775,3.5211,3.1804,2.2167,0.8448,0.0,0.0,0.0,0.0,0.0,0.0,0.0,0.0,0.0,0.0,0.0,0.0,0.0,0.0,0.0,0.0,0.0,0.0,0.0,2.9792,0.0,0.0,0.0,0.0,0.0,0.0,0.0,0.0,0.0,0.0,0.0,0.0,0.0,0.0,0.0,0.0,0.0,0.0,0.0,0.0,0.0,0.0,0.0,0.0,0.0,0.0,0.0,2.944,0.0,2.9792,2.8946,2.851,2.851,2.851,2.851,2.851,3.0025,3.0326,2.9388,3.0338,3.0965,3.1202,2.7941,2.7679,2.9806,2.9347,2.9035,2.8558,2.5142,2.2925,2.1607,2.0654,2.0292,2.0292,2.0292,2.0292,2.0382,2.106,2.1463,2.1463,2.0056,1.9774,2.013,2.0862,2.1051,2.1051,2.1051,2.1544,2.2043,2.1776,2.2087,2.3172,2.5874,2.7156,2.7726,2.7726,2.7726,2.7773,2.8045,2.8699,2.9572,3.0822,3.2294,3.353,3.4298,3.4628,3.4775,3.4775,3.4775,3.5211,3.631,1.4557,0.0,0.0,0.0,0.0,0.0,0.0,0.0,0.0,0.0,0.0,0.0,0.0,0.0,0.0,0.0,0.0,0.0,0.0,0.0,0.0,0.0,0.0,2.9679,0.0,0.0,0.0,0.0,2.6499,0.0,0.0,0.0,0.0,0.0,0.0,2.6499,0.0,0.0,0.0,0.0,0.0,0.0,0.0,0.0,0.0,0.0,0.0,0.0,2.8611,0.0,2.9792,2.8946,2.851,2.851,2.851,2.851,2.851,2.8582,2.9605,3.1585,2.9556,2.9177,3.0261,3.1101,3.0508,2.8885,2.976,2.9623,2.8465,2.3738,2.1731,2.1607,2.0654,2.0292,2.0292,2.0292,2.0292,2.0292,2.0337,2.0925,2.1687,2.1651,2.2211,2.296,2.3003,2.3003,2.3003,2.3003,2.3047,2.2838,2.1954,2.3047,2.5126,2.8023,2.871,2.8757,2.8757,2.8757,2.9024,2.9943,3.0125,3.0801,3.2845,3.3247,3.3331,3.3331,3.42,3.4775,3.4775,3.4775,3.5211,3.631,1.4557,0.0,0.0,0.0,0.0,0.0,0.0,0.0,0.0,0.0,0.0,0.0,0.0,0.0,0.0,0.0,0.0,0.0,0.0,0.0,0.0,0.0,2.9792,2.9792,0.0,0.0,0.0,0.0,0.0,0.0,0.0,0.0,0.0,0.0,2.6499,2.6499,2.6499,0.0,0.0,0.0,0.0,0.0,0.0,0.0,0.0,0.0,0.0,2.6383,2.8561,2.9792,0.0,2.952,2.9116,2.851,2.851,2.851,2.851,2.851,2.8871,2.9569,2.8847,2.9451,3.1205,3.1528,3.1339,3.0758,3.1071,2.9546,2.6596,2.3138,2.1696,2.1607,2.0654,2.0292,2.0292,2.0292,2.0292,2.0382,2.1015,2.1419,2.1696,2.1696,2.2353,2.3091,2.3091,2.3091,2.3091,2.3091,2.3091,2.3178,2.3493,2.4013,2.5039,2.7283,2.8337,2.8803,2.8803,2.8803,2.9071,3.0034,3.0216,3.0434,3.1134,3.2386,3.353,3.42,3.4014,3.4052,3.4726,3.4775,3.492,3.5307,2.8597,1.7561,0.137,0.0,0.0,0.0,0.0,0.0,0.0,0.0,0.0,0.0,0.0,0.0,0.0,0.0,0.0,0.0,0.0,0.0,2.9792,2.9792,0.0,0.0,2.9792,0.0,2.9792,0.0,0.0,0.0,0.0,0.0,0.0,0.0,0.0,2.6499,2.6499,2.6499,0.0,2.6499,0.0,0.0,0.0,0.0,0.0,0.0,2.6499,2.6499,2.7832,2.895,0.0,0.0,2.9234,2.8946,2.8669,2.851,2.851,2.851,2.851,2.8522,2.9594,3.0287,3.0567,3.1368,3.1705,3.1625,3.0248,2.8242,2.577,2.395,2.3212,2.3125,2.2536,2.1481,2.0292,2.0292,2.0292,2.0382,2.1015,2.1419,2.1696,2.1696,2.2087,2.2652,2.3013,2.3091,2.3091,2.3091,2.3091,2.3319,2.4282,2.4497,2.4962,2.6874,2.782,2.8384,2.871,2.8803,2.9071,3.0034,3.0216,3.0216,3.0216,3.1318,3.2674,3.4044,3.4003,3.4064,3.4738,3.4775,3.4775,3.4775,3.574,2.6524,0.2074,0.0,0.0,0.0,0.0,0.0,0.0,0.0,0.0,0.0,0.0,0.0,0.0,0.0,0.0,0.0,0.0,0.0]}]]